LiveATC.Net - Listen to live air traffic control over the Internet!
Airport/ARTCC Code
Frequency Search
(e.g., 124.400, 128.75)
Site-wide search
 


Browse Feeds
Top 50 Feeds
HF Oceanic Feeds
Coverage Map
Bad Weather Areas

LiveATC FAQ

Increase Coverage

Contact LiveATC.net
Press Inquiries

LiveATC on iPhone
LiveATC on Android

LiveATC Mobile
(Mobile browser)

ATC Audio Archives
Interesting Recordings

LiveATC Forums

Home Page
About LiveATC.net


Terms of Use
Privacy Policy

AIRMETs/SIGMETs

FAA Airport Status
NAS Status
Arrival Demand


Server Software By:
Icecast.org
Liquidsoap

Select an area of interest:
U.S. Feeds: Class B Airports | Class C Airports | Class D/Other Airports | ARTCC (Centers)
International Feeds: Canada | Europe | Oceania | Asia | South America | North/Central America | Africa
Misc Feeds: HF Feeds
Search by ICAO/IATA airport code:   (e.g., kbos, kjfk, lax, eham, etc.)


Currently Available Live Feeds: 3208
Status Updated: Fri Apr 12 2024 17:18:04 UTC


NOTICE

Unauthorized use prohibited. See LiveATC.net Terms of Service

U.S. Class B Airport Feeds

 

KDAL App/Dep (East Side North Low) (Archives)
Dallas, Texas, United States

Feed Status: UP
Listen in your browser - HTML5 player(in browser, HTML5)
Click here to listen with your own player(launches your MP3 player)

KDFW 121653Z 18009KT 10SM SCT250 23/06 A3024 RMK AO2 SLP235 T02330061

KDFW Airport Info (Airnav.com)

KDFW Flight Activity (Flightaware)

Listeners: 0 out of 3094 total

Regional Approach/Departure (East Side/North Low): 124.300

KDAA/KADW Tower (Archives)
Camp Springs, Maryland, United States

Feed Status: UP
Listen in your browser - HTML5 player(in browser, HTML5)
Click here to listen with your own player(launches your MP3 player)

KDAA 121655Z AUTO 26013G27KT 10SM SCT085 20/03 A2948 RMK AO2 PK WND 27027/47 SLP985 T01980026 $

KDAA Airport Info (Airnav.com)

KDAA Flight Activity (Flightaware)

Listeners: 4 out of 3094 total

Andrews Tower: 118.400
Andrews Tower: 349.000
Davison Tower: 241.000
Davison Tower: 126.300
Davison Tower: 229.400

KAPA App/Dep (Archives)
Denver, Colorado, United States

Feed Status: UP
Listen in your browser - HTML5 player(in browser, HTML5)
Click here to listen with your own player(launches your MP3 player)

KAPA 121653Z VRB04KT 10SM CLR 19/M10 A3012 RMK AO2 SLP161 T01891100

KAPA Airport Info (Airnav.com)

KAPA Flight Activity (Flightaware)

Listeners: 1 out of 3094 total

Denver Approach/Departure: 132.750

Atlanta Approach (NW Satellite) (Archives)
Atlanta, Georgia, United States

Feed Status: UP
Listen in your browser - HTML5 player(in browser, HTML5)
Click here to listen with your own player(launches your MP3 player)

KRYY 121650Z 26019G29KT 10SM CLR 17/00 A3000 RMK AO2 PK WND 26032/1610 SLP153 T01720000 $

KRYY Airport Info (Airnav.com)

KRYY Flight Activity (Flightaware)

Listeners: 1 out of 3094 total

Atlanta Approach (North Satellite): 121.000

Atlanta Approach (TAR NW) (Archives)
Atlanta, Georgia, United States

Feed Status: UP
Listen in your browser - HTML5 player(in browser, HTML5)
Click here to listen with your own player(launches your MP3 player)

KRYY 121650Z 26019G29KT 10SM CLR 17/00 A3000 RMK AO2 PK WND 26032/1610 SLP153 T01720000 $

KRYY Airport Info (Airnav.com)

KRYY Flight Activity (Flightaware)

Listeners: 2 out of 3094 total

Atlanta Approach (TAR North): 128.000

KATL ATIS (Arrival) (Archives)
Atlanta, Georgia, United States

Feed Status: UP
Listen in your browser - HTML5 player(in browser, HTML5)
Click here to listen with your own player(launches your MP3 player)

KATL 121652Z 27021G31KT 10SM FEW060 18/02 A2999 RMK AO2 PK WND 29034/1636 SLP155 T01830017

KATL Airport Info (Airnav.com)

KATL Flight Activity (Flightaware)

Listeners: 0 out of 3094 total

Atlanta Arrival ATIS: 119.650

KATL ATIS (Departure) (Archives)
Atlanta, Georgia, United States

Feed Status: UP
Listen in your browser - HTML5 player(in browser, HTML5)
Click here to listen with your own player(launches your MP3 player)

KATL 121652Z 27021G31KT 10SM FEW060 18/02 A2999 RMK AO2 PK WND 29034/1636 SLP155 T01830017

KATL Airport Info (Airnav.com)

KATL Flight Activity (Flightaware)

Listeners: 0 out of 3094 total

Atlanta Departure ATIS: 125.550

KATL Clearance Delivery (Archives)
Atlanta, Georgia, United States

Feed Status: UP
Listen in your browser - HTML5 player(in browser, HTML5)
Click here to listen with your own player(launches your MP3 player)

KATL 121652Z 27021G31KT 10SM FEW060 18/02 A2999 RMK AO2 PK WND 29034/1636 SLP155 T01830017

KATL Airport Info (Airnav.com)

KATL Flight Activity (Flightaware)

Listeners: 1 out of 3094 total

Atlanta Clearance Delivery: 118.100

KATL Departure (North) (Archives)
Atlanta, Georgia, United States

Feed Status: UP
Listen in your browser - HTML5 player(in browser, HTML5)
Click here to listen with your own player(launches your MP3 player)

KATL 121652Z 27021G31KT 10SM FEW060 18/02 A2999 RMK AO2 PK WND 29034/1636 SLP155 T01830017

KATL Airport Info (Airnav.com)

KATL Flight Activity (Flightaware)

Listeners: 2 out of 3094 total

Atlanta Departure (North): 133.475

KATL Departure (South) (Archives)
Atlanta, Georgia, United States

Feed Status: UP
Listen in your browser - HTML5 player(in browser, HTML5)
Click here to listen with your own player(launches your MP3 player)

KATL 121652Z 27021G31KT 10SM FEW060 18/02 A2999 RMK AO2 PK WND 29034/1636 SLP155 T01830017

KATL Airport Info (Airnav.com)

KATL Flight Activity (Flightaware)

Listeners: 1 out of 3094 total

Atlanta Departure: 125.650

KATL Final Approach 26R/8L (Archives)
Atlanta, Georgia, United States

Feed Status: UP
Listen in your browser - HTML5 player(in browser, HTML5)
Click here to listen with your own player(launches your MP3 player)

KATL 121652Z 27021G31KT 10SM FEW060 18/02 A2999 RMK AO2 PK WND 29034/1636 SLP155 T01830017

KATL Airport Info (Airnav.com)

KATL Flight Activity (Flightaware)

Listeners: 2 out of 3094 total

Atlanta Approach (Final Approach Rwy 26R/8L): 127.250

KATL Final Approach 27L/9R (Archives)
Atlanta, Georgia, United States

Feed Status: UP
Listen in your browser - HTML5 player(in browser, HTML5)
Click here to listen with your own player(launches your MP3 player)

KATL 121652Z 27021G31KT 10SM FEW060 18/02 A2999 RMK AO2 PK WND 29034/1636 SLP155 T01830017

KATL Airport Info (Airnav.com)

KATL Flight Activity (Flightaware)

Listeners: 1 out of 3094 total

Atlanta Approach (Final Approach 27L/9R): 124.600

KATL Final Approach 28/10 (Archives)
Atlanta, Georgia, United States

Feed Status: UP
Listen in your browser - HTML5 player(in browser, HTML5)
Click here to listen with your own player(launches your MP3 player)

KATL 121652Z 27021G31KT 10SM FEW060 18/02 A2999 RMK AO2 PK WND 29034/1636 SLP155 T01830017

KATL Airport Info (Airnav.com)

KATL Flight Activity (Flightaware)

Listeners: 0 out of 3094 total

Atlanta Approach (Final Approach Rwy 28/10): 135.375

KATL Ground (Archives)
Atlanta, Georgia, United States

Feed Status: UP
Listen in your browser - HTML5 player(in browser, HTML5)
Click here to listen with your own player(launches your MP3 player)

KATL 121652Z 27021G31KT 10SM FEW060 18/02 A2999 RMK AO2 PK WND 29034/1636 SLP155 T01830017

KATL Airport Info (Airnav.com)

KATL Flight Activity (Flightaware)

Listeners: 1 out of 3094 total

Atlanta Ground (Rwy 10/28): 121.650
Atlanta Ground (Rwy 8/26): 121.900
Atlanta Ground (Rwy 9/27): 121.750

KATL Ground (Rwy 10/28) (Archives)
Atlanta, Georgia, United States

Feed Status: UP
Listen in your browser - HTML5 player(in browser, HTML5)
Click here to listen with your own player(launches your MP3 player)

KATL 121652Z 27021G31KT 10SM FEW060 18/02 A2999 RMK AO2 PK WND 29034/1636 SLP155 T01830017

KATL Airport Info (Airnav.com)

KATL Flight Activity (Flightaware)

Listeners: 0 out of 3094 total

Atlanta Ground (Rwy 10/28): 121.650

KATL Ground (Rwys 8/26) (Archives)
Atlanta, Georgia, United States

Feed Status: UP
Listen in your browser - HTML5 player(in browser, HTML5)
Click here to listen with your own player(launches your MP3 player)

KATL 121652Z 27021G31KT 10SM FEW060 18/02 A2999 RMK AO2 PK WND 29034/1636 SLP155 T01830017

KATL Airport Info (Airnav.com)

KATL Flight Activity (Flightaware)

Listeners: 0 out of 3094 total

Atlanta Ground (Rwys 8/26): 121.900

KATL Ground (Rwys 9/27) (Archives)
Atlanta, Georgia, United States

Feed Status: UP
Listen in your browser - HTML5 player(in browser, HTML5)
Click here to listen with your own player(launches your MP3 player)

KATL 121652Z 27021G31KT 10SM FEW060 18/02 A2999 RMK AO2 PK WND 29034/1636 SLP155 T01830017

KATL Airport Info (Airnav.com)

KATL Flight Activity (Flightaware)

Listeners: 1 out of 3094 total

Atlanta Ground (Rwys 9/27): 121.750

KATL Ramp (Archives)
Atlanta, Georgia, United States

Feed Status: UP
Listen in your browser - HTML5 player(in browser, HTML5)
Click here to listen with your own player(launches your MP3 player)

KATL 121652Z 27021G31KT 10SM FEW060 18/02 A2999 RMK AO2 PK WND 29034/1636 SLP155 T01830017

KATL Airport Info (Airnav.com)

KATL Flight Activity (Flightaware)

Listeners: 2 out of 3094 total

Ramp: 128.975
Ramp: 131.875
Ramp 1: 131.450
Ramp 2: 131.850
Ramp 3: 129.275
Ramp 4: 130.075
Ramp 5: 129.375
Ramp 6: 131.375

KATL Tower (Archives)
Atlanta, Georgia, United States

Feed Status: UP
Listen in your browser - HTML5 player(in browser, HTML5)
Click here to listen with your own player(launches your MP3 player)

KATL 121652Z 27021G31KT 10SM FEW060 18/02 A2999 RMK AO2 PK WND 29034/1636 SLP155 T01830017

KATL Airport Info (Airnav.com)

KATL Flight Activity (Flightaware)

Listeners: 9 out of 3094 total

Atlanta Tower (Rwy 10/28): 119.500
Atlanta Tower (Rwy 8L/26R): 119.100
Atlanta Tower (Rwy 8R/26L): 125.325
Atlanta Tower (Rwy 9L/27R): 123.850
Atlanta Tower (Rwy 9R/27L): 119.300

KATL Tower (Rwy 10/28) (Archives)
Atlanta, Georgia, United States

Feed Status: UP
Listen in your browser - HTML5 player(in browser, HTML5)
Click here to listen with your own player(launches your MP3 player)

KATL 121652Z 27021G31KT 10SM FEW060 18/02 A2999 RMK AO2 PK WND 29034/1636 SLP155 T01830017

KATL Airport Info (Airnav.com)

KATL Flight Activity (Flightaware)

Listeners: 0 out of 3094 total

Atlanta Tower (Runway 10/28): 119.500

KATL Tower (Rwy 8L/26R) (Archives)
Atlanta, Georgia, United States

Feed Status: UP
Listen in your browser - HTML5 player(in browser, HTML5)
Click here to listen with your own player(launches your MP3 player)

KATL 121652Z 27021G31KT 10SM FEW060 18/02 A2999 RMK AO2 PK WND 29034/1636 SLP155 T01830017

KATL Airport Info (Airnav.com)

KATL Flight Activity (Flightaware)

Listeners: 0 out of 3094 total

Atlanta Tower (Runway 08L/26R): 119.100

KATL Tower (Rwy 8R/26L) (Archives)
Atlanta, Georgia, United States

Feed Status: UP
Listen in your browser - HTML5 player(in browser, HTML5)
Click here to listen with your own player(launches your MP3 player)

KATL 121652Z 27021G31KT 10SM FEW060 18/02 A2999 RMK AO2 PK WND 29034/1636 SLP155 T01830017

KATL Airport Info (Airnav.com)

KATL Flight Activity (Flightaware)

Listeners: 0 out of 3094 total

Atlanta Tower (Runway 08R/26L): 125.325

KATL Tower (Rwy 8R/8L/26L/26R) (Archives)
Atlanta, Georgia, United States

Feed Status: UP
Listen in your browser - HTML5 player(in browser, HTML5)
Click here to listen with your own player(launches your MP3 player)

KATL 121652Z 27021G31KT 10SM FEW060 18/02 A2999 RMK AO2 PK WND 29034/1636 SLP155 T01830017

KATL Airport Info (Airnav.com)

KATL Flight Activity (Flightaware)

Listeners: 0 out of 3094 total

Atlanta Tower (Runway 08L/26R): 119.100
Atlanta Tower (Rwy 8R/26L): 125.325

KATL Tower (Rwy 9L/27R) (Archives)
Atlanta, Georgia, United States

Feed Status: UP
Listen in your browser - HTML5 player(in browser, HTML5)
Click here to listen with your own player(launches your MP3 player)

KATL 121652Z 27021G31KT 10SM FEW060 18/02 A2999 RMK AO2 PK WND 29034/1636 SLP155 T01830017

KATL Airport Info (Airnav.com)

KATL Flight Activity (Flightaware)

Listeners: 2 out of 3094 total

Atlanta Tower (Runway 09L/27R): 123.850

KATL Tower (Rwy 9R/27L) (Archives)
Atlanta, Georgia, United States

Feed Status: UP
Listen in your browser - HTML5 player(in browser, HTML5)
Click here to listen with your own player(launches your MP3 player)

KATL 121652Z 27021G31KT 10SM FEW060 18/02 A2999 RMK AO2 PK WND 29034/1636 SLP155 T01830017

KATL Airport Info (Airnav.com)

KATL Flight Activity (Flightaware)

Listeners: 0 out of 3094 total

Atlanta Tower (Runway 09R/27L): 119.300

KATL Tower (Rwy 9R/9L/27L/27R) (Archives)
Atlanta, Georgia, United States

Feed Status: UP
Listen in your browser - HTML5 player(in browser, HTML5)
Click here to listen with your own player(launches your MP3 player)

KATL 121652Z 27021G31KT 10SM FEW060 18/02 A2999 RMK AO2 PK WND 29034/1636 SLP155 T01830017

KATL Airport Info (Airnav.com)

KATL Flight Activity (Flightaware)

Listeners: 0 out of 3094 total

Atlanta Tower (Runway 09L/27R): 123.850
Atlanta Tower (Runway 09R/27L): 119.300

KATL Traffic Management (Archives)
Atlanta, Georgia, United States

Feed Status: UP
Listen in your browser - HTML5 player(in browser, HTML5)
Click here to listen with your own player(launches your MP3 player)

KATL 121652Z 27021G31KT 10SM FEW060 18/02 A2999 RMK AO2 PK WND 29034/1636 SLP155 T01830017

KATL Airport Info (Airnav.com)

KATL Flight Activity (Flightaware)

Listeners: 0 out of 3094 total

Atlanta Traffic Management: 118.700

KBDR Del/Gnd/Twr/App (Archives)
Bridgeport, Connecticut, United States

Feed Status: UP
Listen in your browser - HTML5 player(in browser, HTML5)
Click here to listen with your own player(launches your MP3 player)

KBDR 121652Z 16008KT 4SM HZ OVC011 15/12 A2933 RMK AO2 SLP930 T01500122

KBDR Airport Info (Airnav.com)

KBDR Flight Activity (Flightaware)

Listeners: 0 out of 3094 total

Bridgeport Clearance/Ground: 121.750
Bridgeport Tower: 120.900
New York Approach (LOVES Sector): 124.075
Sikorsky Heliport: 133.600

New York Approach (LOVES Sector) (Archives)
Bridgeport, Connecticut, United States

Feed Status: UP
Listen in your browser - HTML5 player(in browser, HTML5)
Click here to listen with your own player(launches your MP3 player)

KBDR 121652Z 16008KT 4SM HZ OVC011 15/12 A2933 RMK AO2 SLP930 T01500122

KBDR Airport Info (Airnav.com)

KBDR Flight Activity (Flightaware)

Listeners: 0 out of 3094 total

New York Approach (LOVES Sector): 124.075

Boston App/Dep (North Sat) #2 (Archives)
Bedford, Massachusetts, United States

Feed Status: UP
Listen in your browser - HTML5 player(in browser, HTML5)
Click here to listen with your own player(launches your MP3 player)

KBED 121651Z 16015G24KT 5SM BR OVC009 16/15 A2941 RMK AO2 PK WND 18029/1618 RAE47 SLP972 P0000 T01610150

KBED Airport Info (Airnav.com)

KBED Flight Activity (Flightaware)

Listeners: 0 out of 3094 total

Boston Approach (North Satellites, SFC-3500'): 124.400

KBOS App (Final Vector) (Archives)
Boston, Massachusetts, United States

Feed Status: UP
Listen in your browser - HTML5 player(in browser, HTML5)
Click here to listen with your own player(launches your MP3 player)

KBOS 121654Z 17020G28KT 6SM BR BKN009 OVC015 15/14 A2944 RMK AO2 PK WND 17041/1602 SLP970 T01500144

KBOS Airport Info (Airnav.com)

KBOS Flight Activity (Flightaware)

Listeners: 6 out of 3094 total

Boston Approach (Final One): 126.500
Boston Approach (Final Two): 119.650

KBOS App (North/Rockport) (Archives)
Boston, Massachusetts, United States

Feed Status: UP
Listen in your browser - HTML5 player(in browser, HTML5)
Click here to listen with your own player(launches your MP3 player)

KBOS 121654Z 17020G28KT 6SM BR BKN009 OVC015 15/14 A2944 RMK AO2 PK WND 17041/1602 SLP970 T01500144

KBOS Airport Info (Airnav.com)

KBOS Flight Activity (Flightaware)

Listeners: 0 out of 3094 total

Boston Approach (backup frequency): 126.150
Boston Approach (Rockport Sector, North): 118.250

KBOS App (South/Plymouth) (Archives)
Boston, Massachusetts, United States

Feed Status: UP
Listen in your browser - HTML5 player(in browser, HTML5)
Click here to listen with your own player(launches your MP3 player)

KBOS 121654Z 17020G28KT 6SM BR BKN009 OVC015 15/14 A2944 RMK AO2 PK WND 17041/1602 SLP970 T01500144

KBOS Airport Info (Airnav.com)

KBOS Flight Activity (Flightaware)

Listeners: 0 out of 3094 total

Boston Approach (Plymouth Sector, South): 120.600
Boston Approach (South Satellite): 124.100

KBOS Area Heli/Air-to-Air (Archives)
Boston, Massachusetts, United States

Feed Status: UP
Listen in your browser - HTML5 player(in browser, HTML5)
Click here to listen with your own player(launches your MP3 player)

KBOS 121654Z 17020G28KT 6SM BR BKN009 OVC015 15/14 A2944 RMK AO2 PK WND 17041/1602 SLP970 T01500144

KBOS Airport Info (Airnav.com)

KBOS Flight Activity (Flightaware)

Listeners: 0 out of 3094 total

Aircraft Air-to-Air: 122.750
Helicopter Air-to-Air: 123.025
Helicopter Air-to-Air: 123.075
KBOS Tower (Skyways): 124.725

KBOS Del/Gnd (Archives)
Boston, Massachusetts, United States

Feed Status: UP
Listen in your browser - HTML5 player(in browser, HTML5)
Click here to listen with your own player(launches your MP3 player)

KBOS 121654Z 17020G28KT 6SM BR BKN009 OVC015 15/14 A2944 RMK AO2 PK WND 17041/1602 SLP970 T01500144

KBOS Airport Info (Airnav.com)

KBOS Flight Activity (Flightaware)

Listeners: 1 out of 3094 total

Boston Ground: 121.900
Boston Ground: 121.750

KBOS Dep (ID/Lincoln) (Archives)
Boston, Massachusetts, United States

Feed Status: UP
Listen in your browser - HTML5 player(in browser, HTML5)
Click here to listen with your own player(launches your MP3 player)

KBOS 121654Z 17020G28KT 6SM BR BKN009 OVC015 15/14 A2944 RMK AO2 PK WND 17041/1602 SLP970 T01500144

KBOS Airport Info (Airnav.com)

KBOS Flight Activity (Flightaware)

Listeners: 1 out of 3094 total

Boston Approach/Dep (Lincoln Sector/SW): 127.200
Boston Initial Departure (ID): 133.000

KBOS Flight Watch (FSS) (Archives)
Boston, Massachusetts, United States

Feed Status: UP
Listen in your browser - HTML5 player(in browser, HTML5)
Click here to listen with your own player(launches your MP3 player)

KBOS 121654Z 17020G28KT 6SM BR BKN009 OVC015 15/14 A2944 RMK AO2 PK WND 17041/1602 SLP970 T01500144

KBOS Airport Info (Airnav.com)

KBOS Flight Activity (Flightaware)

Listeners: 0 out of 3094 total

Flight Service/Flight Watch: 122.200

KBOS Ramp (Archives)
Boston, Massachusetts, United States

Feed Status: UP
Listen in your browser - HTML5 player(in browser, HTML5)
Click here to listen with your own player(launches your MP3 player)

KBOS 121654Z 17020G28KT 6SM BR BKN009 OVC015 15/14 A2944 RMK AO2 PK WND 17041/1602 SLP970 T01500144

KBOS Airport Info (Airnav.com)

KBOS Flight Activity (Flightaware)

Listeners: 0 out of 3094 total

Delta Ramp: 131.850
Massport Gate Control: 131.100
Ramp Control: 134.050
UNICOM: 122.950

KBOS Tower (Archives)
Boston, Massachusetts, United States

Feed Status: UP
Listen in your browser - HTML5 player(in browser, HTML5)
Click here to listen with your own player(launches your MP3 player)

KBOS 121654Z 17020G28KT 6SM BR BKN009 OVC015 15/14 A2944 RMK AO2 PK WND 17041/1602 SLP970 T01500144

KBOS Airport Info (Airnav.com)

KBOS Flight Activity (Flightaware)

Listeners: 14 out of 3094 total

Boston Tower (East): 132.225
Boston Tower (West): 128.800

KWHP/KVNY/KBUR App/Dep (Archives)
Burbank, California, United States

Feed Status: UP
Listen in your browser - HTML5 player(in browser, HTML5)
Click here to listen with your own player(launches your MP3 player)

KWHP 121650Z 11005KT 2SM OVC007 12/12 A2990

KWHP Airport Info (Airnav.com)

KWHP Flight Activity (Flightaware)

Listeners: 0 out of 3094 total

SOCAL App (Glendale Sector): 135.050
SOCAL App (Valley Sector): 124.600
SOCAL Approach (Fillmore Sector): 120.400
SOCAL Approach (Moorpark Sector): 128.750
SOCAL Approach (Woodland Sector): 134.200

KBWI Area Emergency/Guard (Archives)
Baltimore, Maryland, United States

Feed Status: UP
Listen in your browser - HTML5 player(in browser, HTML5)
Click here to listen with your own player(launches your MP3 player)

KBWI 121654Z 23020G33KT 10SM BKN065 19/05 A2946 RMK AO2 PK WND 27036/1616 SLP974 T01940050

KBWI Airport Info (Airnav.com)

KBWI Flight Activity (Flightaware)

Listeners: 0 out of 3094 total

Emergency/Guard: 121.500

KBWI ATIS (Archives)
Baltimore, Maryland, United States

Feed Status: UP
Listen in your browser - HTML5 player(in browser, HTML5)
Click here to listen with your own player(launches your MP3 player)

KBWI 121654Z 23020G33KT 10SM BKN065 19/05 A2946 RMK AO2 PK WND 27036/1616 SLP974 T01940050

KBWI Airport Info (Airnav.com)

KBWI Flight Activity (Flightaware)

Listeners: 0 out of 3094 total

Baltimore ATIS: 127.800

KBWI Del/Gnd/FBO (Archives)
Baltimore, Maryland, United States

Feed Status: UP
Listen in your browser - HTML5 player(in browser, HTML5)
Click here to listen with your own player(launches your MP3 player)

KBWI 121654Z 23020G33KT 10SM BKN065 19/05 A2946 RMK AO2 PK WND 27036/1616 SLP974 T01940050

KBWI Airport Info (Airnav.com)

KBWI Flight Activity (Flightaware)

Listeners: 0 out of 3094 total

Baltimore Clearance Delivery: 118.050
Baltimore Ground: 121.900
Baltimore Ground (alt): 120.200
Signature De-Ice: 131.075
Signature De-Ice: 130.175
Signature Flight Service: 129.000

KBWI Tower #2 (Archives)
Baltimore, Maryland, United States

Feed Status: UP
Listen in your browser - HTML5 player(in browser, HTML5)
Click here to listen with your own player(launches your MP3 player)

KBWI 121654Z 23020G33KT 10SM BKN065 19/05 A2946 RMK AO2 PK WND 27036/1616 SLP974 T01940050

KBWI Airport Info (Airnav.com)

KBWI Flight Activity (Flightaware)

Listeners: 9 out of 3094 total

Baltimore Tower: 119.400

Potomac App (BELAY) #1 (Archives)
Baltimore, Maryland, United States

Feed Status: UP
Listen in your browser - HTML5 player(in browser, HTML5)
Click here to listen with your own player(launches your MP3 player)

KDMW 121640Z AUTO 26020G27KT 10SM BKN050 16/06 A2945 RMK AO2

KDMW Airport Info (Airnav.com)

KDMW Flight Activity (Flightaware)

Listeners: 0 out of 3094 total

Potomac Approach (BELAY Sector): 125.525

Potomac App (BELAY) #3 (Archives)
Baltimore, Maryland, United States

Feed Status: UP
Listen in your browser - HTML5 player(in browser, HTML5)
Click here to listen with your own player(launches your MP3 player)

KMRB 121653Z 25022G31KT 10SM BKN055 OVC070 15/05 A2947 RMK AO2 PK WND 28036/1557 SLP978 T01500050

KMRB Airport Info (Airnav.com)

KMRB Flight Activity (Flightaware)

Listeners: 0 out of 3094 total

Potomac Approach (BELAY Sector): 125.525

Potomac App (BELAY) #4 (Archives)
Baltimore, Maryland, United States

Feed Status: UP
Listen in your browser - HTML5 player(in browser, HTML5)
Click here to listen with your own player(launches your MP3 player)

KBWI 121654Z 23020G33KT 10SM BKN065 19/05 A2946 RMK AO2 PK WND 27036/1616 SLP974 T01940050

KBWI Airport Info (Airnav.com)

KBWI Flight Activity (Flightaware)

Listeners: 0 out of 3094 total


Potomac App (BELAY/BUFFR) (Archives)
Baltimore, Maryland, United States

Feed Status: UP
Listen in your browser - HTML5 player(in browser, HTML5)
Click here to listen with your own player(launches your MP3 player)

KBWI 121654Z 23020G33KT 10SM BKN065 19/05 A2946 RMK AO2 PK WND 27036/1616 SLP974 T01940050

KBWI Airport Info (Airnav.com)

KBWI Flight Activity (Flightaware)

Listeners: 0 out of 3094 total

Potomac Approach (BELAY Sector): 125.525
Potomac Approach (BUFFR Sector): 133.850
Potomac Approach (spare): 126.750

Potomac App (DC ADIZ) (Archives)
Baltimore, Maryland, United States

Feed Status: UP
Listen in your browser - HTML5 player(in browser, HTML5)
Click here to listen with your own player(launches your MP3 player)

KBWI 121654Z 23020G33KT 10SM BKN065 19/05 A2946 RMK AO2 PK WND 27036/1616 SLP974 T01940050

KBWI Airport Info (Airnav.com)

KBWI Flight Activity (Flightaware)

Listeners: 0 out of 3094 total

ADIZ East Sector: 132.775

Potomac App (Final) (Archives)
Baltimore, Maryland, United States

Feed Status: UP
Listen in your browser - HTML5 player(in browser, HTML5)
Click here to listen with your own player(launches your MP3 player)

KBWI 121654Z 23020G33KT 10SM BKN065 19/05 A2946 RMK AO2 PK WND 27036/1616 SLP974 T01940050

KBWI Airport Info (Airnav.com)

KBWI Flight Activity (Flightaware)

Listeners: 0 out of 3094 total

Potomac Approach (BWI Final North): 119.000
Potomac Approach (BWI Final South): 119.700

Potomac App (GRACO/PALEO) (Archives)
Baltimore, Maryland, United States

Feed Status: UP
Listen in your browser - HTML5 player(in browser, HTML5)
Click here to listen with your own player(launches your MP3 player)

KBWI 121654Z 23020G33KT 10SM BKN065 19/05 A2946 RMK AO2 PK WND 27036/1616 SLP974 T01940050

KBWI Airport Info (Airnav.com)

KBWI Flight Activity (Flightaware)

Listeners: 0 out of 3094 total

Potomac Approach (GRACO Sector): 124.550
Potomac Approach (PALEO Sector): 133.750

Potomac App (WOOLY) #1 (Archives)
Baltimore, Maryland, United States

Feed Status: UP
Listen in your browser - HTML5 player(in browser, HTML5)
Click here to listen with your own player(launches your MP3 player)

KBWI 121654Z 23020G33KT 10SM BKN065 19/05 A2946 RMK AO2 PK WND 27036/1616 SLP974 T01940050

KBWI Airport Info (Airnav.com)

KBWI Flight Activity (Flightaware)

Listeners: 0 out of 3094 total

Potomac Approach/Departure (WOOLY Sector): 128.700

Potomac App (WOOLY) #2 (Archives)
Baltimore, Maryland, United States

Feed Status: UP
Listen in your browser - HTML5 player(in browser, HTML5)
Click here to listen with your own player(launches your MP3 player)

KBWI 121654Z 23020G33KT 10SM BKN065 19/05 A2946 RMK AO2 PK WND 27036/1616 SLP974 T01940050

KBWI Airport Info (Airnav.com)

KBWI Flight Activity (Flightaware)

Listeners: 0 out of 3094 total

Potomac Approach/Departure (WOOLY Sector): 128.700

Potomac App/Dep (BUFFR) (Archives)
Baltimore, Maryland, United States

Feed Status: UP
Listen in your browser - HTML5 player(in browser, HTML5)
Click here to listen with your own player(launches your MP3 player)

KMRB 121653Z 25022G31KT 10SM BKN055 OVC070 15/05 A2947 RMK AO2 PK WND 28036/1557 SLP978 T01500050

KMRB Airport Info (Airnav.com)

KMRB Flight Activity (Flightaware)

Listeners: 0 out of 3094 total

Potomac Approach (BUFFR Sector): 133.850

KATL Approach (South Sat) (Archives)
Atlanta, Georgia, United States

Feed Status: UP
Listen in your browser - HTML5 player(in browser, HTML5)
Click here to listen with your own player(launches your MP3 player)

KCCO 121655Z AUTO 29015G21KT 260V320 10SM CLR 19/M04 A3006 RMK AO2 T01851041

KCCO Airport Info (Airnav.com)

KCCO Flight Activity (Flightaware)

Listeners: 0 out of 3094 total

Atlanta Approach (SW Satellite): 119.800

KPHX Approach (East Tempe Sector) (Archives)
Chandler, Arizona, United States

Feed Status: UP
Listen in your browser - HTML5 player(in browser, HTML5)
Click here to listen with your own player(launches your MP3 player)

KPHX 121651Z 14007KT 10SM CLR 27/M01 A2986 RMK AO2 SLP091 T02721006

KPHX Airport Info (Airnav.com)

KPHX Flight Activity (Flightaware)

Listeners: 0 out of 3094 total

Phoenix Approach (Pima Sector): 123.700

KPHX Approach (Pima/Willy Sectors) (Archives)
Chandler, Arizona, United States

Feed Status: UP
Listen in your browser - HTML5 player(in browser, HTML5)
Click here to listen with your own player(launches your MP3 player)

KPHX 121651Z 14007KT 10SM CLR 27/M01 A2986 RMK AO2 SLP091 T02721006

KPHX Airport Info (Airnav.com)

KPHX Flight Activity (Flightaware)

Listeners: 1 out of 3094 total

Phoenix Approach (Pima Sector): 123.700
Phoenix Approach (Willy Sector): 124.900

KCLE Approach (Archives)
Cleveland, Ohio, United States

Feed Status: UP
Listen in your browser - HTML5 player(in browser, HTML5)
Click here to listen with your own player(launches your MP3 player)

KCLE 121651Z 28018G26KT 2 1/2SM RA BR SCT014 BKN019 OVC040 09/07 A2942 RMK AO2 PK WND 25032/1554 VIS 1 3/4V5 SLP977 P0007 T00940072

KCLE Airport Info (Airnav.com)

KCLE Flight Activity (Flightaware)

Listeners: 2 out of 3094 total

Cleveland Approach: 124.000

KCLE ATIS (Archives)
Cleveland, Ohio, United States

Feed Status: UP
Listen in your browser - HTML5 player(in browser, HTML5)
Click here to listen with your own player(launches your MP3 player)

KCLE 121651Z 28018G26KT 2 1/2SM RA BR SCT014 BKN019 OVC040 09/07 A2942 RMK AO2 PK WND 25032/1554 VIS 1 3/4V5 SLP977 P0007 T00940072

KCLE Airport Info (Airnav.com)

KCLE Flight Activity (Flightaware)

Listeners: 0 out of 3094 total

Cleveland ATIS: 127.850

KCLE Clearance Delivery (Archives)
Cleveland, Ohio, United States

Feed Status: UP
Listen in your browser - HTML5 player(in browser, HTML5)
Click here to listen with your own player(launches your MP3 player)

KCLE 121651Z 28018G26KT 2 1/2SM RA BR SCT014 BKN019 OVC040 09/07 A2942 RMK AO2 PK WND 25032/1554 VIS 1 3/4V5 SLP977 P0007 T00940072

KCLE Airport Info (Airnav.com)

KCLE Flight Activity (Flightaware)

Listeners: 0 out of 3094 total

Cleveland Clearance Delivery: 125.050

KCLE Departure (Archives)
Cleveland, Ohio, United States

Feed Status: UP
Listen in your browser - HTML5 player(in browser, HTML5)
Click here to listen with your own player(launches your MP3 player)

KCLE 121651Z 28018G26KT 2 1/2SM RA BR SCT014 BKN019 OVC040 09/07 A2942 RMK AO2 PK WND 25032/1554 VIS 1 3/4V5 SLP977 P0007 T00940072

KCLE Airport Info (Airnav.com)

KCLE Flight Activity (Flightaware)

Listeners: 0 out of 3094 total

Cleveland Departure: 128.250

KCLE Ground (Archives)
Cleveland, Ohio, United States

Feed Status: UP
Listen in your browser - HTML5 player(in browser, HTML5)
Click here to listen with your own player(launches your MP3 player)

KCLE 121651Z 28018G26KT 2 1/2SM RA BR SCT014 BKN019 OVC040 09/07 A2942 RMK AO2 PK WND 25032/1554 VIS 1 3/4V5 SLP977 P0007 T00940072

KCLE Airport Info (Airnav.com)

KCLE Flight Activity (Flightaware)

Listeners: 0 out of 3094 total

Cleveland Ground: 121.700

KCLE Tower (Archives)
Cleveland, Ohio, United States

Feed Status: UP
Listen in your browser - HTML5 player(in browser, HTML5)
Click here to listen with your own player(launches your MP3 player)

KCLE 121651Z 28018G26KT 2 1/2SM RA BR SCT014 BKN019 OVC040 09/07 A2942 RMK AO2 PK WND 25032/1554 VIS 1 3/4V5 SLP977 P0007 T00940072

KCLE Airport Info (Airnav.com)

KCLE Flight Activity (Flightaware)

Listeners: 2 out of 3094 total

Cleveland Tower: 124.500

KCLE UNICOM (Archives)
Cleveland, Ohio, United States

Feed Status: UP
Listen in your browser - HTML5 player(in browser, HTML5)
Click here to listen with your own player(launches your MP3 player)

KCLE 121651Z 28018G26KT 2 1/2SM RA BR SCT014 BKN019 OVC040 09/07 A2942 RMK AO2 PK WND 25032/1554 VIS 1 3/4V5 SLP977 P0007 T00940072

KCLE Airport Info (Airnav.com)

KCLE Flight Activity (Flightaware)

Listeners: 0 out of 3094 total

Cleveland UNICOM: 122.950

KCLT Approach (Arrival) (Archives)
Charlotte, North Carolina, United States

Feed Status: UP
Listen in your browser - HTML5 player(in browser, HTML5)
Click here to listen with your own player(launches your MP3 player)

KCLT 121652Z 26011G22KT 10SM FEW070 21/00 A2980 RMK AO2 PK WND 25031/1625 SLP099 T02060000

KCLT Airport Info (Airnav.com)

KCLT Flight Activity (Flightaware)

Listeners: 2 out of 3094 total

Charlotte Approach (Arrival): 132.700
Charlotte Approach (Arrival/NW): 125.350

KCLT Approach (East) (Archives)
Charlotte, North Carolina, United States

Feed Status: UP
Listen in your browser - HTML5 player(in browser, HTML5)
Click here to listen with your own player(launches your MP3 player)

KCLT 121652Z 26011G22KT 10SM FEW070 21/00 A2980 RMK AO2 PK WND 25031/1625 SLP099 T02060000

KCLT Airport Info (Airnav.com)

KCLT Flight Activity (Flightaware)

Listeners: 0 out of 3094 total

Charlotte Approach (East): 126.150

KCLT Approach (Final) (Archives)
Charlotte, North Carolina, United States

Feed Status: UP
Listen in your browser - HTML5 player(in browser, HTML5)
Click here to listen with your own player(launches your MP3 player)

KCLT 121652Z 26011G22KT 10SM FEW070 21/00 A2980 RMK AO2 PK WND 25031/1625 SLP099 T02060000

KCLT Airport Info (Airnav.com)

KCLT Flight Activity (Flightaware)

Listeners: 0 out of 3094 total

Charlotte Approach (Final): 127.700

KCLT Tower (Rwy 18R/36L) (Archives)
Charlotte, North Carolina, United States

Feed Status: UP
Listen in your browser - HTML5 player(in browser, HTML5)
Click here to listen with your own player(launches your MP3 player)

KCLT 121652Z 26011G22KT 10SM FEW070 21/00 A2980 RMK AO2 PK WND 25031/1625 SLP099 T02060000

KCLT Airport Info (Airnav.com)

KCLT Flight Activity (Flightaware)

Listeners: 2 out of 3094 total

Charlotte Tower (Rwy 18R/36L): 133.350

KCVG Approach (Class B) (Archives)
Covington, Kentucky, United States

Feed Status: UP
Listen in your browser - HTML5 player(in browser, HTML5)
Click here to listen with your own player(launches your MP3 player)

KCVG 121652Z 25014G23KT 5SM BR OVC009 08/07 A2975 RMK AO2 RAE1555B29E51 SLP074 P0000 T00780072

KCVG Airport Info (Airnav.com)

KCVG Flight Activity (Flightaware)

Listeners: 0 out of 3094 total

Cincinnati Approach (Class B): 121.000

KCVG Approach (Final) (Archives)
Covington, Kentucky, United States

Feed Status: UP
Listen in your browser - HTML5 player(in browser, HTML5)
Click here to listen with your own player(launches your MP3 player)

KCVG 121652Z 25014G23KT 5SM BR OVC009 08/07 A2975 RMK AO2 RAE1555B29E51 SLP074 P0000 T00780072

KCVG Airport Info (Airnav.com)

KCVG Flight Activity (Flightaware)

Listeners: 2 out of 3094 total

Cincinnati Approach (Final): 124.700

KCVG Approach (North) (Archives)
Covington, Kentucky, United States

Feed Status: UP
Listen in your browser - HTML5 player(in browser, HTML5)
Click here to listen with your own player(launches your MP3 player)

KCVG 121652Z 25014G23KT 5SM BR OVC009 08/07 A2975 RMK AO2 RAE1555B29E51 SLP074 P0000 T00780072

KCVG Airport Info (Airnav.com)

KCVG Flight Activity (Flightaware)

Listeners: 0 out of 3094 total

Cincinnati Approach (North): 123.875

KCVG Approach (South) (Archives)
Covington, Kentucky, United States

Feed Status: UP
Listen in your browser - HTML5 player(in browser, HTML5)
Click here to listen with your own player(launches your MP3 player)

KCVG 121652Z 25014G23KT 5SM BR OVC009 08/07 A2975 RMK AO2 RAE1555B29E51 SLP074 P0000 T00780072

KCVG Airport Info (Airnav.com)

KCVG Flight Activity (Flightaware)

Listeners: 1 out of 3094 total

Cincinnati Approach (South): 119.700

KCVG ATIS (Arrival) (Archives)
Covington, Kentucky, United States

Feed Status: UP
Listen in your browser - HTML5 player(in browser, HTML5)
Click here to listen with your own player(launches your MP3 player)

KCVG 121652Z 25014G23KT 5SM BR OVC009 08/07 A2975 RMK AO2 RAE1555B29E51 SLP074 P0000 T00780072

KCVG Airport Info (Airnav.com)

KCVG Flight Activity (Flightaware)

Listeners: 0 out of 3094 total

Cincinnati ATIS (Arrival): 134.375

KCVG ATIS (Departure) (Archives)
Covington, Kentucky, United States

Feed Status: UP
Listen in your browser - HTML5 player(in browser, HTML5)
Click here to listen with your own player(launches your MP3 player)

KCVG 121652Z 25014G23KT 5SM BR OVC009 08/07 A2975 RMK AO2 RAE1555B29E51 SLP074 P0000 T00780072

KCVG Airport Info (Airnav.com)

KCVG Flight Activity (Flightaware)

Listeners: 0 out of 3094 total

Cincinnati ATIS (Departure): 135.300

KCVG Clearance Delivery (Archives)
Covington, Kentucky, United States

Feed Status: UP
Listen in your browser - HTML5 player(in browser, HTML5)
Click here to listen with your own player(launches your MP3 player)

KCVG 121652Z 25014G23KT 5SM BR OVC009 08/07 A2975 RMK AO2 RAE1555B29E51 SLP074 P0000 T00780072

KCVG Airport Info (Airnav.com)

KCVG Flight Activity (Flightaware)

Listeners: 0 out of 3094 total

Cincinnati Clearance Delivery: 127.175

KCVG Departure (East) (Archives)
Covington, Kentucky, United States

Feed Status: UP
Listen in your browser - HTML5 player(in browser, HTML5)
Click here to listen with your own player(launches your MP3 player)

KCVG 121652Z 25014G23KT 5SM BR OVC009 08/07 A2975 RMK AO2 RAE1555B29E51 SLP074 P0000 T00780072

KCVG Airport Info (Airnav.com)

KCVG Flight Activity (Flightaware)

Listeners: 0 out of 3094 total

Cincinnati Departure (East): 126.650

KCVG Departure (East/West) (Archives)
Covington, Kentucky, United States

Feed Status: UP
Listen in your browser - HTML5 player(in browser, HTML5)
Click here to listen with your own player(launches your MP3 player)

KCVG 121652Z 25014G23KT 5SM BR OVC009 08/07 A2975 RMK AO2 RAE1555B29E51 SLP074 P0000 T00780072

KCVG Airport Info (Airnav.com)

KCVG Flight Activity (Flightaware)

Listeners: 0 out of 3094 total

Cincinnati Departure (East): 126.650
Cincinnati Departure (West): 128.700

KCVG Departure (West) (Archives)
Covington, Kentucky, United States

Feed Status: UP
Listen in your browser - HTML5 player(in browser, HTML5)
Click here to listen with your own player(launches your MP3 player)

KCVG 121652Z 25014G23KT 5SM BR OVC009 08/07 A2975 RMK AO2 RAE1555B29E51 SLP074 P0000 T00780072

KCVG Airport Info (Airnav.com)

KCVG Flight Activity (Flightaware)

Listeners: 0 out of 3094 total

Cincinnati Departure (West): 128.700

KCVG Ground (Archives)
Covington, Kentucky, United States

Feed Status: UP
Listen in your browser - HTML5 player(in browser, HTML5)
Click here to listen with your own player(launches your MP3 player)

KCVG 121652Z 25014G23KT 5SM BR OVC009 08/07 A2975 RMK AO2 RAE1555B29E51 SLP074 P0000 T00780072

KCVG Airport Info (Airnav.com)

KCVG Flight Activity (Flightaware)

Listeners: 0 out of 3094 total

Cincinnati Ground: 121.700

KCVG Ramp/Company (Archives)
Covington, Kentucky, United States

Feed Status: UP
Listen in your browser - HTML5 player(in browser, HTML5)
Click here to listen with your own player(launches your MP3 player)

KCVG 121652Z 25014G23KT 5SM BR OVC009 08/07 A2975 RMK AO2 RAE1555B29E51 SLP074 P0000 T00780072

KCVG Airport Info (Airnav.com)

KCVG Flight Activity (Flightaware)

Listeners: 0 out of 3094 total

AmericanConnection Ops: 131.600
Atlanta Radio (Delta): 129.600
Atlanta Radio (Delta): 129.700
Delta Concourse A: 122.975
Delta Concourse A: 122.725
Delta Concourse A: 123.075
Delta Connection Maintenance: 128.825
Delta Maintenance: 131.725
Delta Tower C Ops: 136.675
DHL Ops: 130.875
DHL Ops: 131.225
DHL Ramp: 129.475
Tower C Ramp: 130.975

KCVG Tower (All) (Archives)
Covington, Kentucky, United States

Feed Status: UP
Listen in your browser - HTML5 player(in browser, HTML5)
Click here to listen with your own player(launches your MP3 player)

KCVG 121652Z 25014G23KT 5SM BR OVC009 08/07 A2975 RMK AO2 RAE1555B29E51 SLP074 P0000 T00780072

KCVG Airport Info (Airnav.com)

KCVG Flight Activity (Flightaware)

Listeners: 1 out of 3094 total

Cincinnati Tower (Center): 118.300
Cincinnati Tower (East): 118.975
Cincinnati Tower (West): 133.325

KCVG Tower (Center) (Archives)
Covington, Kentucky, United States

Feed Status: UP
Listen in your browser - HTML5 player(in browser, HTML5)
Click here to listen with your own player(launches your MP3 player)

KCVG 121652Z 25014G23KT 5SM BR OVC009 08/07 A2975 RMK AO2 RAE1555B29E51 SLP074 P0000 T00780072

KCVG Airport Info (Airnav.com)

KCVG Flight Activity (Flightaware)

Listeners: 1 out of 3094 total

Cincinnati Tower (Center): 118.300

KCVG Tower (East) (Archives)
Covington, Kentucky, United States

Feed Status: UP
Listen in your browser - HTML5 player(in browser, HTML5)
Click here to listen with your own player(launches your MP3 player)

KCVG 121652Z 25014G23KT 5SM BR OVC009 08/07 A2975 RMK AO2 RAE1555B29E51 SLP074 P0000 T00780072

KCVG Airport Info (Airnav.com)

KCVG Flight Activity (Flightaware)

Listeners: 1 out of 3094 total

Cincinnati Tower (East): 118.975

KCVG Tower (West) (Archives)
Covington, Kentucky, United States

Feed Status: UP
Listen in your browser - HTML5 player(in browser, HTML5)
Click here to listen with your own player(launches your MP3 player)

KCVG 121652Z 25014G23KT 5SM BR OVC009 08/07 A2975 RMK AO2 RAE1555B29E51 SLP074 P0000 T00780072

KCVG Airport Info (Airnav.com)

KCVG Flight Activity (Flightaware)

Listeners: 0 out of 3094 total

Cincinnati Tower (West): 133.325

KDAA/KADW Tower (Archives)
Fort Belvoir, Virginia, United States

Feed Status: UP
Listen in your browser - HTML5 player(in browser, HTML5)
Click here to listen with your own player(launches your MP3 player)

KDAA 121655Z AUTO 26013G27KT 10SM SCT085 20/03 A2948 RMK AO2 PK WND 27027/47 SLP985 T01980026 $

KDAA Airport Info (Airnav.com)

KDAA Flight Activity (Flightaware)

Listeners: 4 out of 3094 total

Andrews Tower: 118.400
Andrews Tower: 349.000
Davison Tower: 241.000
Davison Tower: 126.300
Davison Tower: 229.400

KDAL App/Dep (East Side North Low) (Archives)
Dallas, Texas, United States

Feed Status: UP
Listen in your browser - HTML5 player(in browser, HTML5)
Click here to listen with your own player(launches your MP3 player)

KDFW 121653Z 18009KT 10SM SCT250 23/06 A3024 RMK AO2 SLP235 T02330061

KDFW Airport Info (Airnav.com)

KDFW Flight Activity (Flightaware)

Listeners: 0 out of 3094 total

Regional Approach/Departure (East Side/North Low): 124.300

KDAL App/Dep (South) (Archives)
Dallas, Texas, United States

Feed Status: UP
Listen in your browser - HTML5 player(in browser, HTML5)
Click here to listen with your own player(launches your MP3 player)

KDAL 121653Z 19006KT 10SM FEW250 24/05 A3026 RMK AO2 SLP241 T02390050 $

KDAL Airport Info (Airnav.com)

KDAL Flight Activity (Flightaware)

Listeners: 0 out of 3094 total

Regional Approach (South): 125.200

KDAL ATIS (Archives)
Dallas, Texas, United States

Feed Status: UP
Listen in your browser - HTML5 player(in browser, HTML5)
Click here to listen with your own player(launches your MP3 player)

KDAL 121653Z 19006KT 10SM FEW250 24/05 A3026 RMK AO2 SLP241 T02390050 $

KDAL Airport Info (Airnav.com)

KDAL Flight Activity (Flightaware)

Listeners: 0 out of 3094 total

Love ATIS: 120.150

KDAL Clearance Delivery (Archives)
Dallas, Texas, United States

Feed Status: UP
Listen in your browser - HTML5 player(in browser, HTML5)
Click here to listen with your own player(launches your MP3 player)

KDAL 121653Z 19006KT 10SM FEW250 24/05 A3026 RMK AO2 SLP241 T02390050 $

KDAL Airport Info (Airnav.com)

KDAL Flight Activity (Flightaware)

Listeners: 0 out of 3094 total

Love Clearance Delivery: 127.900

KDAL Emergency/Guard (Archives)
Dallas, Texas, United States

Feed Status: UP
Listen in your browser - HTML5 player(in browser, HTML5)
Click here to listen with your own player(launches your MP3 player)

KDAL 121653Z 19006KT 10SM FEW250 24/05 A3026 RMK AO2 SLP241 T02390050 $

KDAL Airport Info (Airnav.com)

KDAL Flight Activity (Flightaware)

Listeners: 0 out of 3094 total

Emergency/Guard: 121.500

KDAL Ground (Archives)
Dallas, Texas, United States

Feed Status: UP
Listen in your browser - HTML5 player(in browser, HTML5)
Click here to listen with your own player(launches your MP3 player)

KDAL 121653Z 19006KT 10SM FEW250 24/05 A3026 RMK AO2 SLP241 T02390050 $

KDAL Airport Info (Airnav.com)

KDAL Flight Activity (Flightaware)

Listeners: 1 out of 3094 total

Love Ground: 121.750

KDAL Tower (Archives)
Dallas, Texas, United States

Feed Status: UP
Listen in your browser - HTML5 player(in browser, HTML5)
Click here to listen with your own player(launches your MP3 player)

KDAL 121653Z 19006KT 10SM FEW250 24/05 A3026 RMK AO2 SLP241 T02390050 $

KDAL Airport Info (Airnav.com)

KDAL Flight Activity (Flightaware)

Listeners: 1 out of 3094 total

Love Tower: 123.700

KDCA Ground (Archives)
Washington, District of Columbia, United States

Feed Status: UP
Listen in your browser - HTML5 player(in browser, HTML5)
Click here to listen with your own player(launches your MP3 player)

KDCA 121652Z 25017G31KT 10SM BKN065 19/04 A2949 RMK AO2 PK WND 26031/1650 SLP986 T01940044

KDCA Airport Info (Airnav.com)

KDCA Flight Activity (Flightaware)

Listeners: 0 out of 3094 total

Washington Ground: 121.700

KDCA Potomac App (LURAY) (Archives)
Washington, District of Columbia, United States

Feed Status: UP
Listen in your browser - HTML5 player(in browser, HTML5)
Click here to listen with your own player(launches your MP3 player)

KMRB 121653Z 25022G31KT 10SM BKN055 OVC070 15/05 A2947 RMK AO2 PK WND 28036/1557 SLP978 T01500050

KMRB Airport Info (Airnav.com)

KMRB Flight Activity (Flightaware)

Listeners: 0 out of 3094 total

Potomac Approach LURAY Sector (West): 118.675

KDCA Potomac App/Dep (FLUKY) (Archives)
Washington, District of Columbia, United States

Feed Status: UP
Listen in your browser - HTML5 player(in browser, HTML5)
Click here to listen with your own player(launches your MP3 player)

KDCA 121652Z 25017G31KT 10SM BKN065 19/04 A2949 RMK AO2 PK WND 26031/1650 SLP986 T01940044

KDCA Airport Info (Airnav.com)

KDCA Flight Activity (Flightaware)

Listeners: 0 out of 3094 total

Potomac Approach/Departure: 121.050

KDCA Potomac App/Dep (KRANT) (Archives)
Washington, District of Columbia, United States

Feed Status: UP
Listen in your browser - HTML5 player(in browser, HTML5)
Click here to listen with your own player(launches your MP3 player)

KDCA 121652Z 25017G31KT 10SM BKN065 19/04 A2949 RMK AO2 PK WND 26031/1650 SLP986 T01940044

KDCA Airport Info (Airnav.com)

KDCA Flight Activity (Flightaware)

Listeners: 2 out of 3094 total

Potomac Approach/Departure (KRANT Sector): 125.650

KDCA Potomac Approach (DCA Final) (Archives)
Washington, District of Columbia, United States

Feed Status: UP
Listen in your browser - HTML5 player(in browser, HTML5)
Click here to listen with your own player(launches your MP3 player)

KDCA 121652Z 25017G31KT 10SM BKN065 19/04 A2949 RMK AO2 PK WND 26031/1650 SLP986 T01940044

KDCA Airport Info (Airnav.com)

KDCA Flight Activity (Flightaware)

Listeners: 2 out of 3094 total

Potomac Approach (DCA Final Radar): 124.700

KDCA Potomac Approach (ENSUE Sector) (Archives)
Washington, District of Columbia, United States

Feed Status: UP
Listen in your browser - HTML5 player(in browser, HTML5)
Click here to listen with your own player(launches your MP3 player)

KDCA 121652Z 25017G31KT 10SM BKN065 19/04 A2949 RMK AO2 PK WND 26031/1650 SLP986 T01940044

KDCA Airport Info (Airnav.com)

KDCA Flight Activity (Flightaware)

Listeners: 0 out of 3094 total

Potomac Approach (ENSUE Sector): 124.200

KDCA Potomac Approach (OJAAY Sector) (Archives)
Washington, District of Columbia, United States

Feed Status: UP
Listen in your browser - HTML5 player(in browser, HTML5)
Click here to listen with your own player(launches your MP3 player)

KDCA 121652Z 25017G31KT 10SM BKN065 19/04 A2949 RMK AO2 PK WND 26031/1650 SLP986 T01940044

KDCA Airport Info (Airnav.com)

KDCA Flight Activity (Flightaware)

Listeners: 0 out of 3094 total

Potomac Approach (OJAAY Sector): 119.850

KDCA Potomac Departure (Archives)
Washington, District of Columbia, United States

Feed Status: UP
Listen in your browser - HTML5 player(in browser, HTML5)
Click here to listen with your own player(launches your MP3 player)

KDCA 121652Z 25017G31KT 10SM BKN065 19/04 A2949 RMK AO2 PK WND 26031/1650 SLP986 T01940044

KDCA Airport Info (Airnav.com)

KDCA Flight Activity (Flightaware)

Listeners: 1 out of 3094 total

Potomac Departure (TYSON Sector): 118.950

KDCA Tower #1 (Archives)
Washington, District of Columbia, United States

Feed Status: UP
Listen in your browser - HTML5 player(in browser, HTML5)
Click here to listen with your own player(launches your MP3 player)

KDCA 121652Z 25017G31KT 10SM BKN065 19/04 A2949 RMK AO2 PK WND 26031/1650 SLP986 T01940044

KDCA Airport Info (Airnav.com)

KDCA Flight Activity (Flightaware)

Listeners: 9 out of 3094 total

Washington Tower: 119.100

KDCA Tower #2 (Archives)
Washington, District of Columbia, United States

Feed Status: UP
Listen in your browser - HTML5 player(in browser, HTML5)
Click here to listen with your own player(launches your MP3 player)

KDCA 121652Z 25017G31KT 10SM BKN065 19/04 A2949 RMK AO2 PK WND 26031/1650 SLP986 T01940044

KDCA Airport Info (Airnav.com)

KDCA Flight Activity (Flightaware)

Listeners: 0 out of 3094 total

Washington Tower: 119.100

KDCA Tower (Helicopters) (Archives)
Washington, District of Columbia, United States

Feed Status: UP
Listen in your browser - HTML5 player(in browser, HTML5)
Click here to listen with your own player(launches your MP3 player)

KDCA 121652Z 25017G31KT 10SM BKN065 19/04 A2949 RMK AO2 PK WND 26031/1650 SLP986 T01940044

KDCA Airport Info (Airnav.com)

KDCA Flight Activity (Flightaware)

Listeners: 0 out of 3094 total

Washington Tower (Helicopters): 134.350

KDCA Tower/Approach (Archives)
Washington, District of Columbia, United States

Feed Status: UP
Listen in your browser - HTML5 player(in browser, HTML5)
Click here to listen with your own player(launches your MP3 player)

KDCA 121652Z 25017G31KT 10SM BKN065 19/04 A2949 RMK AO2 PK WND 26031/1650 SLP986 T01940044

KDCA Airport Info (Airnav.com)

KDCA Flight Activity (Flightaware)

Listeners: 1 out of 3094 total

Emergency/Guard: 121.500
KDCA Final Approach (West): 124.700
Washington Tower: 119.100
Washington Tower (Helicopters): 134.350

KDCA Tower/Heli (Archives)
Washington, District of Columbia, United States

Feed Status: UP
Listen in your browser - HTML5 player(in browser, HTML5)
Click here to listen with your own player(launches your MP3 player)

KDCA 121652Z 25017G31KT 10SM BKN065 19/04 A2949 RMK AO2 PK WND 26031/1650 SLP986 T01940044

KDCA Airport Info (Airnav.com)

KDCA Flight Activity (Flightaware)

Listeners: 0 out of 3094 total

Washington Tower: 119.100
Washington Tower (Helicopters): 134.350

Potomac Approach SFRA (South) (Archives)
Washington, District of Columbia, United States

Feed Status: UP
Listen in your browser - HTML5 player(in browser, HTML5)
Click here to listen with your own player(launches your MP3 player)

KDCA 121652Z 25017G31KT 10SM BKN065 19/04 A2949 RMK AO2 PK WND 26031/1650 SLP986 T01940044

KDCA Airport Info (Airnav.com)

KDCA Flight Activity (Flightaware)

Listeners: 0 out of 3094 total

Potomac Approach Special Flight Rules Area (SFRA) South: 125.125

KDEN Approach (Archives)
Denver, Colorado, United States

Feed Status: UP
Listen in your browser - HTML5 player(in browser, HTML5)
Click here to listen with your own player(launches your MP3 player)

KDEN 121653Z 19007G14KT 10SM CLR 20/M09 A3010 RMK AO2 SLP149 T02001089

KDEN Airport Info (Airnav.com)

KDEN Flight Activity (Flightaware)

Listeners: 9 out of 3094 total

Denver Approach (Final FR-1): 123.850
Denver Approach (Final FR-2): 120.800
Denver Approach (Final FR-3): 125.750
Denver Approach (NE): 124.950
Denver Approach (NW): 119.300
Denver Approach (SE): 126.550
Denver Approach (SW): 120.350
Denver Approach (W): 133.625
Denver Class B (North): 134.850

KDEN Approach (North Arrival/Initial) (Archives)
Denver, Colorado, United States

Feed Status: UP
Listen in your browser - HTML5 player(in browser, HTML5)
Click here to listen with your own player(launches your MP3 player)

KDEN 121653Z 19007G14KT 10SM CLR 20/M09 A3010 RMK AO2 SLP149 T02001089

KDEN Airport Info (Airnav.com)

KDEN Flight Activity (Flightaware)

Listeners: 0 out of 3094 total

Denver Approach (North Arrival): 119.300

KDEN Approach (South Arrival/Initial) (Archives)
Denver, Colorado, United States

Feed Status: UP
Listen in your browser - HTML5 player(in browser, HTML5)
Click here to listen with your own player(launches your MP3 player)

KDEN 121653Z 19007G14KT 10SM CLR 20/M09 A3010 RMK AO2 SLP149 T02001089

KDEN Airport Info (Airnav.com)

KDEN Flight Activity (Flightaware)

Listeners: 0 out of 3094 total

Denver Approach (South Arrival): 120.350

KDEN Approach (West/Low) (Archives)
Denver, Colorado, United States

Feed Status: UP
Listen in your browser - HTML5 player(in browser, HTML5)
Click here to listen with your own player(launches your MP3 player)

KDEN 121653Z 19007G14KT 10SM CLR 20/M09 A3010 RMK AO2 SLP149 T02001089

KDEN Airport Info (Airnav.com)

KDEN Flight Activity (Flightaware)

Listeners: 0 out of 3094 total

Denver Approach (West/Low): 133.625

KDEN ATIS (Arrival) (Archives)
Denver, Colorado, United States

Feed Status: UP
Listen in your browser - HTML5 player(in browser, HTML5)
Click here to listen with your own player(launches your MP3 player)

KDEN 121653Z 19007G14KT 10SM CLR 20/M09 A3010 RMK AO2 SLP149 T02001089

KDEN Airport Info (Airnav.com)

KDEN Flight Activity (Flightaware)

Listeners: 0 out of 3094 total

Denver ATIS (Arrival): 125.600

KDEN ATIS (Departure) (Archives)
Denver, Colorado, United States

Feed Status: UP
Listen in your browser - HTML5 player(in browser, HTML5)
Click here to listen with your own player(launches your MP3 player)

KDEN 121653Z 19007G14KT 10SM CLR 20/M09 A3010 RMK AO2 SLP149 T02001089

KDEN Airport Info (Airnav.com)

KDEN Flight Activity (Flightaware)

Listeners: 0 out of 3094 total

Denver ATIS (Departure): 134.025

KDEN Clearance Delivery (Archives)
Denver, Colorado, United States

Feed Status: UP
Listen in your browser - HTML5 player(in browser, HTML5)
Click here to listen with your own player(launches your MP3 player)

KDEN 121653Z 19007G14KT 10SM CLR 20/M09 A3010 RMK AO2 SLP149 T02001089

KDEN Airport Info (Airnav.com)

KDEN Flight Activity (Flightaware)

Listeners: 0 out of 3094 total

Denver Clearance Delivery: 118.750

KDEN Clearance/Ground (Archives)
Denver, Colorado, United States

Feed Status: UP
Listen in your browser - HTML5 player(in browser, HTML5)
Click here to listen with your own player(launches your MP3 player)

KDEN 121653Z 19007G14KT 10SM CLR 20/M09 A3010 RMK AO2 SLP149 T02001089

KDEN Airport Info (Airnav.com)

KDEN Flight Activity (Flightaware)

Listeners: 1 out of 3094 total

Denver Clearance Delivery: 118.750
Denver Ground: 121.850
Denver Ground: 127.500
Denver Ground (alternate): 128.750
Denver Ground (West): 121.350

KDEN Departure (Archives)
Denver, Colorado, United States

Feed Status: UP
Listen in your browser - HTML5 player(in browser, HTML5)
Click here to listen with your own player(launches your MP3 player)

KDEN 121653Z 19007G14KT 10SM CLR 20/M09 A3010 RMK AO2 SLP149 T02001089

KDEN Airport Info (Airnav.com)

KDEN Flight Activity (Flightaware)

Listeners: 2 out of 3094 total

Denver Class B (North): 134.850
Denver Departure (East): 128.250
Denver Departure (North): 127.050
Denver Departure (South): 128.450
Denver Departure (West): 126.100

KDEN Tower (Archives)
Denver, Colorado, United States

Feed Status: UP
Listen in your browser - HTML5 player(in browser, HTML5)
Click here to listen with your own player(launches your MP3 player)

KDEN 121653Z 19007G14KT 10SM CLR 20/M09 A3010 RMK AO2 SLP149 T02001089

KDEN Airport Info (Airnav.com)

KDEN Flight Activity (Flightaware)

Listeners: 13 out of 3094 total

Denver Tower (Rwy 16/34): 135.300
Denver Tower (Rwy 17R/35L): 133.300
Denver Tower (Rwy 7/25): 132.350
Denver Tower (Rwy 8/26, 17L/35R): 124.300

KDFW ATIS (Arrival) (Archives)
Dallas, Texas, United States

Feed Status: UP
Listen in your browser - HTML5 player(in browser, HTML5)
Click here to listen with your own player(launches your MP3 player)

KDFW 121653Z 18009KT 10SM SCT250 23/06 A3024 RMK AO2 SLP235 T02330061

KDFW Airport Info (Airnav.com)

KDFW Flight Activity (Flightaware)

Listeners: 0 out of 3094 total

DFW Arrival ATIS: 123.775

KDFW Clearance Delivery (Archives)
Dallas, Texas, United States

Feed Status: UP
Listen in your browser - HTML5 player(in browser, HTML5)
Click here to listen with your own player(launches your MP3 player)

KDFW 121653Z 18009KT 10SM SCT250 23/06 A3024 RMK AO2 SLP235 T02330061

KDFW Airport Info (Airnav.com)

KDFW Flight Activity (Flightaware)

Listeners: 0 out of 3094 total

DFW Clearance Delivery: 128.250

KDFW Ground (East/121.65) (Archives)
Dallas, Texas, United States

Feed Status: UP
Listen in your browser - HTML5 player(in browser, HTML5)
Click here to listen with your own player(launches your MP3 player)

KDFW 121653Z 18009KT 10SM SCT250 23/06 A3024 RMK AO2 SLP235 T02330061

KDFW Airport Info (Airnav.com)

KDFW Flight Activity (Flightaware)

Listeners: 2 out of 3094 total

DFW Ground (East): 121.650

KDFW Ground (East/121.8) (Archives)
Dallas, Texas, United States

Feed Status: UP
Listen in your browser - HTML5 player(in browser, HTML5)
Click here to listen with your own player(launches your MP3 player)

KDFW 121653Z 18009KT 10SM SCT250 23/06 A3024 RMK AO2 SLP235 T02330061

KDFW Airport Info (Airnav.com)

KDFW Flight Activity (Flightaware)

Listeners: 0 out of 3094 total

DFW Ground (East): 121.800

KDFW Ground (West) (Archives)
Dallas, Texas, United States

Feed Status: UP
Listen in your browser - HTML5 player(in browser, HTML5)
Click here to listen with your own player(launches your MP3 player)

KDFW 121653Z 18009KT 10SM SCT250 23/06 A3024 RMK AO2 SLP235 T02330061

KDFW Airport Info (Airnav.com)

KDFW Flight Activity (Flightaware)

Listeners: 1 out of 3094 total

DFW Ground (West): 121.850

KDFW Reg App 17/35C Final (Archives)
Dallas, Texas, United States

Feed Status: UP
Listen in your browser - HTML5 player(in browser, HTML5)
Click here to listen with your own player(launches your MP3 player)

KDFW 121653Z 18009KT 10SM SCT250 23/06 A3024 RMK AO2 SLP235 T02330061

KDFW Airport Info (Airnav.com)

KDFW Flight Activity (Flightaware)

Listeners: 1 out of 3094 total

Regional Approach (Rwy 17C Final): 127.075

KDFW Reg App 17L/35R Final (Archives)
Dallas, Texas, United States

Feed Status: UP
Listen in your browser - HTML5 player(in browser, HTML5)
Click here to listen with your own player(launches your MP3 player)

KDFW 121653Z 18009KT 10SM SCT250 23/06 A3024 RMK AO2 SLP235 T02330061

KDFW Airport Info (Airnav.com)

KDFW Flight Activity (Flightaware)

Listeners: 1 out of 3094 total

Regional Approach (Rwy 17L Final): 119.400

KDFW Reg App 18R/36L Final (Archives)
Dallas, Texas, United States

Feed Status: UP
Listen in your browser - HTML5 player(in browser, HTML5)
Click here to listen with your own player(launches your MP3 player)

KDFW 121653Z 18009KT 10SM SCT250 23/06 A3024 RMK AO2 SLP235 T02330061

KDFW Airport Info (Airnav.com)

KDFW Flight Activity (Flightaware)

Listeners: 1 out of 3094 total

Regional Approach (Rwy 18R Final): 118.425

KDFW Reg App Feeder (East) (Archives)
Dallas, Texas, United States

Feed Status: UP
Listen in your browser - HTML5 player(in browser, HTML5)
Click here to listen with your own player(launches your MP3 player)

KDFW 121653Z 18009KT 10SM SCT250 23/06 A3024 RMK AO2 SLP235 T02330061

KDFW Airport Info (Airnav.com)

KDFW Flight Activity (Flightaware)

Listeners: 0 out of 3094 total

Regional Approach (Feeder East): 125.025

KDFW Reg App Feeder (West) (Archives)
Dallas, Texas, United States

Feed Status: UP
Listen in your browser - HTML5 player(in browser, HTML5)
Click here to listen with your own player(launches your MP3 player)

KDFW 121653Z 18009KT 10SM SCT250 23/06 A3024 RMK AO2 SLP235 T02330061

KDFW Airport Info (Airnav.com)

KDFW Flight Activity (Flightaware)

Listeners: 0 out of 3094 total

Regional Approach (DFW Feeder West): 119.875

KDFW Reg Dep (East) (Archives)
Dallas, Texas, United States

Feed Status: UP
Listen in your browser - HTML5 player(in browser, HTML5)
Click here to listen with your own player(launches your MP3 player)

KDFW 121653Z 18009KT 10SM SCT250 23/06 A3024 RMK AO2 SLP235 T02330061

KDFW Airport Info (Airnav.com)

KDFW Flight Activity (Flightaware)

Listeners: 2 out of 3094 total

Regional Departure (East): 118.550

KDFW Reg Dep (North/South) (Archives)
Dallas, Texas, United States

Feed Status: UP
Listen in your browser - HTML5 player(in browser, HTML5)
Click here to listen with your own player(launches your MP3 player)

KDFW 121653Z 18009KT 10SM SCT250 23/06 A3024 RMK AO2 SLP235 T02330061

KDFW Airport Info (Airnav.com)

KDFW Flight Activity (Flightaware)

Listeners: 1 out of 3094 total

Regional Departure (North/South): 125.125

KDFW Reg Dep (West) (Archives)
Dallas, Texas, United States

Feed Status: UP
Listen in your browser - HTML5 player(in browser, HTML5)
Click here to listen with your own player(launches your MP3 player)

KDFW 121653Z 18009KT 10SM SCT250 23/06 A3024 RMK AO2 SLP235 T02330061

KDFW Airport Info (Airnav.com)

KDFW Flight Activity (Flightaware)

Listeners: 2 out of 3094 total

Regional Departure (West): 126.475

KDFW Tower (East) (Archives)
Dallas, Texas, United States

Feed Status: UP
Listen in your browser - HTML5 player(in browser, HTML5)
Click here to listen with your own player(launches your MP3 player)

KDFW 121653Z 18009KT 10SM SCT250 23/06 A3024 RMK AO2 SLP235 T02330061

KDFW Airport Info (Airnav.com)

KDFW Flight Activity (Flightaware)

Listeners: 2 out of 3094 total

DFW Tower (East): 126.550
DFW Tower (East): 127.500

KDFW Tower (East/126.55) (Archives)
Dallas, Texas, United States

Feed Status: UP
Listen in your browser - HTML5 player(in browser, HTML5)
Click here to listen with your own player(launches your MP3 player)

KDFW 121653Z 18009KT 10SM SCT250 23/06 A3024 RMK AO2 SLP235 T02330061

KDFW Airport Info (Airnav.com)

KDFW Flight Activity (Flightaware)

Listeners: 0 out of 3094 total

DFW Tower (East): 126.550

KDFW Tower (East/127.5) (Archives)
Dallas, Texas, United States

Feed Status: UP
Listen in your browser - HTML5 player(in browser, HTML5)
Click here to listen with your own player(launches your MP3 player)

KDFW 121653Z 18009KT 10SM SCT250 23/06 A3024 RMK AO2 SLP235 T02330061

KDFW Airport Info (Airnav.com)

KDFW Flight Activity (Flightaware)

Listeners: 0 out of 3094 total

DFW Tower (East): 127.500

KDFW Tower (Emergency) (Archives)
Dallas, Texas, United States

Feed Status: UP
Listen in your browser - HTML5 player(in browser, HTML5)
Click here to listen with your own player(launches your MP3 player)

KDFW 121653Z 18009KT 10SM SCT250 23/06 A3024 RMK AO2 SLP235 T02330061

KDFW Airport Info (Airnav.com)

KDFW Flight Activity (Flightaware)

Listeners: 1 out of 3094 total

DFW Tower (Emergency/Discrete): 135.700

KDFW Tower (West) (Archives)
Dallas, Texas, United States

Feed Status: UP
Listen in your browser - HTML5 player(in browser, HTML5)
Click here to listen with your own player(launches your MP3 player)

KDFW 121653Z 18009KT 10SM SCT250 23/06 A3024 RMK AO2 SLP235 T02330061

KDFW Airport Info (Airnav.com)

KDFW Flight Activity (Flightaware)

Listeners: 10 out of 3094 total

DFW Tower (West): 124.150

KDFW Tower (West/Rwy 13R/31L) (Archives)
Dallas, Texas, United States

Feed Status: UP
Listen in your browser - HTML5 player(in browser, HTML5)
Click here to listen with your own player(launches your MP3 player)

KDFW 121653Z 18009KT 10SM SCT250 23/06 A3024 RMK AO2 SLP235 T02330061

KDFW Airport Info (Airnav.com)

KDFW Flight Activity (Flightaware)

Listeners: 1 out of 3094 total

DFW Tower (Rwy 13R): 134.900

KDPA Chicago Approach (Archives)
Chicago, Illinois, United States

Feed Status: UP
Listen in your browser - HTML5 player(in browser, HTML5)
Click here to listen with your own player(launches your MP3 player)

KORD 121651Z 32017G34KT 10SM SCT048 SCT250 16/04 A2974 RMK AO2 PK WND 32034/1645 SLP072 T01610044

KORD Airport Info (Airnav.com)

KORD Flight Activity (Flightaware)

Listeners: 0 out of 3094 total

Chicago Approach/Departure: 133.500

KEWR ATIS (Archives)
Newark, New York, United States

Feed Status: UP
Listen in your browser - HTML5 player(in browser, HTML5)
Click here to listen with your own player(launches your MP3 player)

KEWR 121651Z 26013G22KT 10SM -RA SCT007 SCT025 OVC037 14/12 A2933 RMK AO2 PK WND 28040/1620 WSHFT 1614 LTG DSNT N RAB17 SLP931 P0009 T01440117

KEWR Airport Info (Airnav.com)

KEWR Flight Activity (Flightaware)

Listeners: 1 out of 3094 total

Newark ATIS: 134.825

KEWR Clearance Delivery (Archives)
Newark, New Jersey, United States

Feed Status: UP
Listen in your browser - HTML5 player(in browser, HTML5)
Click here to listen with your own player(launches your MP3 player)

KEWR 121651Z 26013G22KT 10SM -RA SCT007 SCT025 OVC037 14/12 A2933 RMK AO2 PK WND 28040/1620 WSHFT 1614 LTG DSNT N RAB17 SLP931 P0009 T01440117

KEWR Airport Info (Airnav.com)

KEWR Flight Activity (Flightaware)

Listeners: 1 out of 3094 total

Newark Clearance Delivery: 118.850

KEWR Ground (Archives)
Newark, New Jersey, United States

Feed Status: UP
Listen in your browser - HTML5 player(in browser, HTML5)
Click here to listen with your own player(launches your MP3 player)

KEWR 121651Z 26013G22KT 10SM -RA SCT007 SCT025 OVC037 14/12 A2933 RMK AO2 PK WND 28040/1620 WSHFT 1614 LTG DSNT N RAB17 SLP931 P0009 T01440117

KEWR Airport Info (Airnav.com)

KEWR Flight Activity (Flightaware)

Listeners: 1 out of 3094 total

Newark Ground (Primary): 121.800

KEWR NY App (ARD Sector) (Archives)
Newark, New York, United States

Feed Status: UP
Listen in your browser - HTML5 player(in browser, HTML5)
Click here to listen with your own player(launches your MP3 player)

KEWR 121651Z 26013G22KT 10SM -RA SCT007 SCT025 OVC037 14/12 A2933 RMK AO2 PK WND 28040/1620 WSHFT 1614 LTG DSNT N RAB17 SLP931 P0009 T01440117

KEWR Airport Info (Airnav.com)

KEWR Flight Activity (Flightaware)

Listeners: 0 out of 3094 total

New York Approach (ARD Sector): 128.550

KEWR NY App (EWR Final) (Archives)
Newark, New Jersey, United States

Feed Status: UP
Listen in your browser - HTML5 player(in browser, HTML5)
Click here to listen with your own player(launches your MP3 player)

KEWR 121651Z 26013G22KT 10SM -RA SCT007 SCT025 OVC037 14/12 A2933 RMK AO2 PK WND 28040/1620 WSHFT 1614 LTG DSNT N RAB17 SLP931 P0009 T01440117

KEWR Airport Info (Airnav.com)

KEWR Flight Activity (Flightaware)

Listeners: 0 out of 3094 total

New York Approach (EWR Final): 125.500

KEWR NY App (MUGZY Sector) (Archives)
Newark, New Jersey, United States

Feed Status: UP
Listen in your browser - HTML5 player(in browser, HTML5)
Click here to listen with your own player(launches your MP3 player)

KEWR 121651Z 26013G22KT 10SM -RA SCT007 SCT025 OVC037 14/12 A2933 RMK AO2 PK WND 28040/1620 WSHFT 1614 LTG DSNT N RAB17 SLP931 P0009 T01440117

KEWR Airport Info (Airnav.com)

KEWR Flight Activity (Flightaware)

Listeners: 0 out of 3094 total

New York Approach (MUGZY Sector): 127.600

KEWR NY App (N. Arrival Backup) (Archives)
Newark, New Jersey, United States

Feed Status: UP
Listen in your browser - HTML5 player(in browser, HTML5)
Click here to listen with your own player(launches your MP3 player)

KEWR 121651Z 26013G22KT 10SM -RA SCT007 SCT025 OVC037 14/12 A2933 RMK AO2 PK WND 28040/1620 WSHFT 1614 LTG DSNT N RAB17 SLP931 P0009 T01440117

KEWR Airport Info (Airnav.com)

KEWR Flight Activity (Flightaware)

Listeners: 0 out of 3094 total

New York Approach (North Arrival/Backup): 128.800

KEWR NY App (N. Arrival) (Archives)
Newark, New Jersey, United States

Feed Status: UP
Listen in your browser - HTML5 player(in browser, HTML5)
Click here to listen with your own player(launches your MP3 player)

KEWR 121651Z 26013G22KT 10SM -RA SCT007 SCT025 OVC037 14/12 A2933 RMK AO2 PK WND 28040/1620 WSHFT 1614 LTG DSNT N RAB17 SLP931 P0009 T01440117

KEWR Airport Info (Airnav.com)

KEWR Flight Activity (Flightaware)

Listeners: 0 out of 3094 total

New York Approach (North Arrival): 120.150

KEWR NY Departure #1 (Archives)
Newark, New Jersey, United States

Feed Status: UP
Listen in your browser - HTML5 player(in browser, HTML5)
Click here to listen with your own player(launches your MP3 player)

KEWR 121651Z 26013G22KT 10SM -RA SCT007 SCT025 OVC037 14/12 A2933 RMK AO2 PK WND 28040/1620 WSHFT 1614 LTG DSNT N RAB17 SLP931 P0009 T01440117

KEWR Airport Info (Airnav.com)

KEWR Flight Activity (Flightaware)

Listeners: 0 out of 3094 total

New York Departure: 119.200

KEWR NY Departure #2 (Archives)
Newark, New Jersey, United States

Feed Status: UP
Listen in your browser - HTML5 player(in browser, HTML5)
Click here to listen with your own player(launches your MP3 player)

KEWR 121651Z 26013G22KT 10SM -RA SCT007 SCT025 OVC037 14/12 A2933 RMK AO2 PK WND 28040/1620 WSHFT 1614 LTG DSNT N RAB17 SLP931 P0009 T01440117

KEWR Airport Info (Airnav.com)

KEWR Flight Activity (Flightaware)

Listeners: 4 out of 3094 total

New York Departure: 126.700

KEWR Ramp/Company/Misc (Archives)
Newark, New Jersey, United States

Feed Status: UP
Listen in your browser - HTML5 player(in browser, HTML5)
Click here to listen with your own player(launches your MP3 player)

KEWR 121651Z 26013G22KT 10SM -RA SCT007 SCT025 OVC037 14/12 A2933 RMK AO2 PK WND 28040/1620 WSHFT 1614 LTG DSNT N RAB17 SLP931 P0009 T01440117

KEWR Airport Info (Airnav.com)

KEWR Flight Activity (Flightaware)

Listeners: 1 out of 3094 total

Ramp/Company Channels: MISC

KEWR Tower #1 (Archives)
Newark, New Jersey, United States

Feed Status: UP
Listen in your browser - HTML5 player(in browser, HTML5)
Click here to listen with your own player(launches your MP3 player)

KEWR 121651Z 26013G22KT 10SM -RA SCT007 SCT025 OVC037 14/12 A2933 RMK AO2 PK WND 28040/1620 WSHFT 1614 LTG DSNT N RAB17 SLP931 P0009 T01440117

KEWR Airport Info (Airnav.com)

KEWR Flight Activity (Flightaware)

Listeners: 8 out of 3094 total

Newark Tower: 118.300

KEWR Tower #2 (Archives)
Newark, New Jersey, United States

Feed Status: UP
Listen in your browser - HTML5 player(in browser, HTML5)
Click here to listen with your own player(launches your MP3 player)

KEWR 121651Z 26013G22KT 10SM -RA SCT007 SCT025 OVC037 14/12 A2933 RMK AO2 PK WND 28040/1620 WSHFT 1614 LTG DSNT N RAB17 SLP931 P0009 T01440117

KEWR Airport Info (Airnav.com)

KEWR Flight Activity (Flightaware)

Listeners: 0 out of 3094 total

Newark Tower: 118.300

KEWR Tower (TCA) (Archives)
Newark, New Jersey, United States

Feed Status: UP
Listen in your browser - HTML5 player(in browser, HTML5)
Click here to listen with your own player(launches your MP3 player)

KEWR 121651Z 26013G22KT 10SM -RA SCT007 SCT025 OVC037 14/12 A2933 RMK AO2 PK WND 28040/1620 WSHFT 1614 LTG DSNT N RAB17 SLP931 P0009 T01440117

KEWR Airport Info (Airnav.com)

KEWR Flight Activity (Flightaware)

Listeners: 0 out of 3094 total

Newark Tower (TCA/2000' and below): 127.850

KEWR Tower/TCA/Backup (Archives)
Newark, New Jersey, United States

Feed Status: UP
Listen in your browser - HTML5 player(in browser, HTML5)
Click here to listen with your own player(launches your MP3 player)

KEWR 121651Z 26013G22KT 10SM -RA SCT007 SCT025 OVC037 14/12 A2933 RMK AO2 PK WND 28040/1620 WSHFT 1614 LTG DSNT N RAB17 SLP931 P0009 T01440117

KEWR Airport Info (Airnav.com)

KEWR Flight Activity (Flightaware)

Listeners: 0 out of 3094 total

Newark Tower: 118.300
Newark Tower (Backup/Secondary): 134.050
Newark Tower (TCA/Helicopter): 127.850

KLGA NY App (EMPYR) (Archives)
Newark, New Jersey, United States

Feed Status: UP
Listen in your browser - HTML5 player(in browser, HTML5)
Click here to listen with your own player(launches your MP3 player)

KEWR 121651Z 26013G22KT 10SM -RA SCT007 SCT025 OVC037 14/12 A2933 RMK AO2 PK WND 28040/1620 WSHFT 1614 LTG DSNT N RAB17 SLP931 P0009 T01440117

KEWR Airport Info (Airnav.com)

KEWR Flight Activity (Flightaware)

Listeners: 0 out of 3094 total

New York Approach (EMPYR Sector): 127.300

NY Departure (Liberty South) (Archives)
Newark, New Jersey, United States

Feed Status: UP
Listen in your browser - HTML5 player(in browser, HTML5)
Click here to listen with your own player(launches your MP3 player)

KEWR 121651Z 26013G22KT 10SM -RA SCT007 SCT025 OVC037 14/12 A2933 RMK AO2 PK WND 28040/1620 WSHFT 1614 LTG DSNT N RAB17 SLP931 P0009 T01440117

KEWR Airport Info (Airnav.com)

KEWR Flight Activity (Flightaware)

Listeners: 0 out of 3094 total

New York Departure (Liberty South): 124.750

NY Departure (Liberty West) (Archives)
Newark, New Jersey, United States

Feed Status: UP
Listen in your browser - HTML5 player(in browser, HTML5)
Click here to listen with your own player(launches your MP3 player)

KEWR 121651Z 26013G22KT 10SM -RA SCT007 SCT025 OVC037 14/12 A2933 RMK AO2 PK WND 28040/1620 WSHFT 1614 LTG DSNT N RAB17 SLP931 P0009 T01440117

KEWR Airport Info (Airnav.com)

KEWR Flight Activity (Flightaware)

Listeners: 0 out of 3094 total

New York Departure (Liberty West): 120.850

KFLL Departure (Archives)
Fort Lauderdale, Florida, United States

Feed Status: UP
Listen in your browser - HTML5 player(in browser, HTML5)
Click here to listen with your own player(launches your MP3 player)

KMIA 121653Z 29006KT 10SM FEW038 SCT300 27/14 A3013 RMK AO2 SLP203 T02670144

KMIA Airport Info (Airnav.com)

KMIA Flight Activity (Flightaware)

Listeners: 0 out of 3094 total

Miami Departure (FLL): 126.050

KMIA Approach (KFLL) (Archives)
Miami, Florida, United States

Feed Status: UP
Listen in your browser - HTML5 player(in browser, HTML5)
Click here to listen with your own player(launches your MP3 player)

KMIA 121653Z 29006KT 10SM FEW038 SCT300 27/14 A3013 RMK AO2 SLP203 T02670144

KMIA Airport Info (Airnav.com)

KMIA Flight Activity (Flightaware)

Listeners: 0 out of 3094 total

Miami Approach (KFLL): 133.775

Atlanta Approach (N. Sat) (Archives)
Atlanta, Georgia, United States

Feed Status: UP
Listen in your browser - HTML5 player(in browser, HTML5)
Click here to listen with your own player(launches your MP3 player)

KRYY 121650Z 26019G29KT 10SM CLR 17/00 A3000 RMK AO2 PK WND 26032/1610 SLP153 T01720000 $

KRYY Airport Info (Airnav.com)

KRYY Flight Activity (Flightaware)

Listeners: 1 out of 3094 total

Atlanta Approach (North Satellite): 121.000

KHOU Gnd/Twr/App (Archives)
Houston, Texas, United States

Feed Status: UP
Listen in your browser - HTML5 player(in browser, HTML5)
Click here to listen with your own player(launches your MP3 player)

KHOU 121653Z 12010KT 10SM SCT250 25/05 A3029 RMK AO2 SLP260 T02500050

KHOU Airport Info (Airnav.com)

KHOU Flight Activity (Flightaware)

Listeners: 2 out of 3094 total

Hobby Approach (Final): 133.050
Hobby Ground: 121.900
Hobby Tower: 118.700

NY Approach (NOBBI/NYACK/HAARP) (Archives)
New York, New York, United States

Feed Status: UP
Listen in your browser - HTML5 player(in browser, HTML5)
Click here to listen with your own player(launches your MP3 player)

KHPN 121656Z 16011G17KT 3/4SM R16/P6000FT BR VV002 13/12 A2930 RMK AO2 LTG DSNT W SLP920 T01330122

KHPN Airport Info (Airnav.com)

KHPN Flight Activity (Flightaware)

Listeners: 0 out of 3094 total

New York Approach (HAARP Sector): 135.350
New York Approach (HAARP Sector): 120.800
New York Approach (NOBBI Sector): 126.400
New York Approach (NYACK Sector): 120.550

KIAD App (Final Center) (Archives)
Washington, District of Columbia, United States

Feed Status: UP
Listen in your browser - HTML5 player(in browser, HTML5)
Click here to listen with your own player(launches your MP3 player)

KIAD 121652Z 26024G37KT 10SM BKN060 BKN100 19/04 A2949 RMK AO2 PK WND 26037/1651 SLP985 T01890044

KIAD Airport Info (Airnav.com)

KIAD Flight Activity (Flightaware)

Listeners: 0 out of 3094 total

Potomac Approach (IADFC, Final Center): 134.200

KIAD App (Final East) (Archives)
Washington, District of Columbia, United States

Feed Status: UP
Listen in your browser - HTML5 player(in browser, HTML5)
Click here to listen with your own player(launches your MP3 player)

KIAD 121652Z 26024G37KT 10SM BKN060 BKN100 19/04 A2949 RMK AO2 PK WND 26037/1651 SLP985 T01890044

KIAD Airport Info (Airnav.com)

KIAD Flight Activity (Flightaware)

Listeners: 2 out of 3094 total

Potomac Approach (IADFE KIAD Final East): 125.800

KIAD App (North Arr Hi) (Archives)
Washington, District of Columbia, United States

Feed Status: UP
Listen in your browser - HTML5 player(in browser, HTML5)
Click here to listen with your own player(launches your MP3 player)

KMRB 121653Z 25022G31KT 10SM BKN055 OVC070 15/05 A2947 RMK AO2 PK WND 28036/1557 SLP978 T01500050

KMRB Airport Info (Airnav.com)

KMRB Flight Activity (Flightaware)

Listeners: 0 out of 3094 total

Potomac Approach (BINNS, North Arrival High): 133.000

KIAD App (South Arrival) (Archives)
Washington, District of Columbia, United States

Feed Status: UP
Listen in your browser - HTML5 player(in browser, HTML5)
Click here to listen with your own player(launches your MP3 player)

KIAD 121652Z 26024G37KT 10SM BKN060 BKN100 19/04 A2949 RMK AO2 PK WND 26037/1651 SLP985 T01890044

KIAD Airport Info (Airnav.com)

KIAD Flight Activity (Flightaware)

Listeners: 0 out of 3094 total

Potomac Approach (BARIN Sector, South Arrival): 128.525
Potomac Approach (BRISTO Sector, South Satellite): 120.825

KIAD App (West Arrival MANNE) (Archives)
Washington, District of Columbia, United States

Feed Status: UP
Listen in your browser - HTML5 player(in browser, HTML5)
Click here to listen with your own player(launches your MP3 player)

KIAD 121652Z 26024G37KT 10SM BKN060 BKN100 19/04 A2949 RMK AO2 PK WND 26037/1651 SLP985 T01890044

KIAD Airport Info (Airnav.com)

KIAD Flight Activity (Flightaware)

Listeners: 0 out of 3094 total

Potomac Approach (MANNE Sector, West Arrival): 120.450

KIAD Approach (North Arrival MULRR) (Archives)
Washington, District of Columbia, United States

Feed Status: UP
Listen in your browser - HTML5 player(in browser, HTML5)
Click here to listen with your own player(launches your MP3 player)

KIAD 121652Z 26024G37KT 10SM BKN060 BKN100 19/04 A2949 RMK AO2 PK WND 26037/1651 SLP985 T01890044

KIAD Airport Info (Airnav.com)

KIAD Flight Activity (Flightaware)

Listeners: 0 out of 3094 total

Potomac Approach (North Arrival MULLR): 126.100

KIAD Area - SFRA West (Archives)
Washington, District of Columbia, United States

Feed Status: UP
Listen in your browser - HTML5 player(in browser, HTML5)
Click here to listen with your own player(launches your MP3 player)

KIAD 121652Z 26024G37KT 10SM BKN060 BKN100 19/04 A2949 RMK AO2 PK WND 26037/1651 SLP985 T01890044

KIAD Airport Info (Airnav.com)

KIAD Flight Activity (Flightaware)

Listeners: 0 out of 3094 total

Potomac Approach (SFRA West): 127.325

KIAD Del/Gnd (Archives)
Washington, District of Columbia, United States

Feed Status: UP
Listen in your browser - HTML5 player(in browser, HTML5)
Click here to listen with your own player(launches your MP3 player)

KIAD 121652Z 26024G37KT 10SM BKN060 BKN100 19/04 A2949 RMK AO2 PK WND 26037/1651 SLP985 T01890044

KIAD Airport Info (Airnav.com)

KIAD Flight Activity (Flightaware)

Listeners: 1 out of 3094 total

Dulles Clearance Delivery: 135.700
Dulles Ground (East): 121.900
Dulles Ground (West): 121.625
Dulles Ground (West): 132.450

KIAD Departure (Archives)
Washington, District of Columbia, United States

Feed Status: UP
Listen in your browser - HTML5 player(in browser, HTML5)
Click here to listen with your own player(launches your MP3 player)

KIAD 121652Z 26024G37KT 10SM BKN060 BKN100 19/04 A2949 RMK AO2 PK WND 26037/1651 SLP985 T01890044

KIAD Airport Info (Airnav.com)

KIAD Flight Activity (Flightaware)

Listeners: 3 out of 3094 total

Potomac Departure (KIAD North Dep ASPER): 125.050
Potomac Departure (KIAD South Dep ASPER): 126.650

KIAD Twr (Rwy 1C/19C) (Archives)
Washington, District of Columbia, United States

Feed Status: UP
Listen in your browser - HTML5 player(in browser, HTML5)
Click here to listen with your own player(launches your MP3 player)

KIAD 121652Z 26024G37KT 10SM BKN060 BKN100 19/04 A2949 RMK AO2 PK WND 26037/1651 SLP985 T01890044

KIAD Airport Info (Airnav.com)

KIAD Flight Activity (Flightaware)

Listeners: 2 out of 3094 total

Dulles Tower (Rwy 1C/19C): 120.250

KIAD Twr (Rwy 1L/19R/12/30) (Archives)
Washington, District of Columbia, United States

Feed Status: UP
Listen in your browser - HTML5 player(in browser, HTML5)
Click here to listen with your own player(launches your MP3 player)

KIAD 121652Z 26024G37KT 10SM BKN060 BKN100 19/04 A2949 RMK AO2 PK WND 26037/1651 SLP985 T01890044

KIAD Airport Info (Airnav.com)

KIAD Flight Activity (Flightaware)

Listeners: 3 out of 3094 total

Dulles Tower (Rwys 1L/19R/12/30): 134.425

KIAD Twr (Rwy 1L/1C/19R/19C)
Washington, District of Columbia, United States

Feed Status: DOWN
Offline since: 2024-03-12 01:35:05 UTC

KIAD 121652Z 26024G37KT 10SM BKN060 BKN100 19/04 A2949 RMK AO2 PK WND 26037/1651 SLP985 T01890044

KIAD Airport Info (Airnav.com)

Dulles Tower (Rwy 1C/19C): 120.250
Dulles Tower (Rwys 1L/19R/12/30): 134.425

KIAD Twr (Rwy 1R/19L) (Archives)
Washington, District of Columbia, United States

Feed Status: UP
Listen in your browser - HTML5 player(in browser, HTML5)
Click here to listen with your own player(launches your MP3 player)

KIAD 121652Z 26024G37KT 10SM BKN060 BKN100 19/04 A2949 RMK AO2 PK WND 26037/1651 SLP985 T01890044

KIAD Airport Info (Airnav.com)

KIAD Flight Activity (Flightaware)

Listeners: 1 out of 3094 total

Dulles Tower (Rwy 1R/19L): 120.100

KIAH Approach (Archives)
Houston, Texas, United States

Feed Status: UP
Listen in your browser - HTML5 player(in browser, HTML5)
Click here to listen with your own player(launches your MP3 player)

KIAH 121653Z 09008KT 10SM SCT250 25/05 A3029 RMK AO2 SLP256 T02500050

KIAH Airport Info (Airnav.com)

KIAH Flight Activity (Flightaware)

Listeners: 0 out of 3094 total

Houston Approach (backup): 121.250
Houston Approach (NE): 120.050
Houston Approach (NW): 124.350
Houston Approach (SE): 119.625
Houston Approach (SW): 119.175
Houston Departure (East, Low): 133.600
Houston Departure (NE High): 132.250
Houston Departure (North, Low): 119.700
Houston Departure (South High): 127.125
Houston Departure (South, Low): 134.450
Houston Departure (West High): 126.675
Houston Departure (West, Low): 123.800
Houston Final (8L/26R): 119.100
Houston Final (8R/26L): 120.650
Houston Final (9/27): 134.000

KIAH ATIS (Construction) (Archives)
Houston, Texas, United States

Feed Status: UP
Listen in your browser - HTML5 player(in browser, HTML5)
Click here to listen with your own player(launches your MP3 player)

KIAH 121653Z 09008KT 10SM SCT250 25/05 A3029 RMK AO2 SLP256 T02500050

KIAH Airport Info (Airnav.com)

KIAH Flight Activity (Flightaware)

Listeners: 0 out of 3094 total

Houston ATIS (Construction): 126.225

KIAH ATIS (Main) (Archives)
Houston, Texas, United States

Feed Status: UP
Listen in your browser - HTML5 player(in browser, HTML5)
Click here to listen with your own player(launches your MP3 player)

KIAH 121653Z 09008KT 10SM SCT250 25/05 A3029 RMK AO2 SLP256 T02500050

KIAH Airport Info (Airnav.com)

KIAH Flight Activity (Flightaware)

Listeners: 0 out of 3094 total

Houston D-ATIS: 124.050

KIAH Clearance Delivery (Archives)
Houston, Texas, United States

Feed Status: UP
Listen in your browser - HTML5 player(in browser, HTML5)
Click here to listen with your own player(launches your MP3 player)

KIAH 121653Z 09008KT 10SM SCT250 25/05 A3029 RMK AO2 SLP256 T02500050

KIAH Airport Info (Airnav.com)

KIAH Flight Activity (Flightaware)

Listeners: 2 out of 3094 total

Houston Clearance Delivery: 128.100

KIAH Gnd (North/Rwys 8/26LR) (Archives)
Houston, Texas, United States

Feed Status: UP
Listen in your browser - HTML5 player(in browser, HTML5)
Click here to listen with your own player(launches your MP3 player)

KIAH 121653Z 09008KT 10SM SCT250 25/05 A3029 RMK AO2 SLP256 T02500050

KIAH Airport Info (Airnav.com)

KIAH Flight Activity (Flightaware)

Listeners: 0 out of 3094 total

Houston Ground (North/Runways 8/26RL): 121.700

KIAH Gnd (South/Rwy 9/27) (Archives)
Houston, Texas, United States

Feed Status: UP
Listen in your browser - HTML5 player(in browser, HTML5)
Click here to listen with your own player(launches your MP3 player)

KIAH 121653Z 09008KT 10SM SCT250 25/05 A3029 RMK AO2 SLP256 T02500050

KIAH Airport Info (Airnav.com)

KIAH Flight Activity (Flightaware)

Listeners: 0 out of 3094 total

Houston Ground (South): 119.825

KIAH Gnd (West/Rwys 15/33LR) (Archives)
Houston, Texas, United States

Feed Status: UP
Listen in your browser - HTML5 player(in browser, HTML5)
Click here to listen with your own player(launches your MP3 player)

KIAH 121653Z 09008KT 10SM SCT250 25/05 A3029 RMK AO2 SLP256 T02500050

KIAH Airport Info (Airnav.com)

KIAH Flight Activity (Flightaware)

Listeners: 0 out of 3094 total

Houston Ground (West): 118.575

KIAH Metering (Archives)
Houston, Texas, United States

Feed Status: UP
Listen in your browser - HTML5 player(in browser, HTML5)
Click here to listen with your own player(launches your MP3 player)

KIAH 121653Z 09008KT 10SM SCT250 25/05 A3029 RMK AO2 SLP256 T02500050

KIAH Airport Info (Airnav.com)

KIAH Flight Activity (Flightaware)

Listeners: 0 out of 3094 total

Houston Metering: 119.950

KIAH Ramp (North) (Archives)
Houston, Texas, United States

Feed Status: UP
Listen in your browser - HTML5 player(in browser, HTML5)
Click here to listen with your own player(launches your MP3 player)

KIAH 121653Z 09008KT 10SM SCT250 25/05 A3029 RMK AO2 SLP256 T02500050

KIAH Airport Info (Airnav.com)

KIAH Flight Activity (Flightaware)

Listeners: 0 out of 3094 total

Houston Ramp (North): 130.825

KIAH Ramp (South) (Archives)
Houston, Texas, United States

Feed Status: UP
Listen in your browser - HTML5 player(in browser, HTML5)
Click here to listen with your own player(launches your MP3 player)

KIAH 121653Z 09008KT 10SM SCT250 25/05 A3029 RMK AO2 SLP256 T02500050

KIAH Airport Info (Airnav.com)

KIAH Flight Activity (Flightaware)

Listeners: 0 out of 3094 total

Houston Ramp (South): 131.275

KIAH Ramp (West) (Archives)
Houston, Texas, United States

Feed Status: UP
Listen in your browser - HTML5 player(in browser, HTML5)
Click here to listen with your own player(launches your MP3 player)

KIAH 121653Z 09008KT 10SM SCT250 25/05 A3029 RMK AO2 SLP256 T02500050

KIAH Airport Info (Airnav.com)

KIAH Flight Activity (Flightaware)

Listeners: 0 out of 3094 total

Houston Ramp (West): 121.625

KIAH Tower (Archives)
Houston, Texas, United States

Feed Status: UP
Listen in your browser - HTML5 player(in browser, HTML5)
Click here to listen with your own player(launches your MP3 player)

KIAH 121653Z 09008KT 10SM SCT250 25/05 A3029 RMK AO2 SLP256 T02500050

KIAH Airport Info (Airnav.com)

KIAH Flight Activity (Flightaware)

Listeners: 2 out of 3094 total

Houston Tower: 119.825
Houston Tower: 120.725
Houston Tower (15L/33R & 15R/33L): 127.300
Houston Tower (8R/26L): 125.350
Houston Tower (9/27): 135.150

KIAH Twr (Rwy 8L/26R) (Archives)
Houston, Texas, United States

Feed Status: UP
Listen in your browser - HTML5 player(in browser, HTML5)
Click here to listen with your own player(launches your MP3 player)

KIAH 121653Z 09008KT 10SM SCT250 25/05 A3029 RMK AO2 SLP256 T02500050

KIAH Airport Info (Airnav.com)

KIAH Flight Activity (Flightaware)

Listeners: 0 out of 3094 total

Houston Tower (Runway 8L/26R): 120.725

KIAH Twr (Rwy 8R/26L) (Archives)
Houston, Texas, United States

Feed Status: UP
Listen in your browser - HTML5 player(in browser, HTML5)
Click here to listen with your own player(launches your MP3 player)

KIAH 121653Z 09008KT 10SM SCT250 25/05 A3029 RMK AO2 SLP256 T02500050

KIAH Airport Info (Airnav.com)

KIAH Flight Activity (Flightaware)

Listeners: 0 out of 3094 total

Houston Tower (Runway 8R/26L): 125.350

KIAH Twr (Rwy 9/27) (Archives)
Houston, Texas, United States

Feed Status: UP
Listen in your browser - HTML5 player(in browser, HTML5)
Click here to listen with your own player(launches your MP3 player)

KIAH 121653Z 09008KT 10SM SCT250 25/05 A3029 RMK AO2 SLP256 T02500050

KIAH Airport Info (Airnav.com)

KIAH Flight Activity (Flightaware)

Listeners: 0 out of 3094 total

Houston Tower (Rwy 09/27): 135.150

KIAH Twr (Rwys 15/33RL) (Archives)
Houston, Texas, United States

Feed Status: UP
Listen in your browser - HTML5 player(in browser, HTML5)
Click here to listen with your own player(launches your MP3 player)

KIAH 121653Z 09008KT 10SM SCT250 25/05 A3029 RMK AO2 SLP256 T02500050

KIAH Airport Info (Airnav.com)

KIAH Flight Activity (Flightaware)

Listeners: 1 out of 3094 total

Houston Tower (Runways 15/33LR): 127.300

KPHX Approach (Pima/Willy Sectors) (Archives)
Chandler, Arizona, United States

Feed Status: UP
Listen in your browser - HTML5 player(in browser, HTML5)
Click here to listen with your own player(launches your MP3 player)

KPHX 121651Z 14007KT 10SM CLR 27/M01 A2986 RMK AO2 SLP091 T02721006

KPHX Airport Info (Airnav.com)

KPHX Flight Activity (Flightaware)

Listeners: 1 out of 3094 total

Phoenix Approach (Pima Sector): 123.700
Phoenix Approach (Willy Sector): 124.900

ARINC (JFK/LGA Area) (Archives)
New York, New York, United States

Feed Status: UP
Listen in your browser - HTML5 player(in browser, HTML5)
Click here to listen with your own player(launches your MP3 player)

KJFK 121651Z 20024G33KT 1SM -RA BR SCT005 BKN020CB BKN085 BKN250 13/11 A2933 RMK AO2 PK WND 19033/1649 SFC VIS 3 RAB46 SLP932 CB SW-NW MOV NE P0000 T01280111

KJFK Airport Info (Airnav.com)

KJFK Flight Activity (Flightaware)

Listeners: 1 out of 3094 total

ARINC (KJFK Ground Station): 129.900
ARINC (KLGA Ground Station): 129.400

KJFK Clearance Delivery #1 (Archives)
New York, New York, United States

Feed Status: UP
Listen in your browser - HTML5 player(in browser, HTML5)
Click here to listen with your own player(launches your MP3 player)

KJFK 121651Z 20024G33KT 1SM -RA BR SCT005 BKN020CB BKN085 BKN250 13/11 A2933 RMK AO2 PK WND 19033/1649 SFC VIS 3 RAB46 SLP932 CB SW-NW MOV NE P0000 T01280111

KJFK Airport Info (Airnav.com)

KJFK Flight Activity (Flightaware)

Listeners: 1 out of 3094 total

JFK Clearance Delivery: 135.050

KJFK Clearance Delivery #2 (Archives)
New York, New York, United States

Feed Status: UP
Listen in your browser - HTML5 player(in browser, HTML5)
Click here to listen with your own player(launches your MP3 player)

KJFK 121651Z 20024G33KT 1SM -RA BR SCT005 BKN020CB BKN085 BKN250 13/11 A2933 RMK AO2 PK WND 19033/1649 SFC VIS 3 RAB46 SLP932 CB SW-NW MOV NE P0000 T01280111

KJFK Airport Info (Airnav.com)

KJFK Flight Activity (Flightaware)

Listeners: 0 out of 3094 total

JFK Clearance Delivery: 135.050

KJFK Company/Ramp (Archives)
New York, New York, United States

Feed Status: UP
Listen in your browser - HTML5 player(in browser, HTML5)
Click here to listen with your own player(launches your MP3 player)

KJFK 121651Z 20024G33KT 1SM -RA BR SCT005 BKN020CB BKN085 BKN250 13/11 A2933 RMK AO2 PK WND 19033/1649 SFC VIS 3 RAB46 SLP932 CB SW-NW MOV NE P0000 T01280111

KJFK Airport Info (Airnav.com)

KJFK Flight Activity (Flightaware)

Listeners: 3 out of 3094 total

Cargoitalia: 131.400
Delta: 129.650
JetBlue: 129.825
JetBlue: 129.100
JetBlue: 136.550
Sun Country: 131.950
United: 131.500

KJFK D-ATIS (Archives)
New York, New York, United States

Feed Status: UP
Listen in your browser - HTML5 player(in browser, HTML5)
Click here to listen with your own player(launches your MP3 player)

KJFK 121651Z 20024G33KT 1SM -RA BR SCT005 BKN020CB BKN085 BKN250 13/11 A2933 RMK AO2 PK WND 19033/1649 SFC VIS 3 RAB46 SLP932 CB SW-NW MOV NE P0000 T01280111

KJFK Airport Info (Airnav.com)

KJFK Flight Activity (Flightaware)

Listeners: 1 out of 3094 total

KJFK D-ATIS: 128.725

KJFK Gnd/Twr (Archives)
New York, New York, United States

Feed Status: UP
Listen in your browser - HTML5 player(in browser, HTML5)
Click here to listen with your own player(launches your MP3 player)

KJFK 121651Z 20024G33KT 1SM -RA BR SCT005 BKN020CB BKN085 BKN250 13/11 A2933 RMK AO2 PK WND 19033/1649 SFC VIS 3 RAB46 SLP932 CB SW-NW MOV NE P0000 T01280111

KJFK Airport Info (Airnav.com)

KJFK Flight Activity (Flightaware)

Listeners: 31 out of 3094 total

JFK Ground: 121.650
JFK Ground: 121.900
JFK Tower (4L/22R, 13R/31L): 123.900
JFK Tower (4R/22L, 13L/31R): 119.100
TCA (Class B 2000ft/below within 8nm): 125.250

KJFK Ground #1 (Archives)
New York, New York, United States

Feed Status: UP
Listen in your browser - HTML5 player(in browser, HTML5)
Click here to listen with your own player(launches your MP3 player)

KJFK 121651Z 20024G33KT 1SM -RA BR SCT005 BKN020CB BKN085 BKN250 13/11 A2933 RMK AO2 PK WND 19033/1649 SFC VIS 3 RAB46 SLP932 CB SW-NW MOV NE P0000 T01280111

KJFK Airport Info (Airnav.com)

KJFK Flight Activity (Flightaware)

Listeners: 5 out of 3094 total

JFK Ground: 121.650
JFK Ground: 121.900

KJFK Ground #2 (Archives)
New York, New York, United States

Feed Status: UP
Listen in your browser - HTML5 player(in browser, HTML5)
Click here to listen with your own player(launches your MP3 player)

KJFK 121651Z 20024G33KT 1SM -RA BR SCT005 BKN020CB BKN085 BKN250 13/11 A2933 RMK AO2 PK WND 19033/1649 SFC VIS 3 RAB46 SLP932 CB SW-NW MOV NE P0000 T01280111

KJFK Airport Info (Airnav.com)

KJFK Flight Activity (Flightaware)

Listeners: 6 out of 3094 total

JFK Ground: 121.900
JFK Ground: 121.650

KJFK Tower (Archives)
New York, New York, United States

Feed Status: UP
Listen in your browser - HTML5 player(in browser, HTML5)
Click here to listen with your own player(launches your MP3 player)

KJFK 121651Z 20024G33KT 1SM -RA BR SCT005 BKN020CB BKN085 BKN250 13/11 A2933 RMK AO2 PK WND 19033/1649 SFC VIS 3 RAB46 SLP932 CB SW-NW MOV NE P0000 T01280111

KJFK Airport Info (Airnav.com)

KJFK Flight Activity (Flightaware)

Listeners: 12 out of 3094 total

JFK Tower (4R/22L, 13L/31R): 119.100

KJFK Tower #2 (Archives)
New York, New York, United States

Feed Status: UP
Listen in your browser - HTML5 player(in browser, HTML5)
Click here to listen with your own player(launches your MP3 player)

KJFK 121651Z 20024G33KT 1SM -RA BR SCT005 BKN020CB BKN085 BKN250 13/11 A2933 RMK AO2 PK WND 19033/1649 SFC VIS 3 RAB46 SLP932 CB SW-NW MOV NE P0000 T01280111

KJFK Airport Info (Airnav.com)

KJFK Flight Activity (Flightaware)

Listeners: 12 out of 3094 total

JFK Tower (4L/22R, 13R/31L): 123.900
JFK Tower (4R/22L, 13L/31R): 119.100

KJFK Tower #3 (Archives)
New York, New York, United States

Feed Status: UP
Listen in your browser - HTML5 player(in browser, HTML5)
Click here to listen with your own player(launches your MP3 player)

KJFK 121651Z 20024G33KT 1SM -RA BR SCT005 BKN020CB BKN085 BKN250 13/11 A2933 RMK AO2 PK WND 19033/1649 SFC VIS 3 RAB46 SLP932 CB SW-NW MOV NE P0000 T01280111

KJFK Airport Info (Airnav.com)

KJFK Flight Activity (Flightaware)

Listeners: 3 out of 3094 total

JFK Tower (4L/22R, 13R/31L): 123.900
JFK Tower (4R/22L, 13L/31R): 119.100
TCA (Class B 2000ft/below within 8nm): 125.250

KJFK Tower 119.1 (Archives)
New York, New York, United States

Feed Status: UP
Listen in your browser - HTML5 player(in browser, HTML5)
Click here to listen with your own player(launches your MP3 player)

KJFK 121651Z 20024G33KT 1SM -RA BR SCT005 BKN020CB BKN085 BKN250 13/11 A2933 RMK AO2 PK WND 19033/1649 SFC VIS 3 RAB46 SLP932 CB SW-NW MOV NE P0000 T01280111

KJFK Airport Info (Airnav.com)

KJFK Flight Activity (Flightaware)

Listeners: 1 out of 3094 total

JFK Tower (4R/22L, 13L/31R): 119.100

KJFK Tower 123.9 (Archives)
New York, New York, United States

Feed Status: UP
Listen in your browser - HTML5 player(in browser, HTML5)
Click here to listen with your own player(launches your MP3 player)

KJFK 121651Z 20024G33KT 1SM -RA BR SCT005 BKN020CB BKN085 BKN250 13/11 A2933 RMK AO2 PK WND 19033/1649 SFC VIS 3 RAB46 SLP932 CB SW-NW MOV NE P0000 T01280111

KJFK Airport Info (Airnav.com)

KJFK Flight Activity (Flightaware)

Listeners: 1 out of 3094 total

JFK Tower (4L/22R, 13R/31L): 123.900

NY Approach (CAMRN/JFK) #1 (Archives)
New York, New York, United States

Feed Status: UP
Listen in your browser - HTML5 player(in browser, HTML5)
Click here to listen with your own player(launches your MP3 player)

KJFK 121651Z 20024G33KT 1SM -RA BR SCT005 BKN020CB BKN085 BKN250 13/11 A2933 RMK AO2 PK WND 19033/1649 SFC VIS 3 RAB46 SLP932 CB SW-NW MOV NE P0000 T01280111

KJFK Airport Info (Airnav.com)

KJFK Flight Activity (Flightaware)

Listeners: 1 out of 3094 total

New York Approach (CAMRN Sector): 128.125

NY Approach (CAMRN/JFK) #2 (Archives)
New York, New York, United States

Feed Status: UP
Listen in your browser - HTML5 player(in browser, HTML5)
Click here to listen with your own player(launches your MP3 player)

KJFK 121651Z 20024G33KT 1SM -RA BR SCT005 BKN020CB BKN085 BKN250 13/11 A2933 RMK AO2 PK WND 19033/1649 SFC VIS 3 RAB46 SLP932 CB SW-NW MOV NE P0000 T01280111

KJFK Airport Info (Airnav.com)

KJFK Flight Activity (Flightaware)

Listeners: 4 out of 3094 total

New York Approach (CAMRN Sector): 128.125

NY Approach (CAMRN/JFK) #3 (Archives)
New York, New York, United States

Feed Status: UP
Listen in your browser - HTML5 player(in browser, HTML5)
Click here to listen with your own player(launches your MP3 player)

KJFK 121651Z 20024G33KT 1SM -RA BR SCT005 BKN020CB BKN085 BKN250 13/11 A2933 RMK AO2 PK WND 19033/1649 SFC VIS 3 RAB46 SLP932 CB SW-NW MOV NE P0000 T01280111

KJFK Airport Info (Airnav.com)

KJFK Flight Activity (Flightaware)

Listeners: 0 out of 3094 total

New York Approach (CAMRN Sector): 128.125

NY Approach (Final/JFK) #1 (Archives)
New York, New York, United States

Feed Status: UP
Listen in your browser - HTML5 player(in browser, HTML5)
Click here to listen with your own player(launches your MP3 player)

KJFK 121651Z 20024G33KT 1SM -RA BR SCT005 BKN020CB BKN085 BKN250 13/11 A2933 RMK AO2 PK WND 19033/1649 SFC VIS 3 RAB46 SLP932 CB SW-NW MOV NE P0000 T01280111

KJFK Airport Info (Airnav.com)

KJFK Flight Activity (Flightaware)

Listeners: 6 out of 3094 total

NY Approach (JFK Final Vector): 132.400

NY Approach (Final/JFK) #2 (Archives)
New York, New York, United States

Feed Status: UP
Listen in your browser - HTML5 player(in browser, HTML5)
Click here to listen with your own player(launches your MP3 player)

KJFK 121651Z 20024G33KT 1SM -RA BR SCT005 BKN020CB BKN085 BKN250 13/11 A2933 RMK AO2 PK WND 19033/1649 SFC VIS 3 RAB46 SLP932 CB SW-NW MOV NE P0000 T01280111

KJFK Airport Info (Airnav.com)

KJFK Flight Activity (Flightaware)

Listeners: 0 out of 3094 total

NY Approach (JFK Final Vector): 132.400

NY Approach (ROBER/JFK #1) (Archives)
New York, New York, United States

Feed Status: UP
Listen in your browser - HTML5 player(in browser, HTML5)
Click here to listen with your own player(launches your MP3 player)

KJFK 121651Z 20024G33KT 1SM -RA BR SCT005 BKN020CB BKN085 BKN250 13/11 A2933 RMK AO2 PK WND 19033/1649 SFC VIS 3 RAB46 SLP932 CB SW-NW MOV NE P0000 T01280111

KJFK Airport Info (Airnav.com)

KJFK Flight Activity (Flightaware)

Listeners: 0 out of 3094 total

NY Approach (ROBER Sector): 125.700

NY Approach (ROBER/JFK #2) (Archives)
New York, New York, United States

Feed Status: UP
Listen in your browser - HTML5 player(in browser, HTML5)
Click here to listen with your own player(launches your MP3 player)

KJFK 121651Z 20024G33KT 1SM -RA BR SCT005 BKN020CB BKN085 BKN250 13/11 A2933 RMK AO2 PK WND 19033/1649 SFC VIS 3 RAB46 SLP932 CB SW-NW MOV NE P0000 T01280111

KJFK Airport Info (Airnav.com)

KJFK Flight Activity (Flightaware)

Listeners: 3 out of 3094 total

NY Approach (ROBER sector): 125.700

NY Dep (Liberty North) #1 (Archives)
New York, New York, United States

Feed Status: UP
Listen in your browser - HTML5 player(in browser, HTML5)
Click here to listen with your own player(launches your MP3 player)

KHPN 121656Z 16011G17KT 3/4SM R16/P6000FT BR VV002 13/12 A2930 RMK AO2 LTG DSNT W SLP920 T01330122

KHPN Airport Info (Airnav.com)

KHPN Flight Activity (Flightaware)

Listeners: 0 out of 3094 total

New York Departure (Liberty/North): 118.175

NY Dep (Liberty North) #2 (Archives)
New York, New York, United States

Feed Status: UP
Listen in your browser - HTML5 player(in browser, HTML5)
Click here to listen with your own player(launches your MP3 player)


Listeners: 1 out of 3094 total

New York Departure (Liberty/North): 118.175

NY Departure (JFK) (Archives)
New York, New York, United States

Feed Status: UP
Listen in your browser - HTML5 player(in browser, HTML5)
Click here to listen with your own player(launches your MP3 player)

KJFK 121651Z 20024G33KT 1SM -RA BR SCT005 BKN020CB BKN085 BKN250 13/11 A2933 RMK AO2 PK WND 19033/1649 SFC VIS 3 RAB46 SLP932 CB SW-NW MOV NE P0000 T01280111

KJFK Airport Info (Airnav.com)

KJFK Flight Activity (Flightaware)

Listeners: 8 out of 3094 total

NY Departure (JFK): 135.900

KLAS Approach (Final) (Archives)
Las Vegas, Nevada, United States

Feed Status: UP
Listen in your browser - HTML5 player(in browser, HTML5)
Click here to listen with your own player(launches your MP3 player)

KLAS 121656Z 05004KT 10SM SCT250 22/M03 A2983 RMK AO2 SLP082 T02221028

KLAS Airport Info (Airnav.com)

KLAS Flight Activity (Flightaware)

Listeners: 1 out of 3094 total

Las Vegas Approach (Final): 135.000

KLAS Approach (NE) (Archives)
Las Vegas, Nevada, United States

Feed Status: UP
Listen in your browser - HTML5 player(in browser, HTML5)
Click here to listen with your own player(launches your MP3 player)

KLAS 121656Z 05004KT 10SM SCT250 22/M03 A2983 RMK AO2 SLP082 T02221028

KLAS Airport Info (Airnav.com)

KLAS Flight Activity (Flightaware)

Listeners: 0 out of 3094 total

Las Vegas Approach (Northeast): 119.400

KLAS Approach (NW) (Archives)
Las Vegas, Nevada, United States

Feed Status: UP
Listen in your browser - HTML5 player(in browser, HTML5)
Click here to listen with your own player(launches your MP3 player)

KLAS 121656Z 05004KT 10SM SCT250 22/M03 A2983 RMK AO2 SLP082 T02221028

KLAS Airport Info (Airnav.com)

KLAS Flight Activity (Flightaware)

Listeners: 0 out of 3094 total

Las Vegas Approach (Northwest): 125.025

KLAS Approach (SE) (Archives)
Las Vegas, Nevada, United States

Feed Status: UP
Listen in your browser - HTML5 player(in browser, HTML5)
Click here to listen with your own player(launches your MP3 player)

KLAS 121656Z 05004KT 10SM SCT250 22/M03 A2983 RMK AO2 SLP082 T02221028

KLAS Airport Info (Airnav.com)

KLAS Flight Activity (Flightaware)

Listeners: 0 out of 3094 total

Las Vegas Approach (Southeast): 118.400

KLAS Approach (SW) (Archives)
Las Vegas, Nevada, United States

Feed Status: UP
Listen in your browser - HTML5 player(in browser, HTML5)
Click here to listen with your own player(launches your MP3 player)

KLAS 121656Z 05004KT 10SM SCT250 22/M03 A2983 RMK AO2 SLP082 T02221028

KLAS Airport Info (Airnav.com)

KLAS Flight Activity (Flightaware)

Listeners: 0 out of 3094 total

Las Vegas Approach (SouthWEST): 119.775

KLAS ATIS (Archives)
Las Vegas, Nevada, United States

Feed Status: UP
Listen in your browser - HTML5 player(in browser, HTML5)
Click here to listen with your own player(launches your MP3 player)

KLAS 121656Z 05004KT 10SM SCT250 22/M03 A2983 RMK AO2 SLP082 T02221028

KLAS Airport Info (Airnav.com)

KLAS Flight Activity (Flightaware)

Listeners: 0 out of 3094 total

Las Vegas ATIS: 132.400

KLAS Clearance Delivery (Archives)
Las Vegas, Nevada, United States

Feed Status: UP
Listen in your browser - HTML5 player(in browser, HTML5)
Click here to listen with your own player(launches your MP3 player)

KLAS 121656Z 05004KT 10SM SCT250 22/M03 A2983 RMK AO2 SLP082 T02221028

KLAS Airport Info (Airnav.com)

KLAS Flight Activity (Flightaware)

Listeners: 0 out of 3094 total

Las Vegas Clearance Delivery: 118.000

KLAS Departure (Rwys 01/08) (Archives)
Las Vegas, Nevada, United States

Feed Status: UP
Listen in your browser - HTML5 player(in browser, HTML5)
Click here to listen with your own player(launches your MP3 player)

KLAS 121656Z 05004KT 10SM SCT250 22/M03 A2983 RMK AO2 SLP082 T02221028

KLAS Airport Info (Airnav.com)

KLAS Flight Activity (Flightaware)

Listeners: 0 out of 3094 total

Las Vegas Departure (Rwys 01/08): 133.950

KLAS Departure (Rwys 19/26) (Archives)
Las Vegas, Nevada, United States

Feed Status: UP
Listen in your browser - HTML5 player(in browser, HTML5)
Click here to listen with your own player(launches your MP3 player)

KLAS 121656Z 05004KT 10SM SCT250 22/M03 A2983 RMK AO2 SLP082 T02221028

KLAS Airport Info (Airnav.com)

KLAS Flight Activity (Flightaware)

Listeners: 0 out of 3094 total

Las Vegas Departure (Rwys 19/26): 125.900

KLAS Ground (East) (Archives)
Las Vegas, Nevada, United States

Feed Status: UP
Listen in your browser - HTML5 player(in browser, HTML5)
Click here to listen with your own player(launches your MP3 player)

KLAS 121656Z 05004KT 10SM SCT250 22/M03 A2983 RMK AO2 SLP082 T02221028

KLAS Airport Info (Airnav.com)

KLAS Flight Activity (Flightaware)

Listeners: 0 out of 3094 total

Las Vegas Ground (East of 1R/19L): 121.100

KLAS Ground (West) (Archives)
Las Vegas, Nevada, United States

Feed Status: UP
Listen in your browser - HTML5 player(in browser, HTML5)
Click here to listen with your own player(launches your MP3 player)

KLAS 121656Z 05004KT 10SM SCT250 22/M03 A2983 RMK AO2 SLP082 T02221028

KLAS Airport Info (Airnav.com)

KLAS Flight Activity (Flightaware)

Listeners: 0 out of 3094 total

Las Vegas Ground (West of 1R/19L): 121.900

KLAS Helicopter Control (Archives)
Las Vegas, Nevada, United States

Feed Status: UP
Listen in your browser - HTML5 player(in browser, HTML5)
Click here to listen with your own player(launches your MP3 player)

KLAS 121656Z 05004KT 10SM SCT250 22/M03 A2983 RMK AO2 SLP082 T02221028

KLAS Airport Info (Airnav.com)

KLAS Flight Activity (Flightaware)

Listeners: 0 out of 3094 total

Las Vegas Helicopter Control: 123.825

KLAS Ramp Control (Archives)
Las Vegas, Nevada, United States

Feed Status: UP
Listen in your browser - HTML5 player(in browser, HTML5)
Click here to listen with your own player(launches your MP3 player)

KLAS 121656Z 05004KT 10SM SCT250 22/M03 A2983 RMK AO2 SLP082 T02221028

KLAS Airport Info (Airnav.com)

KLAS Flight Activity (Flightaware)

Listeners: 1 out of 3094 total

Las Vegas Ramp Control A/B/C Gates/Int'l Charter: 124.400
Las Vegas Ramp Control D/E Gates/Cargo Ramp: 127.900

KLAS Ramp Control (Archives)
Las Vegas, Nevada, United States

Feed Status: UP
Listen in your browser - HTML5 player(in browser, HTML5)
Click here to listen with your own player(launches your MP3 player)

KLAS 121656Z 05004KT 10SM SCT250 22/M03 A2983 RMK AO2 SLP082 T02221028

KLAS Airport Info (Airnav.com)

KLAS Flight Activity (Flightaware)

Listeners: 1 out of 3094 total

Las Vegas Ramp Control A/B/C Gates/Int'l Charter: 124.400
Las Vegas Ramp Control D/E Gates/Cargo Ramp: 127.900

KLAS Tower (Both) (Archives)
Las Vegas, Nevada, United States

Feed Status: UP
Listen in your browser - HTML5 player(in browser, HTML5)
Click here to listen with your own player(launches your MP3 player)

KLAS 121656Z 05004KT 10SM SCT250 22/M03 A2983 RMK AO2 SLP082 T02221028

KLAS Airport Info (Airnav.com)

KLAS Flight Activity (Flightaware)

Listeners: 3 out of 3094 total

Las Vegas Tower (Rwy 01L/19R, 01R/19L): 118.750
Las Vegas Tower (Rwy 08L/26R,08R/26L): 119.900

KLAS Tower (Emergency/Discrete) (Archives)
Las Vegas, Nevada, United States

Feed Status: UP
Listen in your browser - HTML5 player(in browser, HTML5)
Click here to listen with your own player(launches your MP3 player)

KLAS 121656Z 05004KT 10SM SCT250 22/M03 A2983 RMK AO2 SLP082 T02221028

KLAS Airport Info (Airnav.com)

KLAS Flight Activity (Flightaware)

Listeners: 0 out of 3094 total

ARFF Ground-to-Aircraft Emergency Frequency : 126.975

KLAS Tower (Rwys 01/19) (Archives)
Las Vegas, Nevada, United States

Feed Status: UP
Listen in your browser - HTML5 player(in browser, HTML5)
Click here to listen with your own player(launches your MP3 player)

KLAS 121656Z 05004KT 10SM SCT250 22/M03 A2983 RMK AO2 SLP082 T02221028

KLAS Airport Info (Airnav.com)

KLAS Flight Activity (Flightaware)

Listeners: 0 out of 3094 total

Las Vegas Tower (Rwy 01L/19R, 01R/19L): 118.750

KLAS Tower (Rwys 08/26) (Archives)
Las Vegas, Nevada, United States

Feed Status: UP
Listen in your browser - HTML5 player(in browser, HTML5)
Click here to listen with your own player(launches your MP3 player)

KLAS 121656Z 05004KT 10SM SCT250 22/M03 A2983 RMK AO2 SLP082 T02221028

KLAS Airport Info (Airnav.com)

KLAS Flight Activity (Flightaware)

Listeners: 1 out of 3094 total

Las Vegas Tower (Rwy 08L/26R,08R/26L): 119.900

KLAX App (East Feeder) (Archives)
Los Angeles, California, United States

Feed Status: UP
Listen in your browser - HTML5 player(in browser, HTML5)
Click here to listen with your own player(launches your MP3 player)

KPOC 121647Z 27007KT 1SM BR OVC004 12/11 A2990

KPOC Airport Info (Airnav.com)

KPOC Flight Activity (Flightaware)

Listeners: 6 out of 3094 total

SOCAL Approach East LAX Arrival Feeder, 10000-17000) : 124.050

KLAX App (Zuma/NW Arr) (Archives)
Los Angeles, California, United States

Feed Status: UP
Listen in your browser - HTML5 player(in browser, HTML5)
Click here to listen with your own player(launches your MP3 player)

KLAX 121653Z 16005KT 7SM FEW009 OVC015 14/10 A2990 RMK AO2 SLP123 T01390100 $

KLAX Airport Info (Airnav.com)

KLAX Flight Activity (Flightaware)

Listeners: 3 out of 3094 total

SOCAL Approach Zuma Sector (Northwest LAX Arrival Feeder, 7000-13000) : 124.500

KLAX ARFF/Emergency (Archives)
Los Angeles, California, United States

Feed Status: UP
Listen in your browser - HTML5 player(in browser, HTML5)
Click here to listen with your own player(launches your MP3 player)

KLAX 121653Z 16005KT 7SM FEW009 OVC015 14/10 A2990 RMK AO2 SLP123 T01390100 $

KLAX Airport Info (Airnav.com)

KLAX Flight Activity (Flightaware)

Listeners: 1 out of 3094 total

Los Angeles ARFF/Emergency/Discrete: 127.850

KLAX ARINC 128.9 (Archives)
Los Angeles, California, United States

Feed Status: UP
Listen in your browser - HTML5 player(in browser, HTML5)
Click here to listen with your own player(launches your MP3 player)

KLAX 121653Z 16005KT 7SM FEW009 OVC015 14/10 A2990 RMK AO2 SLP123 T01390100 $

KLAX Airport Info (Airnav.com)

KLAX Flight Activity (Flightaware)

Listeners: 1 out of 3094 total

ARINC Voice Service: 128.900

KLAX ATIS (Arrival) (Archives)
Los Angeles, California, United States

Feed Status: UP
Listen in your browser - HTML5 player(in browser, HTML5)
Click here to listen with your own player(launches your MP3 player)

KLAX 121653Z 16005KT 7SM FEW009 OVC015 14/10 A2990 RMK AO2 SLP123 T01390100 $

KLAX Airport Info (Airnav.com)

KLAX Flight Activity (Flightaware)

Listeners: 2 out of 3094 total

Los Angeles ATIS (Arrival): 133.800

KLAX ATIS (Departure) (Archives)
Los Angeles, California, United States

Feed Status: UP
Listen in your browser - HTML5 player(in browser, HTML5)
Click here to listen with your own player(launches your MP3 player)

KLAX 121653Z 16005KT 7SM FEW009 OVC015 14/10 A2990 RMK AO2 SLP123 T01390100 $

KLAX Airport Info (Airnav.com)

KLAX Flight Activity (Flightaware)

Listeners: 2 out of 3094 total

Los Angeles ATIS (Departure): 135.650

KLAX Clearance Delivery (Archives)
Los Angeles, California, United States

Feed Status: UP
Listen in your browser - HTML5 player(in browser, HTML5)
Click here to listen with your own player(launches your MP3 player)

KLAX 121653Z 16005KT 7SM FEW009 OVC015 14/10 A2990 RMK AO2 SLP123 T01390100 $

KLAX Airport Info (Airnav.com)

KLAX Flight Activity (Flightaware)

Listeners: 3 out of 3094 total

Los Angeles Clearance Delivery: 120.350

KLAX Dep/West App (Archives)
Los Angeles, California, United States

Feed Status: UP
Listen in your browser - HTML5 player(in browser, HTML5)
Click here to listen with your own player(launches your MP3 player)

KLAX 121653Z 16005KT 7SM FEW009 OVC015 14/10 A2990 RMK AO2 SLP123 T01390100 $

KLAX Airport Info (Airnav.com)

KLAX Flight Activity (Flightaware)

Listeners: 5 out of 3094 total

SOCAL Approach Zuma Sector (Northwest LAX Arrival Feeder, 7000-13000) : 124.500
SoCal Departure (SW->NE): 124.300
SoCal Departure (W->N): 125.200

KLAX Final App (North) (Archives)
Los Angeles, California, United States

Feed Status: UP
Listen in your browser - HTML5 player(in browser, HTML5)
Click here to listen with your own player(launches your MP3 player)

KLAX 121653Z 16005KT 7SM FEW009 OVC015 14/10 A2990 RMK AO2 SLP123 T01390100 $

KLAX Airport Info (Airnav.com)

KLAX Flight Activity (Flightaware)

Listeners: 2 out of 3094 total

SOCAL Approach (Stadium/North Final): 128.500

KLAX Final App (North/South) (Archives)
Los Angeles, California, United States

Feed Status: UP
Listen in your browser - HTML5 player(in browser, HTML5)
Click here to listen with your own player(launches your MP3 player)

KLAX 121653Z 16005KT 7SM FEW009 OVC015 14/10 A2990 RMK AO2 SLP123 T01390100 $

KLAX Airport Info (Airnav.com)

KLAX Flight Activity (Flightaware)

Listeners: 12 out of 3094 total

SOCAL Approach (Downey Sector, South Final): 132.375
SoCal Approach (Downey/South Final): 124.900
SoCal Approach (Stadium/North Final): 128.500

KLAX Final App (South) #1 (Archives)
Los Angeles, California, United States

Feed Status: UP
Listen in your browser - HTML5 player(in browser, HTML5)
Click here to listen with your own player(launches your MP3 player)

KLAX 121653Z 16005KT 7SM FEW009 OVC015 14/10 A2990 RMK AO2 SLP123 T01390100 $

KLAX Airport Info (Airnav.com)

KLAX Flight Activity (Flightaware)

Listeners: 1 out of 3094 total

SOCAL Approach (Downey Sector, South Final): 124.900

KLAX Ground (Metering) (Archives)
Los Angeles, California, United States

Feed Status: UP
Listen in your browser - HTML5 player(in browser, HTML5)
Click here to listen with your own player(launches your MP3 player)

KLAX 121653Z 16005KT 7SM FEW009 OVC015 14/10 A2990 RMK AO2 SLP123 T01390100 $

KLAX Airport Info (Airnav.com)

KLAX Flight Activity (Flightaware)

Listeners: 1 out of 3094 total

Los Angeles Ground (Metering): 121.400

KLAX Ground (North) (Archives)
Los Angeles, California, United States

Feed Status: UP
Listen in your browser - HTML5 player(in browser, HTML5)
Click here to listen with your own player(launches your MP3 player)

KLAX 121653Z 16005KT 7SM FEW009 OVC015 14/10 A2990 RMK AO2 SLP123 T01390100 $

KLAX Airport Info (Airnav.com)

KLAX Flight Activity (Flightaware)

Listeners: 4 out of 3094 total

Los Angeles Ground (North Complex): 121.650

KLAX Ground (North/South) (Archives)
Los Angeles, California, United States

Feed Status: UP
Listen in your browser - HTML5 player(in browser, HTML5)
Click here to listen with your own player(launches your MP3 player)

KLAX 121653Z 16005KT 7SM FEW009 OVC015 14/10 A2990 RMK AO2 SLP123 T01390100 $

KLAX Airport Info (Airnav.com)

KLAX Flight Activity (Flightaware)

Listeners: 5 out of 3094 total

Los Angeles Ground (North Complex): 121.650
Los Angeles Ground (South Complex): 121.750
Los Angeles Ground (West): 121.400

KLAX Ground (South) (Archives)
Los Angeles, California, United States

Feed Status: UP
Listen in your browser - HTML5 player(in browser, HTML5)
Click here to listen with your own player(launches your MP3 player)

KLAX 121653Z 16005KT 7SM FEW009 OVC015 14/10 A2990 RMK AO2 SLP123 T01390100 $

KLAX Airport Info (Airnav.com)

KLAX Flight Activity (Flightaware)

Listeners: 8 out of 3094 total

Los Angeles Ground (South Complex): 121.750
Los Angeles Ground (West): 121.400

KLAX SFRA (Archives)
Los Angeles, California, United States

Feed Status: UP
Listen in your browser - HTML5 player(in browser, HTML5)
Click here to listen with your own player(launches your MP3 player)

KLAX 121653Z 16005KT 7SM FEW009 OVC015 14/10 A2990 RMK AO2 SLP123 T01390100 $

KLAX Airport Info (Airnav.com)

KLAX Flight Activity (Flightaware)

Listeners: 2 out of 3094 total

LAX SFRA (Special Rules Flight Area aka VFR Corridor): 128.550

KLAX Tower (Helicopters) #1 (Archives)
Los Angeles, California, United States

Feed Status: UP
Listen in your browser - HTML5 player(in browser, HTML5)
Click here to listen with your own player(launches your MP3 player)

KLAX 121653Z 16005KT 7SM FEW009 OVC015 14/10 A2990 RMK AO2 SLP123 T01390100 $

KLAX Airport Info (Airnav.com)

KLAX Flight Activity (Flightaware)

Listeners: 1 out of 3094 total

Los Angles Tower (Helicopters): 119.800

KLAX Tower (North) #1 (Archives)
Los Angeles, California, United States

Feed Status: UP
Listen in your browser - HTML5 player(in browser, HTML5)
Click here to listen with your own player(launches your MP3 player)

KLAX 121653Z 16005KT 7SM FEW009 OVC015 14/10 A2990 RMK AO2 SLP123 T01390100 $

KLAX Airport Info (Airnav.com)

KLAX Flight Activity (Flightaware)

Listeners: 9 out of 3094 total

Los Angeles Tower (North): 133.900

KLAX Tower (North/South) #1 (Archives)
Los Angeles, California, United States

Feed Status: UP
Listen in your browser - HTML5 player(in browser, HTML5)
Click here to listen with your own player(launches your MP3 player)

KLAX 121653Z 16005KT 7SM FEW009 OVC015 14/10 A2990 RMK AO2 SLP123 T01390100 $

KLAX Airport Info (Airnav.com)

KLAX Flight Activity (Flightaware)

Listeners: 20 out of 3094 total

Los Angeles Tower (North): 133.900
Los Angeles Tower (South): 120.950
Los Angeles Tower (South): 119.800

KLAX Tower (South) #1 (Archives)
Los Angeles, California, United States

Feed Status: UP
Listen in your browser - HTML5 player(in browser, HTML5)
Click here to listen with your own player(launches your MP3 player)

KLAX 121653Z 16005KT 7SM FEW009 OVC015 14/10 A2990 RMK AO2 SLP123 T01390100 $

KLAX Airport Info (Airnav.com)

KLAX Flight Activity (Flightaware)

Listeners: 9 out of 3094 total

Los Angeles Tower (South): 120.950
Los Angeles Tower (South): 119.800

SOCAL Dep (Malibu Sector W/NW Dep) #1 (Archives)
Los Angeles, California, United States

Feed Status: UP
Listen in your browser - HTML5 player(in browser, HTML5)
Click here to listen with your own player(launches your MP3 player)

KLAX 121653Z 16005KT 7SM FEW009 OVC015 14/10 A2990 RMK AO2 SLP123 T01390100 $

KLAX Airport Info (Airnav.com)

KLAX Flight Activity (Flightaware)

Listeners: 1 out of 3094 total

SOCAL Departure (Malibu Sector - LAX West/NW Departures, SMO Departures) : 125.200

SOCAL Dep (Manhattan Sector SW-NE) #1 (Archives)
Los Angeles, California, United States

Feed Status: UP
Listen in your browser - HTML5 player(in browser, HTML5)
Click here to listen with your own player(launches your MP3 player)

KLAX 121653Z 16005KT 7SM FEW009 OVC015 14/10 A2990 RMK AO2 SLP123 T01390100 $

KLAX Airport Info (Airnav.com)

KLAX Flight Activity (Flightaware)

Listeners: 0 out of 3094 total

SOCAL Departure (Manhattan Sector) SW-NE: 124.300

KLEE App/Dep (Archives)
Leesburg, Florida, United States

Feed Status: UP
Listen in your browser - HTML5 player(in browser, HTML5)
Click here to listen with your own player(launches your MP3 player)

KLEE 121653Z 28013G20KT 10SM CLR 24/12 A3014 RMK AO2 SLP204 T02390117

KLEE Airport Info (Airnav.com)

KLEE Flight Activity (Flightaware)

Listeners: 0 out of 3094 total

Orlando Approach: 135.300
Orlando Approach: 120.225

KLGA ATIS (Archives)
New York, New York, United States

Feed Status: UP
Listen in your browser - HTML5 player(in browser, HTML5)
Click here to listen with your own player(launches your MP3 player)

KLGA 121651Z 19014G26KT 5SM -RA SCT007 BKN024CB OVC039 15/11 A2931 RMK AO2 PK WND 17026/1642 RAB49 SLP924 CB OHD MOV NE P0000 T01500111

KLGA Airport Info (Airnav.com)

KLGA Flight Activity (Flightaware)

Listeners: 1 out of 3094 total

LaGuardia ATIS: 127.050

KLGA Clearance Delivery (Archives)
New York, New York, United States

Feed Status: UP
Listen in your browser - HTML5 player(in browser, HTML5)
Click here to listen with your own player(launches your MP3 player)

KLGA 121651Z 19014G26KT 5SM -RA SCT007 BKN024CB OVC039 15/11 A2931 RMK AO2 PK WND 17026/1642 RAB49 SLP924 CB OHD MOV NE P0000 T01500111

KLGA Airport Info (Airnav.com)

KLGA Flight Activity (Flightaware)

Listeners: 0 out of 3094 total

LaGuardia Clearance Delivery: 135.200

KLGA Del/ARINC/TCA (Archives)
New York, New York, United States

Feed Status: UP
Listen in your browser - HTML5 player(in browser, HTML5)
Click here to listen with your own player(launches your MP3 player)

KLGA 121651Z 19014G26KT 5SM -RA SCT007 BKN024CB OVC039 15/11 A2931 RMK AO2 PK WND 17026/1642 RAB49 SLP924 CB OHD MOV NE P0000 T01500111

KLGA Airport Info (Airnav.com)

KLGA Flight Activity (Flightaware)

Listeners: 0 out of 3094 total

ARINC: 129.400
LaGuardia Clearance Delivery: 135.200
LaGuardia Clearance Delivery (Helicopters): 121.875
LaGuardia Tower (TCA): 126.050

KLGA Ground #1 (Archives)
New York, New York, United States

Feed Status: UP
Listen in your browser - HTML5 player(in browser, HTML5)
Click here to listen with your own player(launches your MP3 player)

KLGA 121651Z 19014G26KT 5SM -RA SCT007 BKN024CB OVC039 15/11 A2931 RMK AO2 PK WND 17026/1642 RAB49 SLP924 CB OHD MOV NE P0000 T01500111

KLGA Airport Info (Airnav.com)

KLGA Flight Activity (Flightaware)

Listeners: 4 out of 3094 total

LaGuardia Ground: 121.700
LaGuardia Ground: 121.850
LaGuardia Ground: 127.675

KLGA Ground #2 (Archives)
New York, New York, United States

Feed Status: UP
Listen in your browser - HTML5 player(in browser, HTML5)
Click here to listen with your own player(launches your MP3 player)

KLGA 121651Z 19014G26KT 5SM -RA SCT007 BKN024CB OVC039 15/11 A2931 RMK AO2 PK WND 17026/1642 RAB49 SLP924 CB OHD MOV NE P0000 T01500111

KLGA Airport Info (Airnav.com)

KLGA Flight Activity (Flightaware)

Listeners: 0 out of 3094 total

LaGuardia Ground: 121.700

KLGA NY App (EMPYR) (Archives)
New York, New York, United States

Feed Status: UP
Listen in your browser - HTML5 player(in browser, HTML5)
Click here to listen with your own player(launches your MP3 player)

KEWR 121651Z 26013G22KT 10SM -RA SCT007 SCT025 OVC037 14/12 A2933 RMK AO2 PK WND 28040/1620 WSHFT 1614 LTG DSNT N RAB17 SLP931 P0009 T01440117

KEWR Airport Info (Airnav.com)

KEWR Flight Activity (Flightaware)

Listeners: 0 out of 3094 total

New York Approach (EMPYR Sector): 127.300

KLGA NY App (Final) #2 (Archives)
New York, New York, United States

Feed Status: UP
Listen in your browser - HTML5 player(in browser, HTML5)
Click here to listen with your own player(launches your MP3 player)

KLGA 121651Z 19014G26KT 5SM -RA SCT007 BKN024CB OVC039 15/11 A2931 RMK AO2 PK WND 17026/1642 RAB49 SLP924 CB OHD MOV NE P0000 T01500111

KLGA Airport Info (Airnav.com)

KLGA Flight Activity (Flightaware)

Listeners: 0 out of 3094 total

New York Approach (LGA Final): 134.900

KLGA NY App (HAARP) #1 (Archives)
New York, New York, United States

Feed Status: UP
Listen in your browser - HTML5 player(in browser, HTML5)
Click here to listen with your own player(launches your MP3 player)

KLGA 121651Z 19014G26KT 5SM -RA SCT007 BKN024CB OVC039 15/11 A2931 RMK AO2 PK WND 17026/1642 RAB49 SLP924 CB OHD MOV NE P0000 T01500111

KLGA Airport Info (Airnav.com)

KLGA Flight Activity (Flightaware)

Listeners: 1 out of 3094 total

New York Approach: 124.950
New York Approach (HAARP Sector): 120.800
New York Approach (HAARP Sector): 124.650

KLGA NY App (HAARP) #2 (Archives)
New York, New York, United States

Feed Status: UP
Listen in your browser - HTML5 player(in browser, HTML5)
Click here to listen with your own player(launches your MP3 player)

KLGA 121651Z 19014G26KT 5SM -RA SCT007 BKN024CB OVC039 15/11 A2931 RMK AO2 PK WND 17026/1642 RAB49 SLP924 CB OHD MOV NE P0000 T01500111

KLGA Airport Info (Airnav.com)

KLGA Flight Activity (Flightaware)

Listeners: 0 out of 3094 total

New York Approach (HAARP Sector): 120.800

KLGA NY Dep (Archives)
New York, New York, United States

Feed Status: UP
Listen in your browser - HTML5 player(in browser, HTML5)
Click here to listen with your own player(launches your MP3 player)

KLGA 121651Z 19014G26KT 5SM -RA SCT007 BKN024CB OVC039 15/11 A2931 RMK AO2 PK WND 17026/1642 RAB49 SLP924 CB OHD MOV NE P0000 T01500111

KLGA Airport Info (Airnav.com)

KLGA Flight Activity (Flightaware)

Listeners: 0 out of 3094 total

New York Departure (LGA): 120.400

KLGA NY Dep 135.35 (Archives)
New York, New York, United States

Feed Status: UP
Listen in your browser - HTML5 player(in browser, HTML5)
Click here to listen with your own player(launches your MP3 player)

KLGA 121651Z 19014G26KT 5SM -RA SCT007 BKN024CB OVC039 15/11 A2931 RMK AO2 PK WND 17026/1642 RAB49 SLP924 CB OHD MOV NE P0000 T01500111

KLGA Airport Info (Airnav.com)

KLGA Flight Activity (Flightaware)

Listeners: 0 out of 3094 total

New York Departure (LGA): 135.350

KLGA Tower #1 (Archives)
New York, New York, United States

Feed Status: UP
Listen in your browser - HTML5 player(in browser, HTML5)
Click here to listen with your own player(launches your MP3 player)

KLGA 121651Z 19014G26KT 5SM -RA SCT007 BKN024CB OVC039 15/11 A2931 RMK AO2 PK WND 17026/1642 RAB49 SLP924 CB OHD MOV NE P0000 T01500111

KLGA Airport Info (Airnav.com)

KLGA Flight Activity (Flightaware)

Listeners: 4 out of 3094 total

LaGuardia Tower: 118.700

KLGA Tower #2 (Archives)
New York, New York, United States

Feed Status: UP
Listen in your browser - HTML5 player(in browser, HTML5)
Click here to listen with your own player(launches your MP3 player)

KLGA 121651Z 19014G26KT 5SM -RA SCT007 BKN024CB OVC039 15/11 A2931 RMK AO2 PK WND 17026/1642 RAB49 SLP924 CB OHD MOV NE P0000 T01500111

KLGA Airport Info (Airnav.com)

KLGA Flight Activity (Flightaware)

Listeners: 0 out of 3094 total

LaGuardia Tower: 118.700

KLGA Tower (TCA/Heli) (Archives)
New York, New York, United States

Feed Status: UP
Listen in your browser - HTML5 player(in browser, HTML5)
Click here to listen with your own player(launches your MP3 player)

KLGA 121651Z 19014G26KT 5SM -RA SCT007 BKN024CB OVC039 15/11 A2931 RMK AO2 PK WND 17026/1642 RAB49 SLP924 CB OHD MOV NE P0000 T01500111

KLGA Airport Info (Airnav.com)

KLGA Flight Activity (Flightaware)

Listeners: 1 out of 3094 total

LaGuardia Tower (TCA/Heli): 126.050

NY Dep (Liberty North) #1 (Archives)
New York, New York, United States

Feed Status: UP
Listen in your browser - HTML5 player(in browser, HTML5)
Click here to listen with your own player(launches your MP3 player)

KHPN 121656Z 16011G17KT 3/4SM R16/P6000FT BR VV002 13/12 A2930 RMK AO2 LTG DSNT W SLP920 T01330122

KHPN Airport Info (Airnav.com)

KHPN Flight Activity (Flightaware)

Listeners: 0 out of 3094 total

New York Departure (Liberty/North): 118.175

NY Dep (Liberty North) #2 (Archives)
New York, New York, United States

Feed Status: UP
Listen in your browser - HTML5 player(in browser, HTML5)
Click here to listen with your own player(launches your MP3 player)


Listeners: 1 out of 3094 total

New York Departure (Liberty/North): 118.175

Atlanta App/Dep (SAT-P) (Archives)
Lawrenceville, Georgia, United States

Feed Status: UP
Listen in your browser - HTML5 player(in browser, HTML5)
Click here to listen with your own player(launches your MP3 player)

KLZU 121656Z 25019G27KT 10SM CLR 18/M01 A2996 RMK AO2 PK WND 26029/1645 SLP153 T01781006

KLZU Airport Info (Airnav.com)

KLZU Flight Activity (Flightaware)

Listeners: 0 out of 3094 total

Atlanta Approach/Departure (SAT-P): 126.975

KMCI App/Dep (Archives)
Kansas City, Missouri, United States

Feed Status: UP
Listen in your browser - HTML5 player(in browser, HTML5)
Click here to listen with your own player(launches your MP3 player)

KMCI 121653Z 33011G18KT 10SM CLR 16/01 A3018 RMK AO2 SLP218 T01610011

KMCI Airport Info (Airnav.com)

KMCI Flight Activity (Flightaware)

Listeners: 2 out of 3094 total

Kanasa City Approach: 118.900
Kansas City Approach: 118.400
Kansas City Approach (Primary): 120.950
Kansas City Departure (010-190): 123.950
Kansas City Departure (191-009): 124.700

KMCI Del/Gnd/Twr (Archives)
Kansas City, Missouri, United States

Feed Status: UP
Listen in your browser - HTML5 player(in browser, HTML5)
Click here to listen with your own player(launches your MP3 player)

KMCI 121653Z 33011G18KT 10SM CLR 16/01 A3018 RMK AO2 SLP218 T01610011

KMCI Airport Info (Airnav.com)

KMCI Flight Activity (Flightaware)

Listeners: 1 out of 3094 total

KMCI Clearance Delivery: 135.700
KMCI Ground: 121.650
KMCI Ground: 121.800
KMCI Tower: 125.750
KMCI Tower (Primary): 128.200
KMCI UNICOM: 122.950

KMCI Del/Gnd/Twr/App (Archives)
Kansas City, Missouri, United States

Feed Status: UP
Listen in your browser - HTML5 player(in browser, HTML5)
Click here to listen with your own player(launches your MP3 player)

KMCI 121653Z 33011G18KT 10SM CLR 16/01 A3018 RMK AO2 SLP218 T01610011

KMCI Airport Info (Airnav.com)

KMCI Flight Activity (Flightaware)

Listeners: 1 out of 3094 total

Kanasa City Approach (Primary): 120.950
Kansas City Approach: 118.400
Kansas City Approach: 118.900
Kansas City Departure (010-190): 123.950
Kansas City Departure (191-009): 124.700
KMCI Clearance Delivery: 135.700
KMCI Ground: 121.650
KMCI Ground: 121.800
KMCI Tower: 125.750
KMCI Tower (Primary): 128.200
KMCI UNICOM: 122.950

KMCO App/Dep (120.15) (Archives)
Orlando, Florida, United States

Feed Status: UP
Listen in your browser - HTML5 player(in browser, HTML5)
Click here to listen with your own player(launches your MP3 player)

KORL 121653Z 27014G23KT 10SM CLR 24/09 A3013 RMK AO2 SLP205 T02440094

KORL Airport Info (Airnav.com)

KORL Flight Activity (Flightaware)

Listeners: 3 out of 3094 total

Orlando Departure (West): 120.150

KMCO App/Dep (124.8) (Archives)
Orlando, Florida, United States

Feed Status: UP
Listen in your browser - HTML5 player(in browser, HTML5)
Click here to listen with your own player(launches your MP3 player)

KORL 121653Z 27014G23KT 10SM CLR 24/09 A3013 RMK AO2 SLP205 T02440094

KORL Airport Info (Airnav.com)

KORL Flight Activity (Flightaware)

Listeners: 0 out of 3094 total

Orlando Approach (000-180deg >5,500 feet/Jaguar/McCoy Departures): 124.800

KMCO App/Dep (128.375) (Archives)
Orlando, Florida, United States

Feed Status: UP
Listen in your browser - HTML5 player(in browser, HTML5)
Click here to listen with your own player(launches your MP3 player)

KORL 121653Z 27014G23KT 10SM CLR 24/09 A3013 RMK AO2 SLP205 T02440094

KORL Airport Info (Airnav.com)

KORL Flight Activity (Flightaware)

Listeners: 1 out of 3094 total

Orlando Approach: 128.375

KMCO App/Dep (Disney Sector) (Archives)
Orlando, Florida, United States

Feed Status: UP
Listen in your browser - HTML5 player(in browser, HTML5)
Click here to listen with your own player(launches your MP3 player)

KORL 121653Z 27014G23KT 10SM CLR 24/09 A3013 RMK AO2 SLP205 T02440094

KORL Airport Info (Airnav.com)

KORL Flight Activity (Flightaware)

Listeners: 1 out of 3094 total

Orlando Approach (Disney Satellite Sector): 119.400

KMCO App/Dep (North Satellite) (Archives)
Orlando, Florida, United States

Feed Status: UP
Listen in your browser - HTML5 player(in browser, HTML5)
Click here to listen with your own player(launches your MP3 player)

KORL 121653Z 27014G23KT 10SM CLR 24/09 A3013 RMK AO2 SLP205 T02440094

KORL Airport Info (Airnav.com)

KORL Flight Activity (Flightaware)

Listeners: 1 out of 3094 total

Orlando Approach (North Satellite): 135.300

KMCO App/Dep (OVIDO Sector) (Archives)
Orlando, Florida, United States

Feed Status: UP
Listen in your browser - HTML5 player(in browser, HTML5)
Click here to listen with your own player(launches your MP3 player)

KORL 121653Z 27014G23KT 10SM CLR 24/09 A3013 RMK AO2 SLP205 T02440094

KORL Airport Info (Airnav.com)

KORL Flight Activity (Flightaware)

Listeners: 0 out of 3094 total

Orlando Approach (OVIDO Satellite Sector): 119.775

KMCO Approach (Final) (Archives)
Orlando, Florida, United States

Feed Status: UP
Listen in your browser - HTML5 player(in browser, HTML5)
Click here to listen with your own player(launches your MP3 player)

KORL 121653Z 27014G23KT 10SM CLR 24/09 A3013 RMK AO2 SLP205 T02440094

KORL Airport Info (Airnav.com)

KORL Flight Activity (Flightaware)

Listeners: 1 out of 3094 total

Orlando Approach (MCO Final): 127.750

KMCO Tower (West) #2 (Archives)
Orlando, Florida, United States

Feed Status: UP
Listen in your browser - HTML5 player(in browser, HTML5)
Click here to listen with your own player(launches your MP3 player)

KORL 121653Z 27014G23KT 10SM CLR 24/09 A3013 RMK AO2 SLP205 T02440094

KORL Airport Info (Airnav.com)

KORL Flight Activity (Flightaware)

Listeners: 2 out of 3094 total

Orlando Tower (West/Rwys 18L-36R, 18R-36L): 124.300

Chicago App/Dep (S. Sat Sector 1) (Archives)
Chicago, Illinois, United States

Feed Status: UP
Listen in your browser - HTML5 player(in browser, HTML5)
Click here to listen with your own player(launches your MP3 player)

KMDW 121653Z 31021G30KT 10SM BKN047 BKN100 BKN250 16/04 A2975 RMK AO2 PK WND 30034/1637 SLP073 T01610044 $

KMDW Airport Info (Airnav.com)

KMDW Flight Activity (Flightaware)

Listeners: 1 out of 3094 total

Chicago Approach/Departure (South Satellite Sector 1): 128.200

Chicago App/Dep (S. Sat Sector 2) (Archives)
Chicago, Illinois, United States

Feed Status: UP
Listen in your browser - HTML5 player(in browser, HTML5)
Click here to listen with your own player(launches your MP3 player)

KMDW 121653Z 31021G30KT 10SM BKN047 BKN100 BKN250 16/04 A2975 RMK AO2 PK WND 30034/1637 SLP073 T01610044 $

KMDW Airport Info (Airnav.com)

KMDW Flight Activity (Flightaware)

Listeners: 0 out of 3094 total

Chicago Approach/Departure (South Satellite Sector 2): 119.350

KMEM Approach (Archives)
Memphis, Tennessee, United States

Feed Status: UP
Listen in your browser - HTML5 player(in browser, HTML5)
Click here to listen with your own player(launches your MP3 player)

KMEM 121654Z 31017G25KT 10SM CLR 18/01 A3017 RMK AO2 PK WND 31031/1611 SLP216 T01830006 $

KMEM Airport Info (Airnav.com)

KMEM Flight Activity (Flightaware)

Listeners: 0 out of 3094 total

Emergency/Guard: 121.500
Memphis Approach (East): 125.800
Memphis Approach (West): 119.100
Memphis Departure (East): 124.150
Memphis Departure (West): 124.650

KMEM Emergency/Guard (Archives)
Memphis, Tennessee, United States

Feed Status: UP
Listen in your browser - HTML5 player(in browser, HTML5)
Click here to listen with your own player(launches your MP3 player)

KMEM 121654Z 31017G25KT 10SM CLR 18/01 A3017 RMK AO2 PK WND 31031/1611 SLP216 T01830006 $

KMEM Airport Info (Airnav.com)

KMEM Flight Activity (Flightaware)

Listeners: 0 out of 3094 total

Emergency/Guard: 121.500

KMEM Ground (All) (Archives)
Memphis, Tennessee, United States

Feed Status: UP
Listen in your browser - HTML5 player(in browser, HTML5)
Click here to listen with your own player(launches your MP3 player)

KMEM 121654Z 31017G25KT 10SM CLR 18/01 A3017 RMK AO2 PK WND 31031/1611 SLP216 T01830006 $

KMEM Airport Info (Airnav.com)

KMEM Flight Activity (Flightaware)

Listeners: 0 out of 3094 total

Memphis Ground (Rwy 18L/36R): 121.900
Memphis Ground (Rwy 18R/36L): 121.650
Memphis Ground (Rwy 9/27): 121.000

KMEM Ground (Rwy 09/27) (Archives)
Memphis, Tennessee, United States

Feed Status: UP
Listen in your browser - HTML5 player(in browser, HTML5)
Click here to listen with your own player(launches your MP3 player)

KMEM 121654Z 31017G25KT 10SM CLR 18/01 A3017 RMK AO2 PK WND 31031/1611 SLP216 T01830006 $

KMEM Airport Info (Airnav.com)

KMEM Flight Activity (Flightaware)

Listeners: 0 out of 3094 total

Memphis Ground (Rwy 9/27): 121.000

KMEM Ground (Rwy 18L/36R) (Archives)
Memphis, Tennessee, United States

Feed Status: UP
Listen in your browser - HTML5 player(in browser, HTML5)
Click here to listen with your own player(launches your MP3 player)

KMEM 121654Z 31017G25KT 10SM CLR 18/01 A3017 RMK AO2 PK WND 31031/1611 SLP216 T01830006 $

KMEM Airport Info (Airnav.com)

KMEM Flight Activity (Flightaware)

Listeners: 0 out of 3094 total

Memphis Ground (Rwy 18L/36R): 121.900

KMEM Ground (Rwy 18R/36L) (Archives)
Memphis, Tennessee, United States

Feed Status: UP
Listen in your browser - HTML5 player(in browser, HTML5)
Click here to listen with your own player(launches your MP3 player)

KMEM 121654Z 31017G25KT 10SM CLR 18/01 A3017 RMK AO2 PK WND 31031/1611 SLP216 T01830006 $

KMEM Airport Info (Airnav.com)

KMEM Flight Activity (Flightaware)

Listeners: 0 out of 3094 total

Memphis Ground (Rwy 18R/36L): 121.650

KMEM Tower (Archives)
Memphis, Tennessee, United States

Feed Status: UP
Listen in your browser - HTML5 player(in browser, HTML5)
Click here to listen with your own player(launches your MP3 player)

KMEM 121654Z 31017G25KT 10SM CLR 18/01 A3017 RMK AO2 PK WND 31031/1611 SLP216 T01830006 $

KMEM Airport Info (Airnav.com)

KMEM Flight Activity (Flightaware)

Listeners: 0 out of 3094 total

Memphis Tower (Rwy 18C/36C, 18L/36R): 119.700
Memphis Tower (Rwy 18R/36L): 128.425
Memphis Tower (Rwy 9/27): 118.300

Atlanta Approach (N. Sat) (Archives)
Marietta, Georgia, United States

Feed Status: UP
Listen in your browser - HTML5 player(in browser, HTML5)
Click here to listen with your own player(launches your MP3 player)

KRYY 121650Z 26019G29KT 10SM CLR 17/00 A3000 RMK AO2 PK WND 26032/1610 SLP153 T01720000 $

KRYY Airport Info (Airnav.com)

KRYY Flight Activity (Flightaware)

Listeners: 1 out of 3094 total

Atlanta Approach (North Satellite): 121.000

KMIA Approach #2
Miami, Florida, United States

Feed Status: DOWN
Offline since: 2024-04-12 16:38:05 UTC

KMIA 121653Z 29006KT 10SM FEW038 SCT300 27/14 A3013 RMK AO2 SLP203 T02670144

KMIA Airport Info (Airnav.com)

Miami Approach (KFLL Final): 133.725
Miami Approach (KFXE/KPMP): 119.700

KMIA Approach (KFLL) (Archives)
Miami, Florida, United States

Feed Status: UP
Listen in your browser - HTML5 player(in browser, HTML5)
Click here to listen with your own player(launches your MP3 player)

KMIA 121653Z 29006KT 10SM FEW038 SCT300 27/14 A3013 RMK AO2 SLP203 T02670144

KMIA Airport Info (Airnav.com)

KMIA Flight Activity (Flightaware)

Listeners: 0 out of 3094 total

Miami Approach (KFLL): 133.775

KMIA Approach (North Arr Backup) (Archives)
Miami, Florida, United States

Feed Status: UP
Listen in your browser - HTML5 player(in browser, HTML5)
Click here to listen with your own player(launches your MP3 player)

KMIA 121653Z 29006KT 10SM FEW038 SCT300 27/14 A3013 RMK AO2 SLP203 T02670144

KMIA Airport Info (Airnav.com)

KMIA Flight Activity (Flightaware)

Listeners: 0 out of 3094 total

Miami Approach (North arrivals backup): 125.750

KMIA Approach (North Arr) (Archives)
Miami, Florida, United States

Feed Status: UP
Listen in your browser - HTML5 player(in browser, HTML5)
Click here to listen with your own player(launches your MP3 player)

KMIA 121653Z 29006KT 10SM FEW038 SCT300 27/14 A3013 RMK AO2 SLP203 T02670144

KMIA Airport Info (Airnav.com)

KMIA Flight Activity (Flightaware)

Listeners: 1 out of 3094 total

Miami Approach (North Arrivals): 124.850

KMIA Approach (South Arr) (Archives)
Miami, Florida, United States

Feed Status: UP
Listen in your browser - HTML5 player(in browser, HTML5)
Click here to listen with your own player(launches your MP3 player)

KMIA 121653Z 29006KT 10SM FEW038 SCT300 27/14 A3013 RMK AO2 SLP203 T02670144

KMIA Airport Info (Airnav.com)

KMIA Flight Activity (Flightaware)

Listeners: 1 out of 3094 total

Miami Approach (South Arrivals): 120.500

KMIA ATIS (Arrival) (Archives)
Miami, Florida, United States

Feed Status: UP
Listen in your browser - HTML5 player(in browser, HTML5)
Click here to listen with your own player(launches your MP3 player)

KMIA 121653Z 29006KT 10SM FEW038 SCT300 27/14 A3013 RMK AO2 SLP203 T02670144

KMIA Airport Info (Airnav.com)

KMIA Flight Activity (Flightaware)

Listeners: 0 out of 3094 total

Miami Arrival ATIS: 119.150

KMIA ATIS (Departure) (Archives)
Miami, Florida, United States

Feed Status: UP
Listen in your browser - HTML5 player(in browser, HTML5)
Click here to listen with your own player(launches your MP3 player)

KMIA 121653Z 29006KT 10SM FEW038 SCT300 27/14 A3013 RMK AO2 SLP203 T02670144

KMIA Airport Info (Airnav.com)

KMIA Flight Activity (Flightaware)

Listeners: 0 out of 3094 total

Miami Departure ATIS: 133.675

KMIA Clearance Delivery (Archives)
Miami, Florida, United States

Feed Status: UP
Listen in your browser - HTML5 player(in browser, HTML5)
Click here to listen with your own player(launches your MP3 player)

KMIA 121653Z 29006KT 10SM FEW038 SCT300 27/14 A3013 RMK AO2 SLP203 T02670144

KMIA Airport Info (Airnav.com)

KMIA Flight Activity (Flightaware)

Listeners: 1 out of 3094 total

Miami Clearance Delivery: 135.350

KMIA Departure (North) (Archives)
Miami, Florida, United States

Feed Status: UP
Listen in your browser - HTML5 player(in browser, HTML5)
Click here to listen with your own player(launches your MP3 player)

KMIA 121653Z 29006KT 10SM FEW038 SCT300 27/14 A3013 RMK AO2 SLP203 T02670144

KMIA Airport Info (Airnav.com)

KMIA Flight Activity (Flightaware)

Listeners: 2 out of 3094 total

Miami Departure North (primary night freq): 119.450

KMIA Departure (South) (Archives)
Miami, Florida, United States

Feed Status: UP
Listen in your browser - HTML5 player(in browser, HTML5)
Click here to listen with your own player(launches your MP3 player)

KMIA 121653Z 29006KT 10SM FEW038 SCT300 27/14 A3013 RMK AO2 SLP203 T02670144

KMIA Airport Info (Airnav.com)

KMIA Flight Activity (Flightaware)

Listeners: 0 out of 3094 total

Miami Departure South: 125.500

KMIA Emergency/Guard (Archives)
Miami, Florida, United States

Feed Status: UP
Listen in your browser - HTML5 player(in browser, HTML5)
Click here to listen with your own player(launches your MP3 player)

KMIA 121653Z 29006KT 10SM FEW038 SCT300 27/14 A3013 RMK AO2 SLP203 T02670144

KMIA Airport Info (Airnav.com)

KMIA Flight Activity (Flightaware)

Listeners: 0 out of 3094 total

Emergency/Guard: 121.500

KMIA Gate Hold (Archives)
Miami, Florida, United States

Feed Status: UP
Listen in your browser - HTML5 player(in browser, HTML5)
Click here to listen with your own player(launches your MP3 player)

KMIA 121653Z 29006KT 10SM FEW038 SCT300 27/14 A3013 RMK AO2 SLP203 T02670144

KMIA Airport Info (Airnav.com)

KMIA Flight Activity (Flightaware)

Listeners: 0 out of 3094 total

KMIA Gate Hold: 120.350

KMIA Ground (8L/8R/12/26L/26R) (Archives)
Miami, Florida, United States

Feed Status: UP
Listen in your browser - HTML5 player(in browser, HTML5)
Click here to listen with your own player(launches your MP3 player)

KMIA 121653Z 29006KT 10SM FEW038 SCT300 27/14 A3013 RMK AO2 SLP203 T02670144

KMIA Airport Info (Airnav.com)

KMIA Flight Activity (Flightaware)

Listeners: 2 out of 3094 total

Miami Ground (Rwys 8L/8R/12/26L/26R): 121.800

KMIA Tower #2 (Archives)
Miami, Florida, United States

Feed Status: UP
Listen in your browser - HTML5 player(in browser, HTML5)
Click here to listen with your own player(launches your MP3 player)

KMIA 121653Z 29006KT 10SM FEW038 SCT300 27/14 A3013 RMK AO2 SLP203 T02670144

KMIA Airport Info (Airnav.com)

KMIA Flight Activity (Flightaware)

Listeners: 0 out of 3094 total

Miami Tower (North): 118.300
Miami Tower (South): 123.900

KMIA Tower (North) (Archives)
Miami, Florida, United States

Feed Status: UP
Listen in your browser - HTML5 player(in browser, HTML5)
Click here to listen with your own player(launches your MP3 player)

KMIA 121653Z 29006KT 10SM FEW038 SCT300 27/14 A3013 RMK AO2 SLP203 T02670144

KMIA Airport Info (Airnav.com)

KMIA Flight Activity (Flightaware)

Listeners: 4 out of 3094 total

Miami Tower (North): 118.300

KMIA Tower (South) (Archives)
Miami, Florida, United States

Feed Status: UP
Listen in your browser - HTML5 player(in browser, HTML5)
Click here to listen with your own player(launches your MP3 player)

KMIA 121653Z 29006KT 10SM FEW038 SCT300 27/14 A3013 RMK AO2 SLP203 T02670144

KMIA Airport Info (Airnav.com)

KMIA Flight Activity (Flightaware)

Listeners: 0 out of 3094 total

Miami Tower (South): 123.900

Miami FSS/Misc
Miami, Florida, United States

Feed Status: DOWN
Offline since: 2024-04-12 16:38:05 UTC

KMIA 121653Z 29006KT 10SM FEW038 SCT300 27/14 A3013 RMK AO2 SLP203 T02670144

KMIA Airport Info (Airnav.com)

Miami Flight Service Station (FSS): 122.400
Miami Flight Service Station (FSS): 122.600
Miami Flight Service Station (FSS): 123.650
Miami Flight Service Station (FSS): 122.550
Miami Flight Service Station (FSS): 126.900
Miami Flight Service Station (FSS): 126.700
Miami Flight Service Station (FSS): 122.300
Miami Flight Service Station (FSS): 122.650
Miami Flight Watch (High): 132.725
Miami Flight Watch (Low): 122.000
Misc Company Frequencies:

Miami FSS/Misc/App
Miami, Florida, United States

Feed Status: DOWN
Offline since: 2024-04-12 16:38:23 UTC

KMIA 121653Z 29006KT 10SM FEW038 SCT300 27/14 A3013 RMK AO2 SLP203 T02670144

KMIA Airport Info (Airnav.com)

Miami Approach (KFLL Final): 133.725
Miami Approach (KFXE/KPMP): 119.700
Miami Flight Service Station (FSS): 123.650
Miami Flight Service Station (FSS): 122.650
Miami Flight Service Station (FSS): 122.600
Miami Flight Service Station (FSS): 122.550
Miami Flight Service Station (FSS): 122.400
Miami Flight Service Station (FSS): 122.300
Miami Flight Watch (Low): 122.000
Misc Company Frequencies:

KMRB Potomac App/Dep (LUCKE) (Archives)
Martinsburg, West Virginia, United States

Feed Status: UP
Listen in your browser - HTML5 player(in browser, HTML5)
Click here to listen with your own player(launches your MP3 player)

KMRB 121653Z 25022G31KT 10SM BKN055 OVC070 15/05 A2947 RMK AO2 PK WND 28036/1557 SLP978 T01500050

KMRB Airport Info (Airnav.com)

KMRB Flight Activity (Flightaware)

Listeners: 0 out of 3094 total

Potomac Approach (LUCKE Sector): 126.825

Potomac App/Dep (BUFFR) (Archives)
Martinsburg, West Virginia, United States

Feed Status: UP
Listen in your browser - HTML5 player(in browser, HTML5)
Click here to listen with your own player(launches your MP3 player)

KMRB 121653Z 25022G31KT 10SM BKN055 OVC070 15/05 A2947 RMK AO2 PK WND 28036/1557 SLP978 T01500050

KMRB Airport Info (Airnav.com)

KMRB Flight Activity (Flightaware)

Listeners: 0 out of 3094 total

Potomac Approach (BUFFR Sector): 133.850

KMSP Approach (121.2) (Archives)
Minneapolis, Minnesota, United States

Feed Status: UP
Listen in your browser - HTML5 player(in browser, HTML5)
Click here to listen with your own player(launches your MP3 player)

KMSP 121653Z 32018G23KT 10SM FEW040 12/01 A3002 RMK AO2 PK WND 35027/1642 SLP168 T01220011

KMSP Airport Info (Airnav.com)

KMSP Flight Activity (Flightaware)

Listeners: 0 out of 3094 total

Minneapolis Approach: 121.200

KMSP Approach (Feeder North) (Archives)
Minneapolis, Minnesota, United States

Feed Status: UP
Listen in your browser - HTML5 player(in browser, HTML5)
Click here to listen with your own player(launches your MP3 player)

KMSP 121653Z 32018G23KT 10SM FEW040 12/01 A3002 RMK AO2 PK WND 35027/1642 SLP168 T01220011

KMSP Airport Info (Airnav.com)

KMSP Flight Activity (Flightaware)

Listeners: 0 out of 3094 total

Minneapolis Approach (Feeder North): 126.350

KMSP Approach (Feeder South) (Archives)
Minneapolis, Minnesota, United States

Feed Status: UP
Listen in your browser - HTML5 player(in browser, HTML5)
Click here to listen with your own player(launches your MP3 player)

KMSP 121653Z 32018G23KT 10SM FEW040 12/01 A3002 RMK AO2 PK WND 35027/1642 SLP168 T01220011

KMSP Airport Info (Airnav.com)

KMSP Flight Activity (Flightaware)

Listeners: 0 out of 3094 total

Minneapolis Approach (Feeder South): 135.475

KMSP Approach (North Low) (Archives)
Minneapolis, Minnesota, United States

Feed Status: UP
Listen in your browser - HTML5 player(in browser, HTML5)
Click here to listen with your own player(launches your MP3 player)

KMSP 121653Z 32018G23KT 10SM FEW040 12/01 A3002 RMK AO2 PK WND 35027/1642 SLP168 T01220011

KMSP Airport Info (Airnav.com)

KMSP Flight Activity (Flightaware)

Listeners: 1 out of 3094 total

Minneapolis Approach (North/Low <4500'): 126.500

KMSP Approach (North/East) (Archives)
Minneapolis, Minnesota, United States

Feed Status: UP
Listen in your browser - HTML5 player(in browser, HTML5)
Click here to listen with your own player(launches your MP3 player)

KMSP 121653Z 32018G23KT 10SM FEW040 12/01 A3002 RMK AO2 PK WND 35027/1642 SLP168 T01220011

KMSP Airport Info (Airnav.com)

KMSP Flight Activity (Flightaware)

Listeners: 0 out of 3094 total

Minneapolis Approach (North/East): 119.300

KMSP Approach (South/West) (Archives)
Minneapolis, Minnesota, United States

Feed Status: UP
Listen in your browser - HTML5 player(in browser, HTML5)
Click here to listen with your own player(launches your MP3 player)

KMSP 121653Z 32018G23KT 10SM FEW040 12/01 A3002 RMK AO2 PK WND 35027/1642 SLP168 T01220011

KMSP Airport Info (Airnav.com)

KMSP Flight Activity (Flightaware)

Listeners: 0 out of 3094 total

Minneapolis Approach (South/West): 126.950

KMSP ATIS (Arrival) (Archives)
Minneapolis, Minnesota, United States

Feed Status: UP
Listen in your browser - HTML5 player(in browser, HTML5)
Click here to listen with your own player(launches your MP3 player)

KMSP 121653Z 32018G23KT 10SM FEW040 12/01 A3002 RMK AO2 PK WND 35027/1642 SLP168 T01220011

KMSP Airport Info (Airnav.com)

KMSP Flight Activity (Flightaware)

Listeners: 0 out of 3094 total

Minneapolis ATIS (Arrival): 135.350

KMSP ATIS (Departure) (Archives)
Minneapolis, Minnesota, United States

Feed Status: UP
Listen in your browser - HTML5 player(in browser, HTML5)
Click here to listen with your own player(launches your MP3 player)

KMSP 121653Z 32018G23KT 10SM FEW040 12/01 A3002 RMK AO2 PK WND 35027/1642 SLP168 T01220011

KMSP Airport Info (Airnav.com)

KMSP Flight Activity (Flightaware)

Listeners: 0 out of 3094 total

Minneapolis ATIS (Departure): 120.800

KMSP Clearance Delivery (Archives)
Minneapolis, Minnesota, United States

Feed Status: UP
Listen in your browser - HTML5 player(in browser, HTML5)
Click here to listen with your own player(launches your MP3 player)

KMSP 121653Z 32018G23KT 10SM FEW040 12/01 A3002 RMK AO2 PK WND 35027/1642 SLP168 T01220011

KMSP Airport Info (Airnav.com)

KMSP Flight Activity (Flightaware)

Listeners: 0 out of 3094 total

Minneapolis Clearance Delivery: 133.200

KMSP Departure (North/East) (Archives)
Minneapolis, Minnesota, United States

Feed Status: UP
Listen in your browser - HTML5 player(in browser, HTML5)
Click here to listen with your own player(launches your MP3 player)

KMSP 121653Z 32018G23KT 10SM FEW040 12/01 A3002 RMK AO2 PK WND 35027/1642 SLP168 T01220011

KMSP Airport Info (Airnav.com)

KMSP Flight Activity (Flightaware)

Listeners: 2 out of 3094 total

Minneapolis Departure (North/East): 125.750

KMSP Departure (South/West) (Archives)
Minneapolis, Minnesota, United States

Feed Status: UP
Listen in your browser - HTML5 player(in browser, HTML5)
Click here to listen with your own player(launches your MP3 player)

KMSP 121653Z 32018G23KT 10SM FEW040 12/01 A3002 RMK AO2 PK WND 35027/1642 SLP168 T01220011

KMSP Airport Info (Airnav.com)

KMSP Flight Activity (Flightaware)

Listeners: 1 out of 3094 total

Minneapolis Departure (South/West): 124.700

KMSP Emergency/Guard (Archives)
Minneapolis, Minnesota, United States

Feed Status: UP
Listen in your browser - HTML5 player(in browser, HTML5)
Click here to listen with your own player(launches your MP3 player)

KMSP 121653Z 32018G23KT 10SM FEW040 12/01 A3002 RMK AO2 PK WND 35027/1642 SLP168 T01220011

KMSP Airport Info (Airnav.com)

KMSP Flight Activity (Flightaware)

Listeners: 0 out of 3094 total

Emergency/Guard: 121.500

KMSP Ground (North) (Archives)
Minneapolis, Minnesota, United States

Feed Status: UP
Listen in your browser - HTML5 player(in browser, HTML5)
Click here to listen with your own player(launches your MP3 player)

KMSP 121653Z 32018G23KT 10SM FEW040 12/01 A3002 RMK AO2 PK WND 35027/1642 SLP168 T01220011

KMSP Airport Info (Airnav.com)

KMSP Flight Activity (Flightaware)

Listeners: 0 out of 3094 total

Minneapolis Ground (North): 121.800

KMSP Ground (South) (Archives)
Minneapolis, Minnesota, United States

Feed Status: UP
Listen in your browser - HTML5 player(in browser, HTML5)
Click here to listen with your own player(launches your MP3 player)

KMSP 121653Z 32018G23KT 10SM FEW040 12/01 A3002 RMK AO2 PK WND 35027/1642 SLP168 T01220011

KMSP Airport Info (Airnav.com)

KMSP Flight Activity (Flightaware)

Listeners: 1 out of 3094 total

Minneapolis Ground (South): 121.900

KMSP Ground (West) (Archives)
Minneapolis, Minnesota, United States

Feed Status: UP
Listen in your browser - HTML5 player(in browser, HTML5)
Click here to listen with your own player(launches your MP3 player)

KMSP 121653Z 32018G23KT 10SM FEW040 12/01 A3002 RMK AO2 PK WND 35027/1642 SLP168 T01220011

KMSP Airport Info (Airnav.com)

KMSP Flight Activity (Flightaware)

Listeners: 0 out of 3094 total

Minneapolis Ground (West): 127.925

KMSP Metering (Archives)
Minneapolis, Minnesota, United States

Feed Status: UP
Listen in your browser - HTML5 player(in browser, HTML5)
Click here to listen with your own player(launches your MP3 player)

KMSP 121653Z 32018G23KT 10SM FEW040 12/01 A3002 RMK AO2 PK WND 35027/1642 SLP168 T01220011

KMSP Airport Info (Airnav.com)

KMSP Flight Activity (Flightaware)

Listeners: 1 out of 3094 total

Minneapolis Metering: 133.575

KMSP Tower (Rwy 12L/30R) (Archives)
Minneapolis, Minnesota, United States

Feed Status: UP
Listen in your browser - HTML5 player(in browser, HTML5)
Click here to listen with your own player(launches your MP3 player)

KMSP 121653Z 32018G23KT 10SM FEW040 12/01 A3002 RMK AO2 PK WND 35027/1642 SLP168 T01220011

KMSP Airport Info (Airnav.com)

KMSP Flight Activity (Flightaware)

Listeners: 1 out of 3094 total

Minneapolis Tower (Runway 12L/30R): 123.950

KMSP Tower (Rwy 17/35) (Archives)
Minneapolis, Minnesota, United States

Feed Status: UP
Listen in your browser - HTML5 player(in browser, HTML5)
Click here to listen with your own player(launches your MP3 player)

KMSP 121653Z 32018G23KT 10SM FEW040 12/01 A3002 RMK AO2 PK WND 35027/1642 SLP168 T01220011

KMSP Airport Info (Airnav.com)

KMSP Flight Activity (Flightaware)

Listeners: 1 out of 3094 total

Minneapolis Tower (Rwy 17/35): 123.675

KMSP Tower (Rwys 12R/30L,4/22) (Archives)
Minneapolis, Minnesota, United States

Feed Status: UP
Listen in your browser - HTML5 player(in browser, HTML5)
Click here to listen with your own player(launches your MP3 player)

KMSP 121653Z 32018G23KT 10SM FEW040 12/01 A3002 RMK AO2 PK WND 35027/1642 SLP168 T01220011

KMSP Airport Info (Airnav.com)

KMSP Flight Activity (Flightaware)

Listeners: 3 out of 3094 total

Minneapolis Tower (Runways 12R/30L, 4/22): 126.700

KMSY App/Dep (Archives)
New Orleans, Louisiana, United States

Feed Status: UP
Listen in your browser - HTML5 player(in browser, HTML5)
Click here to listen with your own player(launches your MP3 player)

KMSY 121653Z 32008KT 10SM FEW250 22/06 A3026 RMK AO2 SLP251 T02170056

KMSY Airport Info (Airnav.com)

KMSY Flight Activity (Flightaware)

Listeners: 3 out of 3094 total

New Orleans Approach (Final/Spare): 120.100
New Orleans Approach (North-East): 133.150
New Orleans Approach (SE-South): 123.850
New Orleans Approach (West): 125.500

KMSY Del/Gnd (Archives)
New Orleans, Louisiana, United States

Feed Status: UP
Listen in your browser - HTML5 player(in browser, HTML5)
Click here to listen with your own player(launches your MP3 player)

KMSY 121653Z 32008KT 10SM FEW250 22/06 A3026 RMK AO2 SLP251 T02170056

KMSY Airport Info (Airnav.com)

KMSY Flight Activity (Flightaware)

Listeners: 0 out of 3094 total

New Orleans Clearance Delivery: 127.200
New Orleans Ground: 121.900

KMSY Tower (Archives)
New Orleans, Louisiana, United States

Feed Status: UP
Listen in your browser - HTML5 player(in browser, HTML5)
Click here to listen with your own player(launches your MP3 player)

KMSY 121653Z 32008KT 10SM FEW250 22/06 A3026 RMK AO2 SLP251 T02170056

KMSY Airport Info (Airnav.com)

KMSY Flight Activity (Flightaware)

Listeners: 0 out of 3094 total

Emergency/Guard: 121.500
New Orleans Tower: 119.500

KORD App (10R/28C) (Archives)
Chicago, Illinois, United States

Feed Status: UP
Listen in your browser - HTML5 player(in browser, HTML5)
Click here to listen with your own player(launches your MP3 player)

KORD 121651Z 32017G34KT 10SM SCT048 SCT250 16/04 A2974 RMK AO2 PK WND 32034/1645 SLP072 T01610044

KORD Airport Info (Airnav.com)

KORD Flight Activity (Flightaware)

Listeners: 7 out of 3094 total

Chicago Approach (NW Feeder): 135.075
Chicago Approach (SE Feeder) : 118.925
Chicago Approach (W Arrival): 133.625

KORD App (10R/28C) #2 (Archives)
Chicago, Illinois, United States

Feed Status: UP
Listen in your browser - HTML5 player(in browser, HTML5)
Click here to listen with your own player(launches your MP3 player)

KORD 121651Z 32017G34KT 10SM SCT048 SCT250 16/04 A2974 RMK AO2 PK WND 32034/1645 SLP072 T01610044

KORD Airport Info (Airnav.com)

KORD Flight Activity (Flightaware)

Listeners: 1 out of 3094 total

Chicago Approach (W Arrival): 133.625

KORD App (27L/09R/10C) (Archives)
Chicago, Illinois, United States

Feed Status: UP
Listen in your browser - HTML5 player(in browser, HTML5)
Click here to listen with your own player(launches your MP3 player)

KORD 121651Z 32017G34KT 10SM SCT048 SCT250 16/04 A2974 RMK AO2 PK WND 32034/1645 SLP072 T01610044

KORD Airport Info (Airnav.com)

KORD Flight Activity (Flightaware)

Listeners: 1 out of 3094 total

Chicago Approach (Z Arrival): 119.000

KORD App (27R/9L) (Archives)
Chicago, Illinois, United States

Feed Status: UP
Listen in your browser - HTML5 player(in browser, HTML5)
Click here to listen with your own player(launches your MP3 player)

KORD 121651Z 32017G34KT 10SM SCT048 SCT250 16/04 A2974 RMK AO2 PK WND 32034/1645 SLP072 T01610044

KORD Airport Info (Airnav.com)

KORD Flight Activity (Flightaware)

Listeners: 1 out of 3094 total

Chicago Approach (F Arrival): 124.350
Chicago Approach (NE Feeder): 125.700
Chicago Approach (SW Feeder): 135.025

KORD App (27R/9L) #2 (Archives)
Chicago, Illinois, United States

Feed Status: UP
Listen in your browser - HTML5 player(in browser, HTML5)
Click here to listen with your own player(launches your MP3 player)

KORD 121651Z 32017G34KT 10SM SCT048 SCT250 16/04 A2974 RMK AO2 PK WND 32034/1645 SLP072 T01610044

KORD Airport Info (Airnav.com)

KORD Flight Activity (Flightaware)

Listeners: 0 out of 3094 total

Chicago Approach (F Arrival): 124.350

KORD App (28C) (Archives)
Chicago, Illinois, United States

Feed Status: UP
Listen in your browser - HTML5 player(in browser, HTML5)
Click here to listen with your own player(launches your MP3 player)

KORD 121651Z 32017G34KT 10SM SCT048 SCT250 16/04 A2974 RMK AO2 PK WND 32034/1645 SLP072 T01610044

KORD Airport Info (Airnav.com)

KORD Flight Activity (Flightaware)

Listeners: 0 out of 3094 total

Chicago Approach: 132.175

KORD ATIS (Archives)
Chicago, Illinois, United States

Feed Status: UP
Listen in your browser - HTML5 player(in browser, HTML5)
Click here to listen with your own player(launches your MP3 player)

KORD 121651Z 32017G34KT 10SM SCT048 SCT250 16/04 A2974 RMK AO2 PK WND 32034/1645 SLP072 T01610044

KORD Airport Info (Airnav.com)

KORD Flight Activity (Flightaware)

Listeners: 0 out of 3094 total

O'Hare D-ATIS: 135.400

KORD Clearance/Metering (Archives)
Chicago, Illinois, United States

Feed Status: UP
Listen in your browser - HTML5 player(in browser, HTML5)
Click here to listen with your own player(launches your MP3 player)

KORD 121651Z 32017G34KT 10SM SCT048 SCT250 16/04 A2974 RMK AO2 PK WND 32034/1645 SLP072 T01610044

KORD Airport Info (Airnav.com)

KORD Flight Activity (Flightaware)

Listeners: 2 out of 3094 total

American Airlines Ramp: 131.875
O'Hare Clearance: 121.600
O'Hare Clearance: 119.250
O'Hare Concourse C: 129.075
O'Hare Concourse C: 128.900
O'Hare Concourse H & K: 129.675
O'Hare F Alley: 130.375
O'Hare H Alley: 128.975
O'Hare Ramp/Metering: 121.675
O'Hare Ramp/Metering (North/South): 131.300
O'Hare Y Alley Concourse E & F: 130.375

KORD Dep (125.0) #1 (Archives)
Chicago, Illinois, United States

Feed Status: UP
Listen in your browser - HTML5 player(in browser, HTML5)
Click here to listen with your own player(launches your MP3 player)

KORD 121651Z 32017G34KT 10SM SCT048 SCT250 16/04 A2974 RMK AO2 PK WND 32034/1645 SLP072 T01610044

KORD Airport Info (Airnav.com)

KORD Flight Activity (Flightaware)

Listeners: 0 out of 3094 total

Chicago Departure (East Departure): 125.000

KORD Dep (125.0) #2 (Archives)
Chicago, Illinois, United States

Feed Status: UP
Listen in your browser - HTML5 player(in browser, HTML5)
Click here to listen with your own player(launches your MP3 player)

KORD 121651Z 32017G34KT 10SM SCT048 SCT250 16/04 A2974 RMK AO2 PK WND 32034/1645 SLP072 T01610044

KORD Airport Info (Airnav.com)

KORD Flight Activity (Flightaware)

Listeners: 0 out of 3094 total

Chicago Departure (East Departure): 125.000

KORD Dep (125.4) (Archives)
Chicago, Illinois, United States

Feed Status: UP
Listen in your browser - HTML5 player(in browser, HTML5)
Click here to listen with your own player(launches your MP3 player)

KORD 121651Z 32017G34KT 10SM SCT048 SCT250 16/04 A2974 RMK AO2 PK WND 32034/1645 SLP072 T01610044

KORD Airport Info (Airnav.com)

KORD Flight Activity (Flightaware)

Listeners: 0 out of 3094 total

Chicago Departure (West): 125.400

KORD Departure (Archives)
Chicago, Illinois, United States

Feed Status: UP
Listen in your browser - HTML5 player(in browser, HTML5)
Click here to listen with your own player(launches your MP3 player)

KORD 121651Z 32017G34KT 10SM SCT048 SCT250 16/04 A2974 RMK AO2 PK WND 32034/1645 SLP072 T01610044

KORD Airport Info (Airnav.com)

KORD Flight Activity (Flightaware)

Listeners: 2 out of 3094 total

Chicago Departure (N/E Backup): 134.400
Chicago Departure (N/E/Loop, combined w/ 125.0): 118.275
Chicago Departure (South): 126.625
Chicago Departure (West): 125.400
Chicago Departure (West): 135.275

KORD Ground (Archives)
Chicago, Illinois, United States

Feed Status: UP
Listen in your browser - HTML5 player(in browser, HTML5)
Click here to listen with your own player(launches your MP3 player)

KORD 121651Z 32017G34KT 10SM SCT048 SCT250 16/04 A2974 RMK AO2 PK WND 32034/1645 SLP072 T01610044

KORD Airport Info (Airnav.com)

KORD Flight Activity (Flightaware)

Listeners: 1 out of 3094 total

O'Hare Ground (Center): 134.150
O'Hare Ground (Inbound): 121.900
O'Hare Ground (North Twr): 124.125
O'Hare Ground (Outbound): 121.750

KORD Ground (Inbound) (Archives)
Chicago, Illinois, United States

Feed Status: UP
Listen in your browser - HTML5 player(in browser, HTML5)
Click here to listen with your own player(launches your MP3 player)

KORD 121651Z 32017G34KT 10SM SCT048 SCT250 16/04 A2974 RMK AO2 PK WND 32034/1645 SLP072 T01610044

KORD Airport Info (Airnav.com)

KORD Flight Activity (Flightaware)

Listeners: 1 out of 3094 total

O'Hare Ground (Inbound): 121.900

KORD Ground (Outbound) (Archives)
Chicago, Illinois, United States

Feed Status: UP
Listen in your browser - HTML5 player(in browser, HTML5)
Click here to listen with your own player(launches your MP3 player)

KORD 121651Z 32017G34KT 10SM SCT048 SCT250 16/04 A2974 RMK AO2 PK WND 32034/1645 SLP072 T01610044

KORD Airport Info (Airnav.com)

KORD Flight Activity (Flightaware)

Listeners: 1 out of 3094 total

O'Hare Ground (Outbound): 121.750

KORD Tower (Archives)
Chicago, Illinois, United States

Feed Status: UP
Listen in your browser - HTML5 player(in browser, HTML5)
Click here to listen with your own player(launches your MP3 player)

KORD 121651Z 32017G34KT 10SM SCT048 SCT250 16/04 A2974 RMK AO2 PK WND 32034/1645 SLP072 T01610044

KORD Airport Info (Airnav.com)

KORD Flight Activity (Flightaware)

Listeners: 13 out of 3094 total

O'Hare Tower (Aux - Runway Switch): 118.450
O'Hare Tower (Aux): 127.925
O'Hare Tower (Center): 132.700
O'Hare Tower (Center): 121.150
O'Hare Tower (Emergency): 119.250
O'Hare Tower (North): 126.900
O'Hare Tower (North): 128.150
O'Hare Tower (South 10R/28L): 133.000
O'Hare Tower (South): 120.750

KORD Tower (Center) (Archives)
Chicago, Illinois, United States

Feed Status: UP
Listen in your browser - HTML5 player(in browser, HTML5)
Click here to listen with your own player(launches your MP3 player)

KORD 121651Z 32017G34KT 10SM SCT048 SCT250 16/04 A2974 RMK AO2 PK WND 32034/1645 SLP072 T01610044

KORD Airport Info (Airnav.com)

KORD Flight Activity (Flightaware)

Listeners: 2 out of 3094 total

O'Hare Tower (Center): 132.700
O'Hare Tower (Center): 121.150
O'Hare Tower (Center/Aux): 127.925

KORD Tower (Center) #2 (Archives)
Chicago, Illinois, United States

Feed Status: UP
Listen in your browser - HTML5 player(in browser, HTML5)
Click here to listen with your own player(launches your MP3 player)

KORD 121651Z 32017G34KT 10SM SCT048 SCT250 16/04 A2974 RMK AO2 PK WND 32034/1645 SLP072 T01610044

KORD Airport Info (Airnav.com)

KORD Flight Activity (Flightaware)

Listeners: 2 out of 3094 total

O'Hare Tower (Center): 132.700

KORD Tower (North) (Archives)
Chicago, Illinois, United States

Feed Status: UP
Listen in your browser - HTML5 player(in browser, HTML5)
Click here to listen with your own player(launches your MP3 player)

KORD 121651Z 32017G34KT 10SM SCT048 SCT250 16/04 A2974 RMK AO2 PK WND 32034/1645 SLP072 T01610044

KORD Airport Info (Airnav.com)

KORD Flight Activity (Flightaware)

Listeners: 1 out of 3094 total

O'Hare Tower (North): 128.150
O'Hare Tower (North): 126.900

KORD Tower (North) #2 (Archives)
Chicago, Illinois, United States

Feed Status: UP
Listen in your browser - HTML5 player(in browser, HTML5)
Click here to listen with your own player(launches your MP3 player)

KORD 121651Z 32017G34KT 10SM SCT048 SCT250 16/04 A2974 RMK AO2 PK WND 32034/1645 SLP072 T01610044

KORD Airport Info (Airnav.com)

KORD Flight Activity (Flightaware)

Listeners: 0 out of 3094 total

O'Hare Tower (North): 126.900

KORD Tower (South) (Archives)
Chicago, Illinois, United States

Feed Status: UP
Listen in your browser - HTML5 player(in browser, HTML5)
Click here to listen with your own player(launches your MP3 player)

KORD 121651Z 32017G34KT 10SM SCT048 SCT250 16/04 A2974 RMK AO2 PK WND 32034/1645 SLP072 T01610044

KORD Airport Info (Airnav.com)

KORD Flight Activity (Flightaware)

Listeners: 2 out of 3094 total

O'Hare Tower (South 10R/28L): 133.000
O'Hare Tower (South): 120.750

KORD Tower (South) #2 (Archives)
Chicago, Illinois, United States

Feed Status: UP
Listen in your browser - HTML5 player(in browser, HTML5)
Click here to listen with your own player(launches your MP3 player)

KORD 121651Z 32017G34KT 10SM SCT048 SCT250 16/04 A2974 RMK AO2 PK WND 32034/1645 SLP072 T01610044

KORD Airport Info (Airnav.com)

KORD Flight Activity (Flightaware)

Listeners: 0 out of 3094 total

O'Hare Tower (South): 120.750

KMCO App/Dep (Disney Sector) (Archives)
Orlando, Florida, United States

Feed Status: UP
Listen in your browser - HTML5 player(in browser, HTML5)
Click here to listen with your own player(launches your MP3 player)

KORL 121653Z 27014G23KT 10SM CLR 24/09 A3013 RMK AO2 SLP205 T02440094

KORL Airport Info (Airnav.com)

KORL Flight Activity (Flightaware)

Listeners: 1 out of 3094 total

Orlando Approach (Disney Satellite Sector): 119.400

KMCO App/Dep (Disney/OVIDO Sectors) #1 (Archives)
Orlando, Florida, United States

Feed Status: UP
Listen in your browser - HTML5 player(in browser, HTML5)
Click here to listen with your own player(launches your MP3 player)

KORL 121653Z 27014G23KT 10SM CLR 24/09 A3013 RMK AO2 SLP205 T02440094

KORL Airport Info (Airnav.com)

KORL Flight Activity (Flightaware)

Listeners: 0 out of 3094 total

Orlando Approach (Disney Satellite Sector): 119.400
Orlando Approach (OVIDO Satellite Sector): 119.775

KMCO App/Dep (Disney/OVIDO Sectors) #2 (Archives)
Orlando, Florida, United States

Feed Status: UP
Listen in your browser - HTML5 player(in browser, HTML5)
Click here to listen with your own player(launches your MP3 player)

KORL 121653Z 27014G23KT 10SM CLR 24/09 A3013 RMK AO2 SLP205 T02440094

KORL Airport Info (Airnav.com)

KORL Flight Activity (Flightaware)

Listeners: 0 out of 3094 total

Orlando Approach (Disney Satellite Sector): 119.400
Orlando Approach (OVIDO Satellite Sector): 119.775

KMCO App/Dep (North Satellite) (Archives)
Orlando, Florida, United States

Feed Status: UP
Listen in your browser - HTML5 player(in browser, HTML5)
Click here to listen with your own player(launches your MP3 player)

KORL 121653Z 27014G23KT 10SM CLR 24/09 A3013 RMK AO2 SLP205 T02440094

KORL Airport Info (Airnav.com)

KORL Flight Activity (Flightaware)

Listeners: 1 out of 3094 total

Orlando Approach (North Satellite): 135.300

KMCO App/Dep (OVIDO Sector) (Archives)
Orlando, Florida, United States

Feed Status: UP
Listen in your browser - HTML5 player(in browser, HTML5)
Click here to listen with your own player(launches your MP3 player)

KORL 121653Z 27014G23KT 10SM CLR 24/09 A3013 RMK AO2 SLP205 T02440094

KORL Airport Info (Airnav.com)

KORL Flight Activity (Flightaware)

Listeners: 0 out of 3094 total

Orlando Approach (OVIDO Satellite Sector): 119.775

Atlanta App/Dep (SAT-P) (Archives)
Atlanta, Georgia, United States

Feed Status: UP
Listen in your browser - HTML5 player(in browser, HTML5)
Click here to listen with your own player(launches your MP3 player)

KLZU 121656Z 25019G27KT 10SM CLR 18/M01 A2996 RMK AO2 PK WND 26029/1645 SLP153 T01781006

KLZU Airport Info (Airnav.com)

KLZU Flight Activity (Flightaware)

Listeners: 0 out of 3094 total

Atlanta Approach/Departure (SAT-P): 126.975

KPHL App (Final) (Archives)
Philadelphia, Pennsylvania, United States

Feed Status: UP
Listen in your browser - HTML5 player(in browser, HTML5)
Click here to listen with your own player(launches your MP3 player)

KPHL 121654Z 24016KT 10SM FEW018 BKN065 BKN095 BKN140 16/12 A2942 RMK AO2 PK WND 26031/1558 RAE45 SLP961 P0002 T01560117

KPHL Airport Info (Airnav.com)

KPHL Flight Activity (Flightaware)

Listeners: 0 out of 3094 total

Philly Approach (Final): 125.400
Philly Approach (Final2 - Landing Rwy 27L): 132.675

KPHL App (N. Arrival) #1 (Archives)
Philadelphia, Pennsylvania, United States

Feed Status: UP
Listen in your browser - HTML5 player(in browser, HTML5)
Click here to listen with your own player(launches your MP3 player)

KPHL 121654Z 24016KT 10SM FEW018 BKN065 BKN095 BKN140 16/12 A2942 RMK AO2 PK WND 26031/1558 RAE45 SLP961 P0002 T01560117

KPHL Airport Info (Airnav.com)

KPHL Flight Activity (Flightaware)

Listeners: 0 out of 3094 total

Philadelphia Approach (North Arrival) : 128.400

KPHL App (N. Arrival) #2 (Archives)
Philadelphia, Pennsylvania, United States

Feed Status: UP
Listen in your browser - HTML5 player(in browser, HTML5)
Click here to listen with your own player(launches your MP3 player)

KPHL 121654Z 24016KT 10SM FEW018 BKN065 BKN095 BKN140 16/12 A2942 RMK AO2 PK WND 26031/1558 RAE45 SLP961 P0002 T01560117

KPHL Airport Info (Airnav.com)

KPHL Flight Activity (Flightaware)

Listeners: 0 out of 3094 total

Philadelphia Approach (North Arrival) : 128.400

KPHL App (N/S Arrival) (Archives)
Philadelphia, Pennsylvania, United States

Feed Status: UP
Listen in your browser - HTML5 player(in browser, HTML5)
Click here to listen with your own player(launches your MP3 player)

KPHL 121654Z 24016KT 10SM FEW018 BKN065 BKN095 BKN140 16/12 A2942 RMK AO2 PK WND 26031/1558 RAE45 SLP961 P0002 T01560117

KPHL Airport Info (Airnav.com)

KPHL Flight Activity (Flightaware)

Listeners: 1 out of 3094 total

Philadelphia Approach (North Arrival) : 128.400
Philadelphia Approach (South Arrival): 133.875
Philly Approach (Woodstown - Rwy 35 Final) : 127.350

KPHL App (NW Pottstown Area) (Archives)
Philadelphia, Pennsylvania, United States

Feed Status: UP
Listen in your browser - HTML5 player(in browser, HTML5)
Click here to listen with your own player(launches your MP3 player)

KABE 121651Z 25017G28KT 10SM -RA BKN033 OVC044 13/08 A2936 RMK AO2 PK WND 23029/1641 RAE00B30 SLP941 P0000 T01330078

KABE Airport Info (Airnav.com)

KABE Flight Activity (Flightaware)

Listeners: 0 out of 3094 total

Philadelpha Approach (Pottstown - summer or Rwy 17 Final): 126.850

KPHL App (S. Arrival) #1 (Archives)
Philadelphia, Pennsylvania, United States

Feed Status: UP
Listen in your browser - HTML5 player(in browser, HTML5)
Click here to listen with your own player(launches your MP3 player)

KPHL 121654Z 24016KT 10SM FEW018 BKN065 BKN095 BKN140 16/12 A2942 RMK AO2 PK WND 26031/1558 RAE45 SLP961 P0002 T01560117

KPHL Airport Info (Airnav.com)

KPHL Flight Activity (Flightaware)

Listeners: 4 out of 3094 total

Philadelphia Approach (South Arrival): 133.875
Philly Approach (Woodstown - Rwy 35 Final) : 127.350

KPHL App (S. Arrival) #2 (Archives)
Philadelphia, Pennsylvania, United States

Feed Status: UP
Listen in your browser - HTML5 player(in browser, HTML5)
Click here to listen with your own player(launches your MP3 player)

KPHL 121654Z 24016KT 10SM FEW018 BKN065 BKN095 BKN140 16/12 A2942 RMK AO2 PK WND 26031/1558 RAE45 SLP961 P0002 T01560117

KPHL Airport Info (Airnav.com)

KPHL Flight Activity (Flightaware)

Listeners: 0 out of 3094 total

Philadelphia Approach (South Arrival): 133.875

KPHL App/Dep (South) (Archives)
Philadelphia, Pennsylvania, United States

Feed Status: UP
Listen in your browser - HTML5 player(in browser, HTML5)
Click here to listen with your own player(launches your MP3 player)

KPHL 121654Z 24016KT 10SM FEW018 BKN065 BKN095 BKN140 16/12 A2942 RMK AO2 PK WND 26031/1558 RAE45 SLP961 P0002 T01560117

KPHL Airport Info (Airnav.com)

KPHL Flight Activity (Flightaware)

Listeners: 0 out of 3094 total

Philly Approach/Departure (South): 119.750

KPHL ATIS (Arrival) (Archives)
Philadelphia, Pennsylvania, United States

Feed Status: UP
Listen in your browser - HTML5 player(in browser, HTML5)
Click here to listen with your own player(launches your MP3 player)

KPHL 121654Z 24016KT 10SM FEW018 BKN065 BKN095 BKN140 16/12 A2942 RMK AO2 PK WND 26031/1558 RAE45 SLP961 P0002 T01560117

KPHL Airport Info (Airnav.com)

KPHL Flight Activity (Flightaware)

Listeners: 0 out of 3094 total

Philadelphia ATIS (Arrival): 133.400

KPHL ATIS (Departure) (Archives)
Philadelphia, Pennsylvania, United States

Feed Status: UP
Listen in your browser - HTML5 player(in browser, HTML5)
Click here to listen with your own player(launches your MP3 player)

KPHL 121654Z 24016KT 10SM FEW018 BKN065 BKN095 BKN140 16/12 A2942 RMK AO2 PK WND 26031/1558 RAE45 SLP961 P0002 T01560117

KPHL Airport Info (Airnav.com)

KPHL Flight Activity (Flightaware)

Listeners: 0 out of 3094 total

Philadelphia ATIS (Departure): 135.925

KPHL Clearance Delivery (Archives)
Philadelphia, Pennsylvania, United States

Feed Status: UP
Listen in your browser - HTML5 player(in browser, HTML5)
Click here to listen with your own player(launches your MP3 player)

KPHL 121654Z 24016KT 10SM FEW018 BKN065 BKN095 BKN140 16/12 A2942 RMK AO2 PK WND 26031/1558 RAE45 SLP961 P0002 T01560117

KPHL Airport Info (Airnav.com)

KPHL Flight Activity (Flightaware)

Listeners: 0 out of 3094 total

Philly Clearance Delivery: 118.850

KPHL Dep (N. Departure) (Archives)
Philadelphia, Pennsylvania, United States

Feed Status: UP
Listen in your browser - HTML5 player(in browser, HTML5)
Click here to listen with your own player(launches your MP3 player)

KPHL 121654Z 24016KT 10SM FEW018 BKN065 BKN095 BKN140 16/12 A2942 RMK AO2 PK WND 26031/1558 RAE45 SLP961 P0002 T01560117

KPHL Airport Info (Airnav.com)

KPHL Flight Activity (Flightaware)

Listeners: 0 out of 3094 total

Philadelpha Approach (Pottstown - summer or Rwy 17 Final): 126.850
Philadelpha Approach (Yardley Sector, North Satellite): 123.800
Philadelphia Departure (North High Departure): 126.075
Philly Departure (North Departure): 124.350

KPHL Dep (N/S Dep) (Archives)
Philadelphia, Pennsylvania, United States

Feed Status: UP
Listen in your browser - HTML5 player(in browser, HTML5)
Click here to listen with your own player(launches your MP3 player)

KPHL 121654Z 24016KT 10SM FEW018 BKN065 BKN095 BKN140 16/12 A2942 RMK AO2 PK WND 26031/1558 RAE45 SLP961 P0002 T01560117

KPHL Airport Info (Airnav.com)

KPHL Flight Activity (Flightaware)

Listeners: 5 out of 3094 total

Philadelpha Approach (Pottstown - summer or Rwy 17 Final): 126.850
Philadelpha Approach (Yardley Sector, North Satellite): 123.800
Philadelphia Approach (Dupont): 118.350
Philadelphia Departure (North High Departure): 126.075
Philly Departure (North Departure): 124.350
Philly Departure (South Departure): 119.750

KPHL Dep (S. Departure) (Archives)
Philadelphia, Pennsylvania, United States

Feed Status: UP
Listen in your browser - HTML5 player(in browser, HTML5)
Click here to listen with your own player(launches your MP3 player)

KPHL 121654Z 24016KT 10SM FEW018 BKN065 BKN095 BKN140 16/12 A2942 RMK AO2 PK WND 26031/1558 RAE45 SLP961 P0002 T01560117

KPHL Airport Info (Airnav.com)

KPHL Flight Activity (Flightaware)

Listeners: 0 out of 3094 total

Philadelphia Approach (Dupont): 118.350
Philly Departure (South Departure): 119.750

KPHL Ground (Archives)
Philadelphia, Pennsylvania, United States

Feed Status: UP
Listen in your browser - HTML5 player(in browser, HTML5)
Click here to listen with your own player(launches your MP3 player)

KPHL 121654Z 24016KT 10SM FEW018 BKN065 BKN095 BKN140 16/12 A2942 RMK AO2 PK WND 26031/1558 RAE45 SLP961 P0002 T01560117

KPHL Airport Info (Airnav.com)

KPHL Flight Activity (Flightaware)

Listeners: 1 out of 3094 total

Philly Ground: 121.650
Philly Ground: 121.900

KPHL Ramp Control (Archives)
Philadelphia, Pennsylvania, United States

Feed Status: UP
Listen in your browser - HTML5 player(in browser, HTML5)
Click here to listen with your own player(launches your MP3 player)

KPHL 121654Z 24016KT 10SM FEW018 BKN065 BKN095 BKN140 16/12 A2942 RMK AO2 PK WND 26031/1558 RAE45 SLP961 P0002 T01560117

KPHL Airport Info (Airnav.com)

KPHL Flight Activity (Flightaware)

Listeners: 0 out of 3094 total

Ramp Control : 130.050

KPHL Tower (East) (Archives)
Philadelphia, Pennsylvania, United States

Feed Status: UP
Listen in your browser - HTML5 player(in browser, HTML5)
Click here to listen with your own player(launches your MP3 player)

KPHL 121654Z 24016KT 10SM FEW018 BKN065 BKN095 BKN140 16/12 A2942 RMK AO2 PK WND 26031/1558 RAE45 SLP961 P0002 T01560117

KPHL Airport Info (Airnav.com)

KPHL Flight Activity (Flightaware)

Listeners: 0 out of 3094 total

Philadelphia Tower (East): 118.500

KPHL Tower (East/West) (Archives)
Philadelphia, Pennsylvania, United States

Feed Status: UP
Listen in your browser - HTML5 player(in browser, HTML5)
Click here to listen with your own player(launches your MP3 player)

KPHL 121654Z 24016KT 10SM FEW018 BKN065 BKN095 BKN140 16/12 A2942 RMK AO2 PK WND 26031/1558 RAE45 SLP961 P0002 T01560117

KPHL Airport Info (Airnav.com)

KPHL Flight Activity (Flightaware)

Listeners: 1 out of 3094 total

Philadelphia Tower (East): 118.500
Philadelphia Tower (West): 135.100

KPHL Tower (West) (Archives)
Philadelphia, Pennsylvania, United States

Feed Status: UP
Listen in your browser - HTML5 player(in browser, HTML5)
Click here to listen with your own player(launches your MP3 player)

KPHL 121654Z 24016KT 10SM FEW018 BKN065 BKN095 BKN140 16/12 A2942 RMK AO2 PK WND 26031/1558 RAE45 SLP961 P0002 T01560117

KPHL Airport Info (Airnav.com)

KPHL Flight Activity (Flightaware)

Listeners: 1 out of 3094 total

Philadelphia Tower (West): 135.100

KPHX Approach (N/S)/S Final (Archives)
Phoenix, Arizona, United States

Feed Status: UP
Listen in your browser - HTML5 player(in browser, HTML5)
Click here to listen with your own player(launches your MP3 player)

KPHX 121651Z 14007KT 10SM CLR 27/M01 A2986 RMK AO2 SLP091 T02721006

KPHX Airport Info (Airnav.com)

KPHX Flight Activity (Flightaware)

Listeners: 0 out of 3094 total

Phoenix Approach (North Arrival): 128.650
Phoenix Approach (Rwy 7R/L/25L/R Final): 120.400
Phoenix Approach (South Arrival): 124.100

KPHX Approach (North Final) (Archives)
Phoenix, Arizona, United States

Feed Status: UP
Listen in your browser - HTML5 player(in browser, HTML5)
Click here to listen with your own player(launches your MP3 player)

KPHX 121651Z 14007KT 10SM CLR 27/M01 A2986 RMK AO2 SLP091 T02721006

KPHX Airport Info (Airnav.com)

KPHX Flight Activity (Flightaware)

Listeners: 1 out of 3094 total

Phoenix Approach (Rwy 8/26 Final): 126.600

KPHX Approach (Pima Sector) (Archives)
Phoenix, Arizona, United States

Feed Status: UP
Listen in your browser - HTML5 player(in browser, HTML5)
Click here to listen with your own player(launches your MP3 player)

KPHX 121651Z 14007KT 10SM CLR 27/M01 A2986 RMK AO2 SLP091 T02721006

KPHX Airport Info (Airnav.com)

KPHX Flight Activity (Flightaware)

Listeners: 0 out of 3094 total

Phoenix Approach (Pima Sector): 123.700

KPHX Approach (Pima/Willy Sectors) (Archives)
Phoenix, Arizona, United States

Feed Status: UP
Listen in your browser - HTML5 player(in browser, HTML5)
Click here to listen with your own player(launches your MP3 player)

KPHX 121651Z 14007KT 10SM CLR 27/M01 A2986 RMK AO2 SLP091 T02721006

KPHX Airport Info (Airnav.com)

KPHX Flight Activity (Flightaware)

Listeners: 1 out of 3094 total

Phoenix Approach (Pima Sector): 123.700
Phoenix Approach (Willy Sector): 124.900

KPHX Approach (SDL/Tempe/West) (Archives)
Phoenix, Arizona, United States

Feed Status: UP
Listen in your browser - HTML5 player(in browser, HTML5)
Click here to listen with your own player(launches your MP3 player)

KPHX 121651Z 14007KT 10SM CLR 27/M01 A2986 RMK AO2 SLP091 T02721006

KPHX Airport Info (Airnav.com)

KPHX Flight Activity (Flightaware)

Listeners: 0 out of 3094 total

Phoenix Approach (East Tempe Sector): 123.700
Phoenix Approach (North Biltmore Sector/KSDL): 120.700
Phoenix Approach (West): 134.250

KPHX Departure (Archives)
Phoenix, Arizona, United States

Feed Status: UP
Listen in your browser - HTML5 player(in browser, HTML5)
Click here to listen with your own player(launches your MP3 player)

KPHX 121651Z 14007KT 10SM CLR 27/M01 A2986 RMK AO2 SLP091 T02721006

KPHX Airport Info (Airnav.com)

KPHX Flight Activity (Flightaware)

Listeners: 1 out of 3094 total

Phoenix Departure (North): 119.200
Phoenix Departure (South): 126.800

KPHX Ground (North/Pri) (Archives)
Phoenix, Arizona, United States

Feed Status: UP
Listen in your browser - HTML5 player(in browser, HTML5)
Click here to listen with your own player(launches your MP3 player)

KPHX 121651Z 14007KT 10SM CLR 27/M01 A2986 RMK AO2 SLP091 T02721006

KPHX Airport Info (Airnav.com)

KPHX Flight Activity (Flightaware)

Listeners: 0 out of 3094 total

Phoenix Ground (North/Primary): 119.750

KPHX Ground (North/Sec) (Archives)
Phoenix, Arizona, United States

Feed Status: UP
Listen in your browser - HTML5 player(in browser, HTML5)
Click here to listen with your own player(launches your MP3 player)

KPHX 121651Z 14007KT 10SM CLR 27/M01 A2986 RMK AO2 SLP091 T02721006

KPHX Airport Info (Airnav.com)

KPHX Flight Activity (Flightaware)

Listeners: 0 out of 3094 total

Phoenix Ground (North/Secondary): 133.700

KPHX Ground (South) (Archives)
Phoenix, Arizona, United States

Feed Status: UP
Listen in your browser - HTML5 player(in browser, HTML5)
Click here to listen with your own player(launches your MP3 player)

KPHX 121651Z 14007KT 10SM CLR 27/M01 A2986 RMK AO2 SLP091 T02721006

KPHX Airport Info (Airnav.com)

KPHX Flight Activity (Flightaware)

Listeners: 0 out of 3094 total

Phoenix Ground (South): 132.550

KPHX Tower (Discrete/Emergency) (Archives)
Phoenix, Arizona, United States

Feed Status: UP
Listen in your browser - HTML5 player(in browser, HTML5)
Click here to listen with your own player(launches your MP3 player)

KPHX 121651Z 14007KT 10SM CLR 27/M01 A2986 RMK AO2 SLP091 T02721006

KPHX Airport Info (Airnav.com)

KPHX Flight Activity (Flightaware)

Listeners: 0 out of 3094 total

Phoenix Tower (Discrete/Emergency): 134.850

KPHX Tower (North) (Archives)
Phoenix, Arizona, United States

Feed Status: UP
Listen in your browser - HTML5 player(in browser, HTML5)
Click here to listen with your own player(launches your MP3 player)

KPHX 121651Z 14007KT 10SM CLR 27/M01 A2986 RMK AO2 SLP091 T02721006

KPHX Airport Info (Airnav.com)

KPHX Flight Activity (Flightaware)

Listeners: 0 out of 3094 total

Phoenix Tower (Rwy 8/26): 118.700

KPHX Tower (South) (Archives)
Phoenix, Arizona, United States

Feed Status: UP
Listen in your browser - HTML5 player(in browser, HTML5)
Click here to listen with your own player(launches your MP3 player)

KPHX 121651Z 14007KT 10SM CLR 27/M01 A2986 RMK AO2 SLP091 T02721006

KPHX Airport Info (Airnav.com)

KPHX Flight Activity (Flightaware)

Listeners: 2 out of 3094 total

Phoenix Tower (Rwys 7L/25R, 7R/25L): 120.900

KPIT App/Dep #1 (Archives)
Pittsburgh, Pennsylvania, United States

Feed Status: UP
Listen in your browser - HTML5 player(in browser, HTML5)
Click here to listen with your own player(launches your MP3 player)

KPIT 121651Z 24013G26KT 10SM -RA BKN023 OVC031 11/06 A2945 RMK AO2 PK WND 24031/1615 SLP979 P0000 T01060056

KPIT Airport Info (Airnav.com)

KPIT Flight Activity (Flightaware)

Listeners: 3 out of 3094 total

Pittsburgh Approach: 121.250
Pittsburgh Approach: 123.950
Pittsburgh Approach: 124.150
Pittsburgh Approach: 133.700
Pittsburgh Approach: 120.875
Pittsburgh Departure: 119.350
Pittsburgh Departure: 124.750
Pittsburgh Departure: 125.275

KPIT ATIS (Archives)
Pittsburgh, Pennsylvania, United States

Feed Status: UP
Listen in your browser - HTML5 player(in browser, HTML5)
Click here to listen with your own player(launches your MP3 player)

KPIT 121651Z 24013G26KT 10SM -RA BKN023 OVC031 11/06 A2945 RMK AO2 PK WND 24031/1615 SLP979 P0000 T01060056

KPIT Airport Info (Airnav.com)

KPIT Flight Activity (Flightaware)

Listeners: 0 out of 3094 total

Pittsburgh ATIS: 127.250

KPIT Del/Gnd/Ramp #1 (Archives)
Pittsburgh, Pennsylvania, United States

Feed Status: UP
Listen in your browser - HTML5 player(in browser, HTML5)
Click here to listen with your own player(launches your MP3 player)

KPIT 121651Z 24013G26KT 10SM -RA BKN023 OVC031 11/06 A2945 RMK AO2 PK WND 24031/1615 SLP979 P0000 T01060056

KPIT Airport Info (Airnav.com)

KPIT Flight Activity (Flightaware)

Listeners: 0 out of 3094 total

Pittsburgh Clearance Delivery: 126.750
Pittsburgh Ground (North): 127.800
Pittsburgh Ground (South): 121.900
Pittsburgh Ramp (North): 130.775
Pittsburgh Ramp (South): 131.375

KPIT Del/Gnd/Ramp #2 (Archives)
Pittsburgh, Pennsylvania, United States

Feed Status: UP
Listen in your browser - HTML5 player(in browser, HTML5)
Click here to listen with your own player(launches your MP3 player)

KPIT 121651Z 24013G26KT 10SM -RA BKN023 OVC031 11/06 A2945 RMK AO2 PK WND 24031/1615 SLP979 P0000 T01060056

KPIT Airport Info (Airnav.com)

KPIT Flight Activity (Flightaware)

Listeners: 0 out of 3094 total

Emergency/Guard: 121.500
Pilot-to-ARFF Discrete: 118.700
Pittsburgh Clearance Delivery: 126.750
Pittsburgh Ground (North): 127.800
Pittsburgh Ground (South): 121.900
Pittsburgh Ramp (North): 130.775
Pittsburgh Ramp (South): 131.375

KPIT Tower #1 (Archives)
Pittsburgh, Pennsylvania, United States

Feed Status: UP
Listen in your browser - HTML5 player(in browser, HTML5)
Click here to listen with your own player(launches your MP3 player)

KPIT 121651Z 24013G26KT 10SM -RA BKN023 OVC031 11/06 A2945 RMK AO2 PK WND 24031/1615 SLP979 P0000 T01060056

KPIT Airport Info (Airnav.com)

KPIT Flight Activity (Flightaware)

Listeners: 4 out of 3094 total

Pittsburgh Tower: 128.300
Pittsburgh Tower: 119.100
Pittsburgh Tower: 135.025

KPIT Tower #2 (Archives)
Pittsburgh, Pennsylvania, United States

Feed Status: UP
Listen in your browser - HTML5 player(in browser, HTML5)
Click here to listen with your own player(launches your MP3 player)

KPIT 121651Z 24013G26KT 10SM -RA BKN023 OVC031 11/06 A2945 RMK AO2 PK WND 24031/1615 SLP979 P0000 T01060056

KPIT Airport Info (Airnav.com)

KPIT Flight Activity (Flightaware)

Listeners: 4 out of 3094 total

Pittsburgh Tower: 128.300

KPNE App/Dep (Archives)
Philadelphia, Pennsylvania, United States

Feed Status: UP
Listen in your browser - HTML5 player(in browser, HTML5)
Click here to listen with your own player(launches your MP3 player)

KPNE 121654Z 26017G23KT 10SM -RA FEW037 BKN049 OVC085 16/ A2941 RMK AO2 PK WND 26032/1607 SLP957 P0002 T0156 $

KPNE Airport Info (Airnav.com)

KPNE Flight Activity (Flightaware)

Listeners: 0 out of 3094 total

Philly Approach (Yardley Sector): 123.800

KPNE Del/Gnd/Twr/App (Archives)
Philadelphia, Pennsylvania, United States

Feed Status: UP
Listen in your browser - HTML5 player(in browser, HTML5)
Click here to listen with your own player(launches your MP3 player)

KPNE 121654Z 26017G23KT 10SM -RA FEW037 BKN049 OVC085 16/ A2941 RMK AO2 PK WND 26032/1607 SLP957 P0002 T0156 $

KPNE Airport Info (Airnav.com)

KPNE Flight Activity (Flightaware)

Listeners: 0 out of 3094 total

Emergency/Guard: 121.500
Northeast Clearance Delivery: 127.250
Northeast Ground: 121.700
Northeast Tower: 126.900
Philly Approach (Yardley Sector): 123.800

KPTK App/Dep (Archives)
Pontiac, Michigan, United States

Feed Status: UP
Listen in your browser - HTML5 player(in browser, HTML5)
Click here to listen with your own player(launches your MP3 player)

KPTK 121653Z 29029G41KT 5SM -RA BR BKN018 BKN023 OVC029 08/06 A2937 RMK AO2 PK WND 30041/1653 SLP949 P0003 T00830061

KPTK Airport Info (Airnav.com)

KPTK Flight Activity (Flightaware)

Listeners: 0 out of 3094 total

Detroit Approach/Departure: 127.500

Chicago Approach (North) (Archives)
Chicago/Prospect Heights/Wheeling, Illinois, United States

Feed Status: UP
Listen in your browser - HTML5 player(in browser, HTML5)
Click here to listen with your own player(launches your MP3 player)

KUGN 121651Z 33014G30KT 10SM FEW045 SCT050 16/04 A2973 RMK AO2 PK WND 32035/1626 SLP065 T01560039

KUGN Airport Info (Airnav.com)

KUGN Flight Activity (Flightaware)

Listeners: 0 out of 3094 total

Chicago Approach (North): 120.550

Atlanta Approach (N. Sat) (Archives)
Atlanta, Georgia, United States

Feed Status: UP
Listen in your browser - HTML5 player(in browser, HTML5)
Click here to listen with your own player(launches your MP3 player)

KRYY 121650Z 26019G29KT 10SM CLR 17/00 A3000 RMK AO2 PK WND 26032/1610 SLP153 T01720000 $

KRYY Airport Info (Airnav.com)

KRYY Flight Activity (Flightaware)

Listeners: 1 out of 3094 total

Atlanta Approach (North Satellite): 121.000

KSAN Clearance Delivery (Archives)
San Diego, California, United States

Feed Status: UP
Listen in your browser - HTML5 player(in browser, HTML5)
Click here to listen with your own player(launches your MP3 player)

KSAN 121651Z 20007KT 10SM OVC015 15/11 A2993 RMK AO2 SLP136 T01500106 $

KSAN Airport Info (Airnav.com)

KSAN Flight Activity (Flightaware)

Listeners: 0 out of 3094 total

Lindbergh Clearance Delivery: 125.900

KSAN Ground #1 (Archives)
San Diego, California, United States

Feed Status: UP
Listen in your browser - HTML5 player(in browser, HTML5)
Click here to listen with your own player(launches your MP3 player)

KSAN 121651Z 20007KT 10SM OVC015 15/11 A2993 RMK AO2 SLP136 T01500106 $

KSAN Airport Info (Airnav.com)

KSAN Flight Activity (Flightaware)

Listeners: 2 out of 3094 total

Lindbergh Ground: 123.900

KSAN Ramp (Archives)
San Diego, California, United States

Feed Status: UP
Listen in your browser - HTML5 player(in browser, HTML5)
Click here to listen with your own player(launches your MP3 player)

KSAN 121651Z 20007KT 10SM OVC015 15/11 A2993 RMK AO2 SLP136 T01500106 $

KSAN Airport Info (Airnav.com)

KSAN Flight Activity (Flightaware)

Listeners: 1 out of 3094 total

Lindbergh Ramp: 129.775

KSAN Ramp/Del/Gnd/Twr (Archives)
San Diego, California, United States

Feed Status: UP
Listen in your browser - HTML5 player(in browser, HTML5)
Click here to listen with your own player(launches your MP3 player)

KSAN 121651Z 20007KT 10SM OVC015 15/11 A2993 RMK AO2 SLP136 T01500106 $

KSAN Airport Info (Airnav.com)

KSAN Flight Activity (Flightaware)

Listeners: 9 out of 3094 total

Emergency/Guard: 121.500
Lindbergh Clearance Delivery: 125.900
Lindbergh Ground: 123.900
Lindbergh Ramp: 129.775
Lindbergh Tower: 118.300

KSAN SOCAL Dep (South Bay) (Archives)
San Diego, California, United States

Feed Status: UP
Listen in your browser - HTML5 player(in browser, HTML5)
Click here to listen with your own player(launches your MP3 player)

KSAN 121651Z 20007KT 10SM OVC015 15/11 A2993 RMK AO2 SLP136 T01500106 $

KSAN Airport Info (Airnav.com)

KSAN Flight Activity (Flightaware)

Listeners: 0 out of 3094 total

SOCAL Departure (Southbay Sector): 125.150

KSAN Tower #1 (Archives)
San Diego, California, United States

Feed Status: UP
Listen in your browser - HTML5 player(in browser, HTML5)
Click here to listen with your own player(launches your MP3 player)

KSAN 121651Z 20007KT 10SM OVC015 15/11 A2993 RMK AO2 SLP136 T01500106 $

KSAN Airport Info (Airnav.com)

KSAN Flight Activity (Flightaware)

Listeners: 9 out of 3094 total

Lindbergh Tower: 118.300

SOCAL App/Dep (Del Mar VHF) (Archives)
San Diego, California, United States

Feed Status: UP
Listen in your browser - HTML5 player(in browser, HTML5)
Click here to listen with your own player(launches your MP3 player)

KSAN 121651Z 20007KT 10SM OVC015 15/11 A2993 RMK AO2 SLP136 T01500106 $

KSAN Airport Info (Airnav.com)

KSAN Flight Activity (Flightaware)

Listeners: 1 out of 3094 total

SoCal Approach (Del Mar Sector): 127.300

SOCAL App/Dep (East) (Archives)
San Diego, California, United States

Feed Status: UP
Listen in your browser - HTML5 player(in browser, HTML5)
Click here to listen with your own player(launches your MP3 player)

KSAN 121651Z 20007KT 10SM OVC015 15/11 A2993 RMK AO2 SLP136 T01500106 $

KSAN Airport Info (Airnav.com)

KSAN Flight Activity (Flightaware)

Listeners: 1 out of 3094 total

SOCAL Approach/Departure (SAN East): 124.350

SOCAL App/Dep (NW) (Archives)
San Diego, California, United States

Feed Status: UP
Listen in your browser - HTML5 player(in browser, HTML5)
Click here to listen with your own player(launches your MP3 player)

KSAN 121651Z 20007KT 10SM OVC015 15/11 A2993 RMK AO2 SLP136 T01500106 $

KSAN Airport Info (Airnav.com)

KSAN Flight Activity (Flightaware)

Listeners: 0 out of 3094 total

SOCAL Approach/Departure (SAN NW): 125.300

SOCAL App/Dep (West) (Archives)
San Diego, California, United States

Feed Status: UP
Listen in your browser - HTML5 player(in browser, HTML5)
Click here to listen with your own player(launches your MP3 player)

KSAN 121651Z 20007KT 10SM OVC015 15/11 A2993 RMK AO2 SLP136 T01500106 $

KSAN Airport Info (Airnav.com)

KSAN Flight Activity (Flightaware)

Listeners: 0 out of 3094 total

SOCAL Approach/Departure (SAN West): 119.600

KSCK Gnd/Tower/NORCAL App (Archives)
Stockton, California, United States

Feed Status: UP
Listen in your browser - HTML5 player(in browser, HTML5)
Click here to listen with your own player(launches your MP3 player)

KSCK 121655Z 29014KT 10SM CLR 18/07 A2969 RMK AO2 SLP053 T01830067

KSCK Airport Info (Airnav.com)

KSCK Flight Activity (Flightaware)

Listeners: 1 out of 3094 total

NORCAL Approach (at/above 8000'): 124.800
NORCAL Approach (N/SE): 125.100
NORCAL Approach (SE/NW): 123.850
Stockton Ground: 121.900
Stockton Tower: 120.300
Stockton Unicom: 122.950

KSEA Air-to-Air (Archives)
Seattle, Washington, United States

Feed Status: UP
Listen in your browser - HTML5 player(in browser, HTML5)
Click here to listen with your own player(launches your MP3 player)

KSEA 121653Z 36009KT 10SM SCT013 BKN018 09/06 A2987 RMK AO2 SLP123 T00940056

KSEA Airport Info (Airnav.com)

KSEA Flight Activity (Flightaware)

Listeners: 1 out of 3094 total

Seattle Area Air-to-Air: 122.750

KSEA App/CHINS STAR (Archives)
Seattle, Washington, United States

Feed Status: UP
Listen in your browser - HTML5 player(in browser, HTML5)
Click here to listen with your own player(launches your MP3 player)

KSEA 121653Z 36009KT 10SM SCT013 BKN018 09/06 A2987 RMK AO2 SLP123 T00940056

KSEA Airport Info (Airnav.com)

KSEA Flight Activity (Flightaware)

Listeners: 0 out of 3094 total

Seattle Approach (CHINS Arrival): 123.900

KSEA Approach (NW) (Archives)
Seattle, Washington, United States

Feed Status: UP
Listen in your browser - HTML5 player(in browser, HTML5)
Click here to listen with your own player(launches your MP3 player)

KSEA 121653Z 36009KT 10SM SCT013 BKN018 09/06 A2987 RMK AO2 SLP123 T00940056

KSEA Airport Info (Airnav.com)

KSEA Flight Activity (Flightaware)

Listeners: 0 out of 3094 total

Seattle Approach (NW): 120.400
Seattle Approach (West): 120.100

KSEA Approach (PAE) (Archives)
Seattle, Washington, United States

Feed Status: UP
Listen in your browser - HTML5 player(in browser, HTML5)
Click here to listen with your own player(launches your MP3 player)

KSEA 121653Z 36009KT 10SM SCT013 BKN018 09/06 A2987 RMK AO2 SLP123 T00940056

KSEA Airport Info (Airnav.com)

KSEA Flight Activity (Flightaware)

Listeners: 0 out of 3094 total

Seattle Departure: 119.200

KSEA Approach (South) (Archives)
Seattle, Washington, United States

Feed Status: UP
Listen in your browser - HTML5 player(in browser, HTML5)
Click here to listen with your own player(launches your MP3 player)

KSEA 121653Z 36009KT 10SM SCT013 BKN018 09/06 A2987 RMK AO2 SLP123 T00940056

KSEA Airport Info (Airnav.com)

KSEA Flight Activity (Flightaware)

Listeners: 0 out of 3094 total

Seattle Approach (South): 126.500

KSEA Approach (TBD) (Archives)
Seattle, Washington, United States

Feed Status: UP
Listen in your browser - HTML5 player(in browser, HTML5)
Click here to listen with your own player(launches your MP3 player)

KSEA 121653Z 36009KT 10SM SCT013 BKN018 09/06 A2987 RMK AO2 SLP123 T00940056

KSEA Airport Info (Airnav.com)

KSEA Flight Activity (Flightaware)

Listeners: 0 out of 3094 total

Seattle Approach: 125.900

KSEA Approach (West) (Archives)
Seattle, Washington, United States

Feed Status: UP
Listen in your browser - HTML5 player(in browser, HTML5)
Click here to listen with your own player(launches your MP3 player)

KSEA 121653Z 36009KT 10SM SCT013 BKN018 09/06 A2987 RMK AO2 SLP123 T00940056

KSEA Airport Info (Airnav.com)

KSEA Flight Activity (Flightaware)

Listeners: 0 out of 3094 total


KSEA Approach (West/Arrival) (Archives)
Seattle, Washington, United States

Feed Status: UP
Listen in your browser - HTML5 player(in browser, HTML5)
Click here to listen with your own player(launches your MP3 player)

KSEA 121653Z 36009KT 10SM SCT013 BKN018 09/06 A2987 RMK AO2 SLP123 T00940056

KSEA Airport Info (Airnav.com)

KSEA Flight Activity (Flightaware)

Listeners: 0 out of 3094 total

Seattle Approach (West Arrivval): 125.600

KSEA ATIS (Archives)
Seattle, Washington, United States

Feed Status: UP
Listen in your browser - HTML5 player(in browser, HTML5)
Click here to listen with your own player(launches your MP3 player)

KSEA 121653Z 36009KT 10SM SCT013 BKN018 09/06 A2987 RMK AO2 SLP123 T00940056

KSEA Airport Info (Airnav.com)

KSEA Flight Activity (Flightaware)

Listeners: 0 out of 3094 total

Seattle ATIS: 118.000

KSEA FSS (122.2) (Archives)
Seattle, Washington, United States

Feed Status: UP
Listen in your browser - HTML5 player(in browser, HTML5)
Click here to listen with your own player(launches your MP3 player)

KSEA 121653Z 36009KT 10SM SCT013 BKN018 09/06 A2987 RMK AO2 SLP123 T00940056

KSEA Airport Info (Airnav.com)

KSEA Flight Activity (Flightaware)

Listeners: 0 out of 3094 total

Flight Service: 122.200

KSEA FSS (122.5) (Archives)
Seattle, Washington, United States

Feed Status: UP
Listen in your browser - HTML5 player(in browser, HTML5)
Click here to listen with your own player(launches your MP3 player)

KSEA 121653Z 36009KT 10SM SCT013 BKN018 09/06 A2987 RMK AO2 SLP123 T00940056

KSEA Airport Info (Airnav.com)

KSEA Flight Activity (Flightaware)

Listeners: 0 out of 3094 total

Flight Service: 122.500

KSEA Ground (Archives)
Seattle, Washington, United States

Feed Status: UP
Listen in your browser - HTML5 player(in browser, HTML5)
Click here to listen with your own player(launches your MP3 player)

KSEA 121653Z 36009KT 10SM SCT013 BKN018 09/06 A2987 RMK AO2 SLP123 T00940056

KSEA Airport Info (Airnav.com)

KSEA Flight Activity (Flightaware)

Listeners: 1 out of 3094 total

Seattle Ground: 121.700

KSEA Guard (Archives)
Seattle, Washington, United States

Feed Status: UP
Listen in your browser - HTML5 player(in browser, HTML5)
Click here to listen with your own player(launches your MP3 player)

KSEA 121653Z 36009KT 10SM SCT013 BKN018 09/06 A2987 RMK AO2 SLP123 T00940056

KSEA Airport Info (Airnav.com)

KSEA Flight Activity (Flightaware)

Listeners: 0 out of 3094 total

Emergency/Guard: 121.500

KSEA Ramp (Hold) (Archives)
Seattle, Washington, United States

Feed Status: UP
Listen in your browser - HTML5 player(in browser, HTML5)
Click here to listen with your own player(launches your MP3 player)

KSEA 121653Z 36009KT 10SM SCT013 BKN018 09/06 A2987 RMK AO2 SLP123 T00940056

KSEA Airport Info (Airnav.com)

KSEA Flight Activity (Flightaware)

Listeners: 0 out of 3094 total

Seattle Ramp (Hold): 126.250

KSEA Ramp (North) (Archives)
Seattle, Washington, United States

Feed Status: UP
Listen in your browser - HTML5 player(in browser, HTML5)
Click here to listen with your own player(launches your MP3 player)

KSEA 121653Z 36009KT 10SM SCT013 BKN018 09/06 A2987 RMK AO2 SLP123 T00940056

KSEA Airport Info (Airnav.com)

KSEA Flight Activity (Flightaware)

Listeners: 0 out of 3094 total

Seattle Ramp (North): 126.875

KSEA Ramp (South) (Archives)
Seattle, Washington, United States

Feed Status: UP
Listen in your browser - HTML5 player(in browser, HTML5)
Click here to listen with your own player(launches your MP3 player)

KSEA 121653Z 36009KT 10SM SCT013 BKN018 09/06 A2987 RMK AO2 SLP123 T00940056

KSEA Airport Info (Airnav.com)

KSEA Flight Activity (Flightaware)

Listeners: 0 out of 3094 total

Seattle Ramp (South): 122.275

KSEA Tower (16L/34R,16C/34C) #2 (Archives)
Seattle, Washington, United States

Feed Status: UP
Listen in your browser - HTML5 player(in browser, HTML5)
Click here to listen with your own player(launches your MP3 player)

KSEA 121653Z 36009KT 10SM SCT013 BKN018 09/06 A2987 RMK AO2 SLP123 T00940056

KSEA Airport Info (Airnav.com)

KSEA Flight Activity (Flightaware)

Listeners: 5 out of 3094 total

Seattle Tower (East): 119.900

KSEA Tower (16R/34L) #2 (Archives)
Seattle, Washington, United States

Feed Status: UP
Listen in your browser - HTML5 player(in browser, HTML5)
Click here to listen with your own player(launches your MP3 player)

KSEA 121653Z 36009KT 10SM SCT013 BKN018 09/06 A2987 RMK AO2 SLP123 T00940056

KSEA Airport Info (Airnav.com)

KSEA Flight Activity (Flightaware)

Listeners: 1 out of 3094 total

Seattle Tower (West): 120.950

KMCO App/Dep (North Satellite) (Archives)
Orlando, Florida, United States

Feed Status: UP
Listen in your browser - HTML5 player(in browser, HTML5)
Click here to listen with your own player(launches your MP3 player)

KORL 121653Z 27014G23KT 10SM CLR 24/09 A3013 RMK AO2 SLP205 T02440094

KORL Airport Info (Airnav.com)

KORL Flight Activity (Flightaware)

Listeners: 1 out of 3094 total

Orlando Approach (North Satellite): 135.300

KSFO Company Channels (Archives)
San Francisco, California, United States

Feed Status: UP
Listen in your browser - HTML5 player(in browser, HTML5)
Click here to listen with your own player(launches your MP3 player)

KSFO 121656Z 25012KT 10SM FEW006 BKN018 13/08 A2975 RMK AO2 SLP075 T01280083

KSFO Airport Info (Airnav.com)

KSFO Flight Activity (Flightaware)

Listeners: 0 out of 3094 total


KSFO D-ATIS (Archives)
San Francisco, California, United States

Feed Status: UP
Listen in your browser - HTML5 player(in browser, HTML5)
Click here to listen with your own player(launches your MP3 player)

KSFO 121656Z 25012KT 10SM FEW006 BKN018 13/08 A2975 RMK AO2 SLP075 T01280083

KSFO Airport Info (Airnav.com)

KSFO Flight Activity (Flightaware)

Listeners: 0 out of 3094 total

KSFO Digital ATIS: 118.850

KSFO Del/Gnd (Alt)/Twr (Alt) (Archives)
San Francisco, California, United States

Feed Status: UP
Listen in your browser - HTML5 player(in browser, HTML5)
Click here to listen with your own player(launches your MP3 player)

KSFO 121656Z 25012KT 10SM FEW006 BKN018 13/08 A2975 RMK AO2 SLP075 T01280083

KSFO Airport Info (Airnav.com)

KSFO Flight Activity (Flightaware)

Listeners: 2 out of 3094 total

San Francisco Clearance Delivery: 118.200
San Francisco Ground/Gate Hold: 124.250
San Francisco Tower (alternate/backup): 128.650

KSFO Dep 120.9/127.0 (Archives)
San Francisco, California, United States

Feed Status: UP
Listen in your browser - HTML5 player(in browser, HTML5)
Click here to listen with your own player(launches your MP3 player)

KSFO 121656Z 25012KT 10SM FEW006 BKN018 13/08 A2975 RMK AO2 SLP075 T01280083

KSFO Airport Info (Airnav.com)

KSFO Flight Activity (Flightaware)

Listeners: 4 out of 3094 total

NORCAL Approach: 127.000
NORCAL Departure: 120.900

KSFO Dep 135.1 (Archives)
San Francisco, California, United States

Feed Status: UP
Listen in your browser - HTML5 player(in browser, HTML5)
Click here to listen with your own player(launches your MP3 player)

KSFO 121656Z 25012KT 10SM FEW006 BKN018 13/08 A2975 RMK AO2 SLP075 T01280083

KSFO Airport Info (Airnav.com)

KSFO Flight Activity (Flightaware)

Listeners: 2 out of 3094 total

NORCAL Departure: 127.975
NORCAL Departure: 135.100

KSFO Ground (Archives)
San Francisco, California, United States

Feed Status: UP
Listen in your browser - HTML5 player(in browser, HTML5)
Click here to listen with your own player(launches your MP3 player)

KSFO 121656Z 25012KT 10SM FEW006 BKN018 13/08 A2975 RMK AO2 SLP075 T01280083

KSFO Airport Info (Airnav.com)

KSFO Flight Activity (Flightaware)

Listeners: 3 out of 3094 total

San Francisco Ground: 121.800

KSFO Ground/Tower (Archives)
San Francisco, California, United States

Feed Status: UP
Listen in your browser - HTML5 player(in browser, HTML5)
Click here to listen with your own player(launches your MP3 player)

KSFO 121656Z 25012KT 10SM FEW006 BKN018 13/08 A2975 RMK AO2 SLP075 T01280083

KSFO Airport Info (Airnav.com)

KSFO Flight Activity (Flightaware)

Listeners: 4 out of 3094 total

San Francisco Ground: 121.800
San Francisco Tower: 120.500

KSFO NORCAL App 28L/R (Archives)
San Francisco, California, United States

Feed Status: UP
Listen in your browser - HTML5 player(in browser, HTML5)
Click here to listen with your own player(launches your MP3 player)

KSFO 121656Z 25012KT 10SM FEW006 BKN018 13/08 A2975 RMK AO2 SLP075 T01280083

KSFO Airport Info (Airnav.com)

KSFO Flight Activity (Flightaware)

Listeners: 4 out of 3094 total

NORCAL Approach (Foster Sector, SFO 28R Final): 120.350
NORCAL Approach (Woodside Sector, SFO 28L Final): 135.650

KSFO NORCAL App 28L/R + BSR/MOD STARs (Archives)
San Francisco, California, United States

Feed Status: UP
Listen in your browser - HTML5 player(in browser, HTML5)
Click here to listen with your own player(launches your MP3 player)

KSFO 121656Z 25012KT 10SM FEW006 BKN018 13/08 A2975 RMK AO2 SLP075 T01280083

KSFO Airport Info (Airnav.com)

KSFO Flight Activity (Flightaware)

Listeners: 3 out of 3094 total

NORCAL Approach (Boulder Sector, BSR2 STAR): 133.950
NORCAL Approach (Foster Sector, SFO 28R Final): 120.350
NORCAL Approach (Niles Sector, MOD2 STAR): 128.325
NORCAL Approach (Woodside Sector, SFO 28L Final): 135.650

KSFO NORCAL BSR2/MOD2 Arrivals (Archives)
San Francisco, California, United States

Feed Status: UP
Listen in your browser - HTML5 player(in browser, HTML5)
Click here to listen with your own player(launches your MP3 player)

KSFO 121656Z 25012KT 10SM FEW006 BKN018 13/08 A2975 RMK AO2 SLP075 T01280083

KSFO Airport Info (Airnav.com)

KSFO Flight Activity (Flightaware)

Listeners: 1 out of 3094 total

NORCAL Approach (Boulder Sector, BSR2 STAR): 133.950
NORCAL Approach (Niles Sector, MOD2 STAR): 128.325

KSFO Ramp (Archives)
San Francisco, California, United States

Feed Status: UP
Listen in your browser - HTML5 player(in browser, HTML5)
Click here to listen with your own player(launches your MP3 player)

KSFO 121656Z 25012KT 10SM FEW006 BKN018 13/08 A2975 RMK AO2 SLP075 T01280083

KSFO Airport Info (Airnav.com)

KSFO Flight Activity (Flightaware)

Listeners: 1 out of 3094 total

KSFO Ramp A (East): 127.575
KSFO Ramp G (West): 119.225
KSFO Shadow Ramp: 131.000

KSFO Tower (Archives)
San Francisco, California, United States

Feed Status: UP
Listen in your browser - HTML5 player(in browser, HTML5)
Click here to listen with your own player(launches your MP3 player)

KSFO 121656Z 25012KT 10SM FEW006 BKN018 13/08 A2975 RMK AO2 SLP075 T01280083

KSFO Airport Info (Airnav.com)

KSFO Flight Activity (Flightaware)

Listeners: 11 out of 3094 total

San Francisco Tower: 120.500
San Francisco Tower (secondary): 128.650

KSFO Tower/Ground (Archives)
San Francisco, California, United States

Feed Status: UP
Listen in your browser - HTML5 player(in browser, HTML5)
Click here to listen with your own player(launches your MP3 player)

KSFO 121656Z 25012KT 10SM FEW006 BKN018 13/08 A2975 RMK AO2 SLP075 T01280083

KSFO Airport Info (Airnav.com)

KSFO Flight Activity (Flightaware)

Listeners: 2 out of 3094 total

San Francisco Ground: 121.800
San Francisco Ground/Gate Hold: 124.250
San Francisco Tower: 120.500
San Francisco Tower (secondary): 128.650

SFO Fleet Week
San Francisco, California, United States

Feed Status: DOWN
Offline since: 2023-10-08 22:53:05 UTC


KSLC Approach/Departure (Archives)
Salt Lake City, Utah, United States

Feed Status: UP
Listen in your browser - HTML5 player(in browser, HTML5)
Click here to listen with your own player(launches your MP3 player)

KSLC 121654Z 18016G25KT 10SM FEW090 FEW150 FEW230 22/M03 A2991 RMK AO2 SLP087 T02221028

KSLC Airport Info (Airnav.com)

KSLC Flight Activity (Flightaware)

Listeners: 0 out of 3094 total

Salt Lake Approach/Departure: 121.100
Salt Lake Approach/Departure: 120.900
Salt Lake Approach/Departure: 124.900
Salt Lake Approach/Departure: 125.700
Salt Lake Approach/Departure: 126.250
Salt Lake Approach/Departure: 128.100
Salt Lake Approach/Departure: 128.600
Salt Lake Approach/Departure: 135.500

KSLC Del/Ground (Archives)
Salt Lake City, Utah, United States

Feed Status: UP
Listen in your browser - HTML5 player(in browser, HTML5)
Click here to listen with your own player(launches your MP3 player)

KSLC 121654Z 18016G25KT 10SM FEW090 FEW150 FEW230 22/M03 A2991 RMK AO2 SLP087 T02221028

KSLC Airport Info (Airnav.com)

KSLC Flight Activity (Flightaware)

Listeners: 0 out of 3094 total

Salt Lake Clearance Delivery: 127.300
Salt Lake Ground (Rwy 14/32, Rwy 17/35): 121.900
Salt Lake Ground (Rwy 16L/34R, Rwy 16R/34L): 123.775

KSLC Tower (Archives)
Salt Lake City, Utah, United States

Feed Status: UP
Listen in your browser - HTML5 player(in browser, HTML5)
Click here to listen with your own player(launches your MP3 player)

KSLC 121654Z 18016G25KT 10SM FEW090 FEW150 FEW230 22/M03 A2991 RMK AO2 SLP087 T02221028

KSLC Airport Info (Airnav.com)

KSLC Flight Activity (Flightaware)

Listeners: 2 out of 3094 total

Salt Lake Tower (Rwy 16L/34R): 119.050
Salt Lake Tower (Rwy 16R/34L): 132.650
Salt Lake Tower (Rwys 17/35 & 14/32): 118.300

KSTL Approach (Archives)
St. Louis, Missouri, United States

Feed Status: UP
Listen in your browser - HTML5 player(in browser, HTML5)
Click here to listen with your own player(launches your MP3 player)

KSTL 121651Z 29015G30KT 10SM FEW055 18/03 A3005 RMK AO2 PK WND 31030/1645 SLP172 T01780033

KSTL Airport Info (Airnav.com)

KSTL Flight Activity (Flightaware)

Listeners: 1 out of 3094 total

St. Louis Approach: 119.150
St. Louis Approach: 132.125
St. Louis Approach: 128.100
St. Louis Approach: 126.550
St. Louis Approach: 126.500
St. Louis Approach: 124.250
St. Louis Approach: 124.200
St. Louis Approach: 123.700
St. Louis Approach: 121.025
St. Louis Approach: 125.200

KSTL Del/Gnd/Twr (Archives)
St. Louis, Missouri, United States

Feed Status: UP
Listen in your browser - HTML5 player(in browser, HTML5)
Click here to listen with your own player(launches your MP3 player)

KSTL 121651Z 29015G30KT 10SM FEW055 18/03 A3005 RMK AO2 PK WND 31030/1645 SLP172 T01780033

KSTL Airport Info (Airnav.com)

KSTL Flight Activity (Flightaware)

Listeners: 1 out of 3094 total

St. Louis Clearance Delivery: 119.500
St. Louis Clearance Delivery: 363.100
St. Louis Clearance Metering: 121.075
St. Louis Clearance Metering: 127.550
St. Louis Clearance Metering: 360.200
St. Louis Ground: 121.900
St. Louis Ground: 118.925
St. Louis Tower: 118.500
St. Louis Tower: 120.050
St. Louis Tower: 132.475
St. Louis Tower: 239.275
St. Louis Tower: 257.700
St. Louis Tower: 284.600

NY Approach (Liberty/Catskills) (Archives)
Newburgh, New York, United States

Feed Status: UP
Listen in your browser - HTML5 player(in browser, HTML5)
Click here to listen with your own player(launches your MP3 player)


Listeners: 0 out of 3094 total

New York Approach (Liberty Area/Catskills Sector): 132.750

KTPA App/Dep (135.5)
Tampa, Florida, United States

Feed Status: DOWN
Offline since: 2024-04-04 04:17:22 UTC

KTPA 121653Z 32013G19KT 10SM FEW280 25/10 A3016 RMK AO2 SLP214 T02500100

KTPA Airport Info (Airnav.com)

Tamp Approach/Departure (East of Tampa 4500'-12000'): 135.500

KTPA App/Dep 118.8 #1
Tampa, Florida, United States

Feed Status: DOWN
Offline since: 2024-04-04 04:17:22 UTC

KTPA 121653Z 32013G19KT 10SM FEW280 25/10 A3016 RMK AO2 SLP214 T02500100

KTPA Airport Info (Airnav.com)

Tampa Approach/Departure: 118.800

KTPA Ground
Tampa, Florida, United States

Feed Status: DOWN
Offline since: 2024-04-04 04:17:22 UTC

KTPA 121653Z 32013G19KT 10SM FEW280 25/10 A3016 RMK AO2 SLP214 T02500100

KTPA Airport Info (Airnav.com)

Tampa Ground: 121.700

KTPA Tower #1
Tampa, Florida, United States

Feed Status: DOWN
Offline since: 2024-04-04 04:17:22 UTC

KTPA 121653Z 32013G19KT 10SM FEW280 25/10 A3016 RMK AO2 SLP214 T02500100

KTPA Airport Info (Airnav.com)

Tampa Tower: 119.500

Chicago Approach (North) (Archives)
Chicago/Waukegan, Illinois, United States

Feed Status: UP
Listen in your browser - HTML5 player(in browser, HTML5)
Click here to listen with your own player(launches your MP3 player)

KUGN 121651Z 33014G30KT 10SM FEW045 SCT050 16/04 A2973 RMK AO2 PK WND 32035/1626 SLP065 T01560039

KUGN Airport Info (Airnav.com)

KUGN Flight Activity (Flightaware)

Listeners: 0 out of 3094 total

Chicago Approach (North): 120.550

KWHP/KVNY/KBUR App/Dep (Archives)
Van Nuys, California, United States

Feed Status: UP
Listen in your browser - HTML5 player(in browser, HTML5)
Click here to listen with your own player(launches your MP3 player)

KWHP 121650Z 11005KT 2SM OVC007 12/12 A2990

KWHP Airport Info (Airnav.com)

KWHP Flight Activity (Flightaware)

Listeners: 0 out of 3094 total

SOCAL App (Glendale Sector): 135.050
SOCAL App (Valley Sector): 124.600
SOCAL Approach (Fillmore Sector): 120.400
SOCAL Approach (Moorpark Sector): 128.750
SOCAL Approach (Woodland Sector): 134.200

KWHP/KVNY/KBUR App/Dep (Archives)
Los Angeles, California, United States

Feed Status: UP
Listen in your browser - HTML5 player(in browser, HTML5)
Click here to listen with your own player(launches your MP3 player)

KWHP 121650Z 11005KT 2SM OVC007 12/12 A2990

KWHP Airport Info (Airnav.com)

KWHP Flight Activity (Flightaware)

Listeners: 0 out of 3094 total

SOCAL App (Glendale Sector): 135.050
SOCAL App (Valley Sector): 124.600
SOCAL Approach (Fillmore Sector): 120.400
SOCAL Approach (Moorpark Sector): 128.750
SOCAL Approach (Woodland Sector): 134.200

L70 CTAF/Misc (Archives)
Agua Dulce, California, United States

Feed Status: UP
Listen in your browser - HTML5 player(in browser, HTML5)
Click here to listen with your own player(launches your MP3 player)

KVNY 121651Z 15006KT 2 1/2SM HZ OVC008 13/10 A2988 RMK AO2 SLP112 T01280100

KVNY Airport Info (Airnav.com)

KVNY Flight Activity (Flightaware)

Listeners: 0 out of 3094 total

Agua Dulce CTAF: 122.800
Emergency/Guard: 121.500
LA County Fire Air/Ground : 131.425
Practice Areas: 122.775
SOCAL Helicopters: 123.025

PHNL ARFF/Emergency (Archives)
Honolulu, Hawaii, United States

Feed Status: UP
Listen in your browser - HTML5 player(in browser, HTML5)
Click here to listen with your own player(launches your MP3 player)

PHNL 121653Z VRB03KT 8SM RA FEW024 SCT035 BKN065 23/20 A3004 RMK AO2 RAB1559 SLP172 P0004 T02280200

PHNL Airport Info (Airnav.com)

PHNL Flight Activity (Flightaware)

Listeners: 1 out of 3094 total

Honolulu ARFF/Emergency: 121.100

PHNL ATIS (Archives)
Honolulu, Hawaii, United States

Feed Status: UP
Listen in your browser - HTML5 player(in browser, HTML5)
Click here to listen with your own player(launches your MP3 player)

PHNL 121653Z VRB03KT 8SM RA FEW024 SCT035 BKN065 23/20 A3004 RMK AO2 RAB1559 SLP172 P0004 T02280200

PHNL Airport Info (Airnav.com)

PHNL Flight Activity (Flightaware)

Listeners: 1 out of 3094 total

Honolulu ATIS: 127.900

PHNL Clearance Delivery (Archives)
Honolulu, Hawaii, United States

Feed Status: UP
Listen in your browser - HTML5 player(in browser, HTML5)
Click here to listen with your own player(launches your MP3 player)

PHNL 121653Z VRB03KT 8SM RA FEW024 SCT035 BKN065 23/20 A3004 RMK AO2 RAB1559 SLP172 P0004 T02280200

PHNL Airport Info (Airnav.com)

PHNL Flight Activity (Flightaware)

Listeners: 4 out of 3094 total

Honolulu Clearance Delivery: 121.400

PHNL Del/Gnd/Ramp (Archives)
Honolulu, Hawaii, United States

Feed Status: UP
Listen in your browser - HTML5 player(in browser, HTML5)
Click here to listen with your own player(launches your MP3 player)

PHNL 121653Z VRB03KT 8SM RA FEW024 SCT035 BKN065 23/20 A3004 RMK AO2 RAB1559 SLP172 P0004 T02280200

PHNL Airport Info (Airnav.com)

PHNL Flight Activity (Flightaware)

Listeners: 3 out of 3094 total

Honolulu ARFF/Emergency: 121.100
Honolulu Clearance Delivery: 121.400
Honolulu Ground: 121.900
Honolulu Ramp Advisory: 121.800

PHNL Emergency/Guard (Archives)
Honolulu, Hawaii, United States

Feed Status: UP
Listen in your browser - HTML5 player(in browser, HTML5)
Click here to listen with your own player(launches your MP3 player)

PHNL 121653Z VRB03KT 8SM RA FEW024 SCT035 BKN065 23/20 A3004 RMK AO2 RAB1559 SLP172 P0004 T02280200

PHNL Airport Info (Airnav.com)

PHNL Flight Activity (Flightaware)

Listeners: 2 out of 3094 total

Emergency/Guard: 121.500

PHNL Ground (Archives)
Honolulu, Hawaii, United States

Feed Status: UP
Listen in your browser - HTML5 player(in browser, HTML5)
Click here to listen with your own player(launches your MP3 player)

PHNL 121653Z VRB03KT 8SM RA FEW024 SCT035 BKN065 23/20 A3004 RMK AO2 RAB1559 SLP172 P0004 T02280200

PHNL Airport Info (Airnav.com)

PHNL Flight Activity (Flightaware)

Listeners: 3 out of 3094 total

Honolulu Ground: 121.900

PHNL HCF App/Dep (Archives)
Honolulu, Hawaii, United States

Feed Status: UP
Listen in your browser - HTML5 player(in browser, HTML5)
Click here to listen with your own player(launches your MP3 player)

PHNL 121653Z VRB03KT 8SM RA FEW024 SCT035 BKN065 23/20 A3004 RMK AO2 RAB1559 SLP172 P0004 T02280200

PHNL Airport Info (Airnav.com)

PHNL Flight Activity (Flightaware)

Listeners: 4 out of 3094 total

HCF Approach/Departure: 119.100
HCF Approach/Departure (East): 124.800
HCF Approach/Departure (West): 118.300

PHNL HCF App/Dep (119.1) (Archives)
Honolulu, Hawaii, United States

Feed Status: UP
Listen in your browser - HTML5 player(in browser, HTML5)
Click here to listen with your own player(launches your MP3 player)

PHNL 121653Z VRB03KT 8SM RA FEW024 SCT035 BKN065 23/20 A3004 RMK AO2 RAB1559 SLP172 P0004 T02280200

PHNL Airport Info (Airnav.com)

PHNL Flight Activity (Flightaware)

Listeners: 6 out of 3094 total

HCF Approach/Departure: 119.100

PHNL HCF App/Dep (East) (Archives)
Honolulu, Hawaii, United States

Feed Status: UP
Listen in your browser - HTML5 player(in browser, HTML5)
Click here to listen with your own player(launches your MP3 player)

PHNL 121653Z VRB03KT 8SM RA FEW024 SCT035 BKN065 23/20 A3004 RMK AO2 RAB1559 SLP172 P0004 T02280200

PHNL Airport Info (Airnav.com)

PHNL Flight Activity (Flightaware)

Listeners: 4 out of 3094 total

HCF Approach/Departure (East): 124.800

PHNL HCF App/Dep (West) (Archives)
Honolulu, Hawaii, United States

Feed Status: UP
Listen in your browser - HTML5 player(in browser, HTML5)
Click here to listen with your own player(launches your MP3 player)

PHNL 121653Z VRB03KT 8SM RA FEW024 SCT035 BKN065 23/20 A3004 RMK AO2 RAB1559 SLP172 P0004 T02280200

PHNL Airport Info (Airnav.com)

PHNL Flight Activity (Flightaware)

Listeners: 4 out of 3094 total

HCF Approach/Departure (West): 118.300

PHNL Ramp Advisory (Archives)
Honolulu, Hawaii, United States

Feed Status: UP
Listen in your browser - HTML5 player(in browser, HTML5)
Click here to listen with your own player(launches your MP3 player)

PHNL 121653Z VRB03KT 8SM RA FEW024 SCT035 BKN065 23/20 A3004 RMK AO2 RAB1559 SLP172 P0004 T02280200

PHNL Airport Info (Airnav.com)

PHNL Flight Activity (Flightaware)

Listeners: 1 out of 3094 total

Honolulu Ramp Advisory: 121.800

PHNL Tower (Both) (Archives)
Honolulu, Hawaii, United States

Feed Status: UP
Listen in your browser - HTML5 player(in browser, HTML5)
Click here to listen with your own player(launches your MP3 player)

PHNL 121653Z VRB03KT 8SM RA FEW024 SCT035 BKN065 23/20 A3004 RMK AO2 RAB1559 SLP172 P0004 T02280200

PHNL Airport Info (Airnav.com)

PHNL Flight Activity (Flightaware)

Listeners: 13 out of 3094 total

Honolulu Tower (Primary): 118.100
Honolulu Tower (Rwy 08R/26L): 123.900

PHNL Tower (Primary) (Archives)
Honolulu, Hawaii, United States

Feed Status: UP
Listen in your browser - HTML5 player(in browser, HTML5)
Click here to listen with your own player(launches your MP3 player)

PHNL 121653Z VRB03KT 8SM RA FEW024 SCT035 BKN065 23/20 A3004 RMK AO2 RAB1559 SLP172 P0004 T02280200

PHNL Airport Info (Airnav.com)

PHNL Flight Activity (Flightaware)

Listeners: 11 out of 3094 total

Honolulu Tower (Primary): 118.100

PHNL Tower (Rwy 08R/26L) (Archives)
Honolulu, Hawaii, United States

Feed Status: UP
Listen in your browser - HTML5 player(in browser, HTML5)
Click here to listen with your own player(launches your MP3 player)

PHNL 121653Z VRB03KT 8SM RA FEW024 SCT035 BKN065 23/20 A3004 RMK AO2 RAB1559 SLP172 P0004 T02280200

PHNL Airport Info (Airnav.com)

PHNL Flight Activity (Flightaware)

Listeners: 2 out of 3094 total

Honolulu Tower (Rwy 08R/26L): 123.900